<?xml version="1.0" encoding="utf-8"?>
<gpx version="1.1" creator="Guru Maps/6.1.1" xmlns:xsi="http://www.w3.org/2001/XMLSchema-instance" xmlns="http://www.topografix.com/GPX/1/1" xmlns:gom="https://gurumaps.app/gpx/v3" xsi:schemaLocation="http://www.topografix.com/GPX/1/1 http://www.topografix.com/GPX/1/1/gpx.xsd https://gurumaps.app/gpx/v3 https://gurumaps.app/gpx/v3/schema.xsd">
 <trk>
  <name>Бабушка Низовская - 2. 25.04.2026</name>
  <type>TrackStyle_4CAF50C8</type>
  <extensions>
   <gom:time>2026-04-25T10:12:55.432Z</gom:time>
   <line xmlns="http://www.topografix.com/GPX/gpx_style/0/2">
    <color>4CAF50</color>
   </line>
  </extensions>
  <trkseg>
   <trkpt lat="59.0554777181" lon="29.9623615038"><ele>85.503</ele><time>2026-04-25T10:12:55.000Z</time><hdop>3.5</hdop><vdop>6.0</vdop><extensions><gom:speed>0.0</gom:speed></extensions></trkpt>
   <trkpt lat="59.0554296479" lon="29.9624818679"><ele>82.664</ele><time>2026-04-25T10:16:50.999Z</time><hdop>4.687</hdop><vdop>3.187</vdop><extensions><gom:speed>0.647</gom:speed><gom:course>86.59</gom:course><gom:rel_alt>0.182</gom:rel_alt></extensions></trkpt>
  </trkseg>
  <trkseg>
   <trkpt lat="59.0554285582" lon="29.9624060955"><ele>85.571</ele><time>2026-04-25T10:22:07.021Z</time><hdop>4.25</hdop><vdop>6.0</vdop><extensions><gom:speed>0.0</gom:speed></extensions></trkpt>
   <trkpt lat="59.0554071006" lon="29.962549929"><ele>83.977</ele><time>2026-04-25T10:22:50.999Z</time><hdop>4.687</hdop><vdop>4.375</vdop><extensions><gom:speed>0.914</gom:speed><gom:course>125.355</gom:course><gom:rel_alt>-0.293</gom:rel_alt></extensions></trkpt>
   <trkpt lat="59.0554422626" lon="29.9624102027"><ele>84.04</ele><time>2026-04-25T10:22:58.999Z</time><hdop>4.687</hdop><vdop>4.125</vdop><extensions><gom:speed>1.04</gom:speed><gom:course>312.258</gom:course><gom:rel_alt>-0.29</gom:rel_alt></extensions></trkpt>
   <trkpt lat="59.0554891175" lon="29.9622887489"><ele>83.545</ele><time>2026-04-25T10:23:53.999Z</time><hdop>4.687</hdop><vdop>3.062</vdop><extensions><gom:speed>1.148</gom:speed><gom:course>289.411</gom:course><gom:rel_alt>0.013</gom:rel_alt></extensions></trkpt>
   <trkpt lat="59.0555167778" lon="29.9621547222"><ele>82.774</ele><time>2026-04-25T10:24:02.000Z</time><hdop>4.687</hdop><vdop>3.125</vdop><extensions><gom:speed>0.846</gom:speed><gom:course>292.383</gom:course></extensions></trkpt>
   <trkpt lat="59.0555274647" lon="29.9620036804"><ele>83.089</ele><time>2026-04-25T10:24:10.000Z</time><hdop>4.687</hdop><vdop>4.937</vdop><extensions><gom:speed>1.144</gom:speed><gom:course>289.851</gom:course><gom:rel_alt>-0.1</gom:rel_alt></extensions></trkpt>
   <trkpt lat="59.055573188" lon="29.961893626"><ele>82.958</ele><time>2026-04-25T10:24:19.999Z</time><hdop>4.687</hdop><vdop>5.187</vdop><extensions><gom:speed>1.099</gom:speed><gom:course>356.506</gom:course><gom:rel_alt>0.332</gom:rel_alt></extensions></trkpt>
   <trkpt lat="59.0556440989" lon="29.9619597592"><ele>84.983</ele><time>2026-04-25T10:24:24.999Z</time><hdop>4.687</hdop><vdop>5.125</vdop><extensions><gom:speed>1.229</gom:speed><gom:course>28.702</gom:course><gom:rel_alt>0.1</gom:rel_alt></extensions></trkpt>
   <trkpt lat="59.0557285884" lon="29.961968644"><ele>83.899</ele><time>2026-04-25T10:24:32.999Z</time><hdop>4.687</hdop><vdop>5.25</vdop><extensions><gom:speed>0.989</gom:speed><gom:course>10.777</gom:course><gom:rel_alt>-0.137</gom:rel_alt></extensions></trkpt>
   <trkpt lat="59.0558030197" lon="29.9619689793"><ele>84.535</ele><time>2026-04-25T10:24:40.999Z</time><hdop>4.687</hdop><vdop>4.937</vdop><extensions><gom:speed>0.741</gom:speed><gom:course>335.895</gom:course><gom:rel_alt>-0.56</gom:rel_alt></extensions></trkpt>
   <trkpt lat="59.0558808038" lon="29.962006614"><ele>86.149</ele><time>2026-04-25T10:24:47.999Z</time><hdop>4.687</hdop><vdop>5.437</vdop><extensions><gom:speed>0.81</gom:speed><gom:course>34.59</gom:course><gom:rel_alt>-0.549</gom:rel_alt></extensions></trkpt>
   <trkpt lat="59.0559569534" lon="29.9620535527"><ele>86.771</ele><time>2026-04-25T10:24:54.999Z</time><hdop>4.687</hdop><vdop>5.437</vdop><extensions><gom:speed>1.136</gom:speed><gom:course>18.056</gom:course><gom:rel_alt>-0.657</gom:rel_alt></extensions></trkpt>
   <trkpt lat="59.0560290797" lon="29.9620843981"><ele>85.914</ele><time>2026-04-25T10:25:04.999Z</time><hdop>4.687</hdop><vdop>5.25</vdop><extensions><gom:speed>1.036</gom:speed><gom:course>349.606</gom:course><gom:rel_alt>-1.447</gom:rel_alt></extensions></trkpt>
   <trkpt lat="59.0561089592" lon="29.9621012457"><ele>85.012</ele><time>2026-04-25T10:25:12.999Z</time><hdop>4.687</hdop><vdop>5.812</vdop><extensions><gom:speed>0.88</gom:speed><gom:course>357.379</gom:course><gom:rel_alt>-1.239</gom:rel_alt></extensions></trkpt>
   <trkpt lat="59.0561869528" lon="29.9620826379"><ele>83.05</ele><time>2026-04-25T10:25:25.000Z</time><hdop>4.687</hdop><vdop>5.312</vdop><extensions><gom:speed>0.596</gom:speed><gom:course>0.928</gom:course><gom:rel_alt>-1.033</gom:rel_alt></extensions></trkpt>
   <trkpt lat="59.0562708976" lon="29.9620804586"><ele>85.682</ele><time>2026-04-25T10:25:34.000Z</time><hdop>4.687</hdop><vdop>5.0</vdop><extensions><gom:speed>1.042</gom:speed><gom:course>11.887</gom:course><gom:rel_alt>-0.718</gom:rel_alt></extensions></trkpt>
   <trkpt lat="59.0563487655" lon="29.9621108011"><ele>85.656</ele><time>2026-04-25T10:25:43.000Z</time><hdop>4.687</hdop><vdop>5.562</vdop><extensions><gom:speed>1.084</gom:speed><gom:course>16.831</gom:course><gom:rel_alt>-0.726</gom:rel_alt></extensions></trkpt>
   <trkpt lat="59.0564221071" lon="29.962107113"><ele>85.218</ele><time>2026-04-25T10:25:51.000Z</time><hdop>4.687</hdop><vdop>5.375</vdop><extensions><gom:speed>1.069</gom:speed><gom:course>357.407</gom:course><gom:rel_alt>-0.623</gom:rel_alt></extensions></trkpt>
   <trkpt lat="59.0565029087" lon="29.9621334322"><ele>86.658</ele><time>2026-04-25T10:25:59.000Z</time><hdop>4.687</hdop><vdop>5.312</vdop><extensions><gom:speed>0.904</gom:speed><gom:course>8.256</gom:course><gom:rel_alt>0.19</gom:rel_alt></extensions></trkpt>
   <trkpt lat="59.056567575" lon="29.9622268904"><ele>85.141</ele><time>2026-04-25T10:26:10.000Z</time><hdop>4.687</hdop><vdop>5.5</vdop><extensions><gom:speed>0.882</gom:speed><gom:course>38.018</gom:course><gom:rel_alt>-0.081</gom:rel_alt></extensions></trkpt>
   <trkpt lat="59.0566258712" lon="29.9621391319"><ele>85.674</ele><time>2026-04-25T10:26:17.999Z</time><hdop>4.687</hdop><vdop>5.625</vdop><extensions><gom:speed>1.008</gom:speed><gom:course>314.587</gom:course><gom:rel_alt>-0.184</gom:rel_alt></extensions></trkpt>
   <trkpt lat="59.0567034038" lon="29.9621382099"><ele>86.429</ele><time>2026-04-25T10:26:25.999Z</time><hdop>4.687</hdop><vdop>5.25</vdop><extensions><gom:speed>1.022</gom:speed><gom:course>14.216</gom:course><gom:rel_alt>0.013</gom:rel_alt></extensions></trkpt>
   <trkpt lat="59.0567698723" lon="29.9622035049"><ele>86.816</ele><time>2026-04-25T10:26:42.000Z</time><hdop>4.687</hdop><vdop>4.937</vdop><extensions><gom:speed>0.564</gom:speed><gom:course>38.243</gom:course><gom:rel_alt>0.401</gom:rel_alt></extensions></trkpt>
   <trkpt lat="59.0568138773" lon="29.9623182532"><ele>86.369</ele><time>2026-04-25T10:26:51.000Z</time><hdop>4.687</hdop><vdop>5.125</vdop><extensions><gom:speed>0.922</gom:speed><gom:course>14.677</gom:course><gom:rel_alt>0.195</gom:rel_alt></extensions></trkpt>
   <trkpt lat="59.0568836985" lon="29.9623522837"><ele>88.856</ele><time>2026-04-25T10:27:02.000Z</time><hdop>4.687</hdop><vdop>5.25</vdop><extensions><gom:speed>0.444</gom:speed><gom:course>33.926</gom:course><gom:rel_alt>0.309</gom:rel_alt></extensions></trkpt>
   <trkpt lat="59.0569524301" lon="29.962396624"><ele>87.987</ele><time>2026-04-25T10:27:16.000Z</time><hdop>4.687</hdop><vdop>4.687</vdop><extensions><gom:speed>0.698</gom:speed><gom:course>52.949</gom:course><gom:rel_alt>0.261</gom:rel_alt></extensions></trkpt>
   <trkpt lat="59.0570238439" lon="29.962379944"><ele>88.261</ele><time>2026-04-25T10:27:23.000Z</time><hdop>4.687</hdop><vdop>5.312</vdop><extensions><gom:speed>0.677</gom:speed><gom:course>30.218</gom:course><gom:rel_alt>0.155</gom:rel_alt></extensions></trkpt>
   <trkpt lat="59.0570999097" lon="29.9623828777"><ele>86.713</ele><time>2026-04-25T10:27:32.000Z</time><hdop>4.687</hdop><vdop>5.187</vdop><extensions><gom:speed>0.796</gom:speed><gom:course>17.073</gom:course><gom:rel_alt>-0.055</gom:rel_alt></extensions></trkpt>
   <trkpt lat="59.0571779871" lon="29.9624207639"><ele>86.704</ele><time>2026-04-25T10:27:42.000Z</time><hdop>4.687</hdop><vdop>5.25</vdop><extensions><gom:speed>0.955</gom:speed><gom:course>5.218</gom:course><gom:rel_alt>-0.227</gom:rel_alt></extensions></trkpt>
   <trkpt lat="59.057246132" lon="29.9625007272"><ele>86.196</ele><time>2026-04-25T10:27:56.000Z</time><hdop>4.687</hdop><vdop>5.437</vdop><extensions><gom:speed>0.712</gom:speed><gom:course>45.138</gom:course><gom:rel_alt>-0.731</gom:rel_alt></extensions></trkpt>
   <trkpt lat="59.057310966" lon="29.9625682015"><ele>86.4</ele><time>2026-04-25T10:28:04.000Z</time><hdop>4.687</hdop><vdop>5.75</vdop><extensions><gom:speed>0.875</gom:speed><gom:course>47.038</gom:course><gom:rel_alt>-0.787</gom:rel_alt></extensions></trkpt>
   <trkpt lat="59.0573829247" lon="29.9625231907"><ele>84.83</ele><time>2026-04-25T10:28:16.000Z</time><hdop>4.687</hdop><vdop>5.0</vdop><extensions><gom:speed>1.032</gom:speed><gom:course>336.681</gom:course><gom:rel_alt>-1.085</gom:rel_alt></extensions></trkpt>
   <trkpt lat="59.057461966" lon="29.9625335005"><ele>82.429</ele><time>2026-04-25T10:28:30.999Z</time><hdop>4.687</hdop><vdop>5.25</vdop><extensions><gom:speed>1.016</gom:speed><gom:course>1.702</gom:course><gom:rel_alt>-1.421</gom:rel_alt></extensions></trkpt>
   <trkpt lat="59.0575385347" lon="29.9625309859"><ele>81.482</ele><time>2026-04-25T10:28:38.999Z</time><hdop>4.687</hdop><vdop>5.562</vdop><extensions><gom:speed>1.139</gom:speed><gom:course>1.856</gom:course><gom:rel_alt>-1.794</gom:rel_alt></extensions></trkpt>
   <trkpt lat="59.0576076854" lon="29.9625950236"><ele>81.208</ele><time>2026-04-25T10:28:52.999Z</time><hdop>4.687</hdop><vdop>4.687</vdop><extensions><gom:speed>0.837</gom:speed><gom:course>8.926</gom:course><gom:rel_alt>-2.179</gom:rel_alt></extensions></trkpt>
   <trkpt lat="59.0576818233" lon="29.9626137991"><ele>80.649</ele><time>2026-04-25T10:29:00.999Z</time><hdop>4.687</hdop><vdop>4.375</vdop><extensions><gom:speed>1.026</gom:speed><gom:course>11.167</gom:course><gom:rel_alt>-2.568</gom:rel_alt></extensions></trkpt>
   <trkpt lat="59.0577464478" lon="29.9625435587"><ele>80.598</ele><time>2026-04-25T10:29:09.999Z</time><hdop>4.687</hdop><vdop>4.812</vdop><extensions><gom:speed>0.876</gom:speed><gom:course>329.166</gom:course><gom:rel_alt>-2.475</gom:rel_alt></extensions></trkpt>
   <trkpt lat="59.0578245252" lon="29.962567531"><ele>79.38</ele><time>2026-04-25T10:29:17.999Z</time><hdop>4.687</hdop><vdop>5.687</vdop><extensions><gom:speed>1.071</gom:speed><gom:course>8.135</gom:course><gom:rel_alt>-2.47</gom:rel_alt></extensions></trkpt>
   <trkpt lat="59.0579018064" lon="29.9625673633"><ele>79.932</ele><time>2026-04-25T10:29:24.999Z</time><hdop>4.687</hdop><vdop>5.375</vdop><extensions><gom:speed>1.041</gom:speed><gom:course>1.005</gom:course><gom:rel_alt>-2.642</gom:rel_alt></extensions></trkpt>
   <trkpt lat="59.0579758605" lon="29.9625890725"><ele>80.115</ele><time>2026-04-25T10:29:32.999Z</time><hdop>4.687</hdop><vdop>5.687</vdop><extensions><gom:speed>0.958</gom:speed><gom:course>4.987</gom:course><gom:rel_alt>-2.533</gom:rel_alt></extensions></trkpt>
   <trkpt lat="59.0579170195" lon="29.9625043314"><ele>81.999</ele><time>2026-04-25T10:29:59.000Z</time><hdop>4.687</hdop><vdop>4.812</vdop><extensions><gom:speed>0.175</gom:speed><gom:course>9.915</gom:course><gom:rel_alt>-0.467</gom:rel_alt></extensions></trkpt>
   <trkpt lat="59.0579892296" lon="29.9624739889"><ele>85.198</ele><time>2026-04-25T10:30:16.000Z</time><hdop>4.687</hdop><vdop>5.062</vdop><extensions><gom:speed>0.681</gom:speed><gom:course>8.981</gom:course><gom:rel_alt>1.595</gom:rel_alt></extensions></trkpt>
   <trkpt lat="59.0580676843" lon="29.9624915071"><ele>84.65</ele><time>2026-04-25T10:30:25.000Z</time><hdop>4.687</hdop><vdop>5.125</vdop><extensions><gom:speed>1.001</gom:speed><gom:course>3.768</gom:course><gom:rel_alt>1.535</gom:rel_alt></extensions></trkpt>
   <trkpt lat="59.0581425766" lon="29.9625153955"><ele>84.945</ele><time>2026-04-25T10:30:31.999Z</time><hdop>4.687</hdop><vdop>5.375</vdop><extensions><gom:speed>1.106</gom:speed><gom:course>10.838</gom:course><gom:rel_alt>1.453</gom:rel_alt></extensions></trkpt>
   <trkpt lat="59.0582223304" lon="29.9625409603"><ele>84.973</ele><time>2026-04-25T10:30:38.999Z</time><hdop>4.687</hdop><vdop>5.25</vdop><extensions><gom:speed>1.283</gom:speed><gom:course>10.656</gom:course><gom:rel_alt>1.318</gom:rel_alt></extensions></trkpt>
   <trkpt lat="59.0582921935" lon="29.9625780922"><ele>84.489</ele><time>2026-04-25T10:31:16.000Z</time><hdop>4.687</hdop><vdop>4.875</vdop><extensions><gom:speed>0.819</gom:speed><gom:course>35.859</gom:course><gom:rel_alt>0.964</gom:rel_alt></extensions></trkpt>
   <trkpt lat="59.0583653675" lon="29.9626029864"><ele>85.527</ele><time>2026-04-25T10:31:24.000Z</time><hdop>4.687</hdop><vdop>5.312</vdop><extensions><gom:speed>1.287</gom:speed><gom:course>15.144</gom:course><gom:rel_alt>0.864</gom:rel_alt></extensions></trkpt>
   <trkpt lat="59.058443906" lon="29.9626109492"><ele>84.995</ele><time>2026-04-25T10:31:31.000Z</time><hdop>4.687</hdop><vdop>5.25</vdop><extensions><gom:speed>1.2</gom:speed><gom:course>6.454</gom:course><gom:rel_alt>1.429</gom:rel_alt></extensions></trkpt>
   <trkpt lat="59.0585199298" lon="29.9626365979"><ele>85.275</ele><time>2026-04-25T10:31:39.000Z</time><hdop>4.687</hdop><vdop>5.25</vdop><extensions><gom:speed>1.01</gom:speed><gom:course>13.156</gom:course><gom:rel_alt>1.093</gom:rel_alt></extensions></trkpt>
   <trkpt lat="59.0585993903" lon="29.9626763281"><ele>84.813</ele><time>2026-04-25T10:31:47.000Z</time><hdop>4.687</hdop><vdop>5.0</vdop><extensions><gom:speed>1.237</gom:speed><gom:course>14.359</gom:course><gom:rel_alt>0.951</gom:rel_alt></extensions></trkpt>
   <trkpt lat="59.0586758332" lon="29.962706"><ele>84.781</ele><time>2026-04-25T10:31:55.000Z</time><hdop>4.687</hdop><vdop>5.187</vdop><extensions><gom:speed>1.088</gom:speed><gom:course>13.293</gom:course><gom:rel_alt>1.067</gom:rel_alt></extensions></trkpt>
   <trkpt lat="59.0587526953" lon="29.9626686167"><ele>86.288</ele><time>2026-04-25T10:32:07.000Z</time><hdop>4.687</hdop><vdop>5.437</vdop><extensions><gom:speed>1.031</gom:speed><gom:course>341.531</gom:course><gom:rel_alt>1.527</gom:rel_alt></extensions></trkpt>
   <trkpt lat="59.0588286772" lon="29.9627076764"><ele>86.795</ele><time>2026-04-25T10:32:14.000Z</time><hdop>4.687</hdop><vdop>5.312</vdop><extensions><gom:speed>1.215</gom:speed><gom:course>11.392</gom:course><gom:rel_alt>2.058</gom:rel_alt></extensions></trkpt>
   <trkpt lat="59.058901055" lon="29.9627360072"><ele>85.947</ele><time>2026-04-25T10:32:21.000Z</time><hdop>4.687</hdop><vdop>5.187</vdop><extensions><gom:speed>0.982</gom:speed><gom:course>14.106</gom:course><gom:rel_alt>2.021</gom:rel_alt></extensions></trkpt>
   <trkpt lat="59.0589812279" lon="29.9627583031"><ele>86.304</ele><time>2026-04-25T10:32:28.000Z</time><hdop>4.687</hdop><vdop>5.125</vdop><extensions><gom:speed>1.127</gom:speed><gom:course>12.348</gom:course><gom:rel_alt>2.045</gom:rel_alt></extensions></trkpt>
   <trkpt lat="59.0590567069" lon="29.9627738934"><ele>86.456</ele><time>2026-04-25T10:32:35.000Z</time><hdop>4.687</hdop><vdop>5.375</vdop><extensions><gom:speed>1.22</gom:speed><gom:course>11.832</gom:course><gom:rel_alt>2.05</gom:rel_alt></extensions></trkpt>
   <trkpt lat="59.0591305096" lon="29.9628053256"><ele>86.459</ele><time>2026-04-25T10:32:41.999Z</time><hdop>4.687</hdop><vdop>5.437</vdop><extensions><gom:speed>1.166</gom:speed><gom:course>8.552</gom:course><gom:rel_alt>2.005</gom:rel_alt></extensions></trkpt>
   <trkpt lat="59.0592029711" lon="29.962821335"><ele>86.601</ele><time>2026-04-25T10:32:48.999Z</time><hdop>4.687</hdop><vdop>5.312</vdop><extensions><gom:speed>1.171</gom:speed><gom:course>4.328</gom:course><gom:rel_alt>2.055</gom:rel_alt></extensions></trkpt>
   <trkpt lat="59.0592789112" lon="29.9628551141"><ele>86.892</ele><time>2026-04-25T10:32:56.000Z</time><hdop>4.687</hdop><vdop>5.437</vdop><extensions><gom:speed>1.035</gom:speed><gom:course>14.925</gom:course></extensions></trkpt>
   <trkpt lat="59.0593514985" lon="29.9628797569"><ele>87.062</ele><time>2026-04-25T10:33:03.000Z</time><hdop>4.687</hdop><vdop>5.125</vdop><extensions><gom:speed>1.136</gom:speed><gom:course>11.31</gom:course><gom:rel_alt>2.132</gom:rel_alt></extensions></trkpt>
   <trkpt lat="59.0594310846" lon="29.9629154638"><ele>86.366</ele><time>2026-04-25T10:33:11.000Z</time><hdop>4.687</hdop><vdop>5.25</vdop><extensions><gom:speed>1.198</gom:speed><gom:course>13.722</gom:course></extensions></trkpt>
   <trkpt lat="59.0595092878" lon="29.9629459739"><ele>86.367</ele><time>2026-04-25T10:33:18.000Z</time><hdop>4.687</hdop><vdop>4.687</vdop><extensions><gom:speed>1.384</gom:speed><gom:course>12.53</gom:course><gom:rel_alt>1.918</gom:rel_alt></extensions></trkpt>
   <trkpt lat="59.0595859403" lon="29.9629874643"><ele>87.228</ele><time>2026-04-25T10:33:27.000Z</time><hdop>4.687</hdop><vdop>4.75</vdop><extensions><gom:speed>1.207</gom:speed><gom:course>10.821</gom:course><gom:rel_alt>2.018</gom:rel_alt></extensions></trkpt>
   <trkpt lat="59.059659701" lon="29.9630077485"><ele>87.392</ele><time>2026-04-25T10:33:35.000Z</time><hdop>4.687</hdop><vdop>4.875</vdop><extensions><gom:speed>1.284</gom:speed><gom:course>10.288</gom:course><gom:rel_alt>1.997</gom:rel_alt></extensions></trkpt>
   <trkpt lat="59.0597367726" lon="29.9630410247"><ele>87.865</ele><time>2026-04-25T10:33:42.000Z</time><hdop>4.687</hdop><vdop>4.687</vdop><extensions><gom:speed>1.166</gom:speed><gom:course>9.948</gom:course><gom:rel_alt>1.894</gom:rel_alt></extensions></trkpt>
   <trkpt lat="59.0598159816" lon="29.9630665895"><ele>88.404</ele><time>2026-04-25T10:33:49.000Z</time><hdop>4.687</hdop><vdop>4.75</vdop><extensions><gom:speed>1.281</gom:speed><gom:course>8.613</gom:course><gom:rel_alt>1.804</gom:rel_alt></extensions></trkpt>
   <trkpt lat="59.0598943943" lon="29.9630711157"><ele>88.43</ele><time>2026-04-25T10:33:57.000Z</time><hdop>4.687</hdop><vdop>4.687</vdop><extensions><gom:speed>1.233</gom:speed><gom:course>7.833</gom:course><gom:rel_alt>1.86</gom:rel_alt></extensions></trkpt>
   <trkpt lat="59.0599675264" lon="29.9630991113"><ele>88.19</ele><time>2026-04-25T10:34:04.000Z</time><hdop>4.687</hdop><vdop>4.375</vdop><extensions><gom:speed>1.113</gom:speed><gom:course>6.059</gom:course><gom:rel_alt>1.772</gom:rel_alt></extensions></trkpt>
   <trkpt lat="59.0600440113" lon="29.9631227482"><ele>88.443</ele><time>2026-04-25T10:34:11.000Z</time><hdop>4.687</hdop><vdop>4.312</vdop><extensions><gom:speed>1.131</gom:speed><gom:course>8.327</gom:course><gom:rel_alt>1.741</gom:rel_alt></extensions></trkpt>
   <trkpt lat="59.0601165986" lon="29.9631542642"><ele>88.592</ele><time>2026-04-25T10:34:18.000Z</time><hdop>4.687</hdop><vdop>4.875</vdop><extensions><gom:speed>1.229</gom:speed><gom:course>15.331</gom:course><gom:rel_alt>1.696</gom:rel_alt></extensions></trkpt>
   <trkpt lat="59.0601943407" lon="29.9631468881"><ele>87.484</ele><time>2026-04-25T10:34:27.000Z</time><hdop>4.687</hdop><vdop>5.437</vdop><extensions><gom:speed>1.083</gom:speed><gom:course>12.53</gom:course><gom:rel_alt>1.907</gom:rel_alt></extensions></trkpt>
   <trkpt lat="59.0602765672" lon="29.9631608859"><ele>87.593</ele><time>2026-04-25T10:34:35.000Z</time><hdop>4.687</hdop><vdop>5.25</vdop><extensions><gom:speed>1.198</gom:speed><gom:course>9.3</gom:course><gom:rel_alt>2.288</gom:rel_alt></extensions></trkpt>
   <trkpt lat="59.0603516271" lon="29.9631865345"><ele>87.609</ele><time>2026-04-25T10:34:42.999Z</time><hdop>4.687</hdop><vdop>5.25</vdop><extensions><gom:speed>1.206</gom:speed><gom:course>9.898</gom:course><gom:rel_alt>2.203</gom:rel_alt></extensions></trkpt>
   <trkpt lat="59.060423502" lon="29.9632092495"><ele>87.254</ele><time>2026-04-25T10:34:50.999Z</time><hdop>4.687</hdop><vdop>5.437</vdop><extensions><gom:speed>1.112</gom:speed><gom:course>12.942</gom:course><gom:rel_alt>2.327</gom:rel_alt></extensions></trkpt>
   <trkpt lat="59.0605009507" lon="29.9632322159"><ele>87.929</ele><time>2026-04-25T10:35:00.000Z</time><hdop>4.687</hdop><vdop>5.125</vdop><extensions><gom:speed>1.164</gom:speed><gom:course>9.217</gom:course><gom:rel_alt>2.703</gom:rel_alt></extensions></trkpt>
   <trkpt lat="59.0605718197" lon="29.9632709403"><ele>88.133</ele><time>2026-04-25T10:35:07.000Z</time><hdop>4.687</hdop><vdop>5.312</vdop><extensions><gom:speed>1.173</gom:speed><gom:course>14.458</gom:course><gom:rel_alt>2.161</gom:rel_alt></extensions></trkpt>
   <trkpt lat="59.060642563" lon="29.9632962536"><ele>88.345</ele><time>2026-04-25T10:35:14.000Z</time><hdop>4.687</hdop><vdop>5.25</vdop><extensions><gom:speed>1.148</gom:speed><gom:course>9.602</gom:course><gom:rel_alt>2.016</gom:rel_alt></extensions></trkpt>
   <trkpt lat="59.0607156113" lon="29.9633196392"><ele>88.478</ele><time>2026-04-25T10:35:21.000Z</time><hdop>4.687</hdop><vdop>5.25</vdop><extensions><gom:speed>0.911</gom:speed><gom:course>7.739</gom:course><gom:rel_alt>2.164</gom:rel_alt></extensions></trkpt>
   <trkpt lat="59.060784762" lon="29.9633726966"><ele>87.625</ele><time>2026-04-25T10:35:29.000Z</time><hdop>4.687</hdop><vdop>5.25</vdop><extensions><gom:speed>1.051</gom:speed><gom:course>11.662</gom:course><gom:rel_alt>1.757</gom:rel_alt></extensions></trkpt>
   <trkpt lat="59.0608555472" lon="29.9634006922"><ele>88.186</ele><time>2026-04-25T10:35:36.000Z</time><hdop>4.687</hdop><vdop>5.437</vdop><extensions><gom:speed>1.136</gom:speed><gom:course>9.624</gom:course><gom:rel_alt>1.495</gom:rel_alt></extensions></trkpt>
   <trkpt lat="59.060929266" lon="29.9634117563"><ele>88.581</ele><time>2026-04-25T10:35:44.000Z</time><hdop>4.687</hdop><vdop>5.437</vdop><extensions><gom:speed>0.73</gom:speed><gom:course>8.811</gom:course><gom:rel_alt>1.654</gom:rel_alt></extensions></trkpt>
   <trkpt lat="59.0610024819" lon="29.9634358123"><ele>89.15</ele><time>2026-04-25T10:35:52.000Z</time><hdop>4.687</hdop><vdop>5.062</vdop><extensions><gom:speed>0.942</gom:speed><gom:course>2.384</gom:course><gom:rel_alt>1.572</gom:rel_alt></extensions></trkpt>
   <trkpt lat="59.0610743987" lon="29.9634744529"><ele>87.348</ele><time>2026-04-25T10:36:08.000Z</time><hdop>4.687</hdop><vdop>5.25</vdop><extensions><gom:speed>1.233</gom:speed><gom:course>11.074</gom:course><gom:rel_alt>1.313</gom:rel_alt></extensions></trkpt>
   <trkpt lat="59.0611486204" lon="29.9634968326"><ele>86.74</ele><time>2026-04-25T10:36:16.000Z</time><hdop>4.687</hdop><vdop>5.437</vdop><extensions><gom:speed>1.002</gom:speed><gom:course>9.316</gom:course><gom:rel_alt>1.437</gom:rel_alt></extensions></trkpt>
   <trkpt lat="59.0612231774" lon="29.9635231518"><ele>86.9</ele><time>2026-04-25T10:36:24.000Z</time><hdop>4.687</hdop><vdop>5.562</vdop><extensions><gom:speed>1.11</gom:speed><gom:course>10.541</gom:course></extensions></trkpt>
   <trkpt lat="59.0613017159" lon="29.9635397479"><ele>86.854</ele><time>2026-04-25T10:36:32.000Z</time><hdop>4.687</hdop><vdop>5.187</vdop><extensions><gom:speed>1.117</gom:speed><gom:course>6.894</gom:course><gom:rel_alt>1.733</gom:rel_alt></extensions></trkpt>
   <trkpt lat="59.0613776978" lon="29.9635580205"><ele>87.039</ele><time>2026-04-25T10:36:40.000Z</time><hdop>4.687</hdop><vdop>5.312</vdop><extensions><gom:speed>1.077</gom:speed><gom:course>10.744</gom:course><gom:rel_alt>1.701</gom:rel_alt></extensions></trkpt>
   <trkpt lat="59.0614449626" lon="29.9636104074"><ele>87.617</ele><time>2026-04-25T10:36:48.000Z</time><hdop>4.687</hdop><vdop>5.437</vdop><extensions><gom:speed>0.671</gom:speed><gom:course>20.742</gom:course><gom:rel_alt>1.577</gom:rel_alt></extensions></trkpt>
   <trkpt lat="59.0615186395" lon="29.9636097368"><ele>87.592</ele><time>2026-04-25T10:36:59.000Z</time><hdop>4.687</hdop><vdop>5.312</vdop><extensions><gom:speed>1.07</gom:speed><gom:course>10.085</gom:course><gom:rel_alt>1.809</gom:rel_alt></extensions></trkpt>
   <trkpt lat="59.0615901372" lon="29.9636377324"><ele>88.56</ele><time>2026-04-25T10:37:06.000Z</time><hdop>4.687</hdop><vdop>5.25</vdop><extensions><gom:speed>1.012</gom:speed><gom:course>25.164</gom:course><gom:rel_alt>2.14</gom:rel_alt></extensions></trkpt>
   <trkpt lat="59.0616629759" lon="29.9636656441"><ele>88.001</ele><time>2026-04-25T10:37:13.000Z</time><hdop>4.687</hdop><vdop>5.437</vdop><extensions><gom:speed>1.005</gom:speed><gom:course>4.801</gom:course><gom:rel_alt>1.701</gom:rel_alt></extensions></trkpt>
   <trkpt lat="59.0617446575" lon="29.9636920471"><ele>87.982</ele><time>2026-04-25T10:37:22.000Z</time><hdop>4.687</hdop><vdop>5.812</vdop><extensions><gom:speed>1.051</gom:speed><gom:course>9.596</gom:course><gom:rel_alt>1.564</gom:rel_alt></extensions></trkpt>
   <trkpt lat="59.0618200947" lon="29.9637220543"><ele>87.775</ele><time>2026-04-25T10:37:31.000Z</time><hdop>4.687</hdop><vdop>5.937</vdop><extensions><gom:speed>0.9</gom:speed><gom:course>7.794</gom:course><gom:rel_alt>1.54</gom:rel_alt></extensions></trkpt>
   <trkpt lat="59.061889874" lon="29.9637594376"><ele>87.488</ele><time>2026-04-25T10:37:42.000Z</time><hdop>4.687</hdop><vdop>5.0</vdop><extensions><gom:speed>0.495</gom:speed><gom:course>25.307</gom:course><gom:rel_alt>1.625</gom:rel_alt></extensions></trkpt>
   <trkpt lat="59.061961665" lon="29.9637731001"><ele>88.223</ele><time>2026-04-25T10:37:51.000Z</time><hdop>4.687</hdop><vdop>5.812</vdop><extensions><gom:speed>0.749</gom:speed><gom:course>9.058</gom:course><gom:rel_alt>1.609</gom:rel_alt></extensions></trkpt>
   <trkpt lat="59.0620387785" lon="29.9638007604"><ele>88.473</ele><time>2026-04-25T10:38:02.000Z</time><hdop>4.687</hdop><vdop>5.875</vdop><extensions><gom:speed>0.923</gom:speed><gom:course>8.833</gom:course><gom:rel_alt>1.675</gom:rel_alt></extensions></trkpt>
   <trkpt lat="59.062112204" lon="29.963793552"><ele>87.431</ele><time>2026-04-25T10:38:52.000Z</time><hdop>4.687</hdop><vdop>4.812</vdop><extensions><gom:speed>0.34</gom:speed><gom:course>3.74</gom:course><gom:rel_alt>1.447</gom:rel_alt></extensions></trkpt>
   <trkpt lat="59.062183995" lon="29.9638327793"><ele>87.707</ele><time>2026-04-25T10:39:00.000Z</time><hdop>4.687</hdop><vdop>5.25</vdop><extensions><gom:speed>1.033</gom:speed><gom:course>9.03</gom:course><gom:rel_alt>1.693</gom:rel_alt></extensions></trkpt>
   <trkpt lat="59.0622560375" lon="29.9638548237"><ele>87.367</ele><time>2026-04-25T10:39:08.000Z</time><hdop>4.687</hdop><vdop>5.437</vdop><extensions><gom:speed>1.02</gom:speed><gom:course>5.586</gom:course></extensions></trkpt>
   <trkpt lat="59.062333151" lon="29.9638746888"><ele>87.554</ele><time>2026-04-25T10:39:16.000Z</time><hdop>4.687</hdop><vdop>5.437</vdop><extensions><gom:speed>1.147</gom:speed><gom:course>5.361</gom:course><gom:rel_alt>1.664</gom:rel_alt></extensions></trkpt>
   <trkpt lat="59.0624034332" lon="29.9639063724"><ele>87.241</ele><time>2026-04-25T10:39:23.000Z</time><hdop>4.687</hdop><vdop>5.625</vdop><extensions><gom:speed>1.184</gom:speed><gom:course>11.794</gom:course></extensions></trkpt>
   <trkpt lat="59.0624793314" lon="29.9639253155"><ele>87.818</ele><time>2026-04-25T10:39:31.000Z</time><hdop>4.687</hdop><vdop>5.562</vdop><extensions><gom:speed>0.969</gom:speed><gom:course>8.91</gom:course><gom:rel_alt>1.344</gom:rel_alt></extensions></trkpt>
   <trkpt lat="59.0625578698" lon="29.9639569991"><ele>86.342</ele><time>2026-04-25T10:39:45.000Z</time><hdop>4.687</hdop><vdop>5.5</vdop><extensions><gom:speed>0.975</gom:speed><gom:course>12.48</gom:course><gom:rel_alt>1.654</gom:rel_alt></extensions></trkpt>
   <trkpt lat="59.0626347737" lon="29.9639766127"><ele>86.616</ele><time>2026-04-25T10:39:54.000Z</time><hdop>4.687</hdop><vdop>5.312</vdop><extensions><gom:speed>0.846</gom:speed><gom:course>8.377</gom:course><gom:rel_alt>1.651</gom:rel_alt></extensions></trkpt>
   <trkpt lat="59.0627082411" lon="29.9640008364"><ele>86.469</ele><time>2026-04-25T10:40:02.000Z</time><hdop>4.687</hdop><vdop>5.375</vdop><extensions><gom:speed>1.062</gom:speed><gom:course>8.421</gom:course><gom:rel_alt>1.516</gom:rel_alt></extensions></trkpt>
   <trkpt lat="59.062779613" lon="29.9639832344"><ele>87.836</ele><time>2026-04-25T10:40:14.000Z</time><hdop>4.687</hdop><vdop>5.125</vdop><extensions><gom:speed>1.123</gom:speed><gom:course>5.943</gom:course><gom:rel_alt>2.555</gom:rel_alt></extensions></trkpt>
   <trkpt lat="59.0628564332" lon="29.9640092183"><ele>88.101</ele><time>2026-04-25T10:40:23.000Z</time><hdop>4.687</hdop><vdop>5.812</vdop><extensions><gom:speed>0.875</gom:speed><gom:course>10.904</gom:course><gom:rel_alt>2.874</gom:rel_alt></extensions></trkpt>
   <trkpt lat="59.0629294396" lon="29.9640329391"><ele>88.373</ele><time>2026-04-25T10:40:31.000Z</time><hdop>4.687</hdop><vdop>5.5</vdop><extensions><gom:speed>1.082</gom:speed><gom:course>7.509</gom:course><gom:rel_alt>2.909</gom:rel_alt></extensions></trkpt>
   <trkpt lat="59.0630032841" lon="29.9640652094"><ele>88.423</ele><time>2026-04-25T10:40:41.000Z</time><hdop>4.687</hdop><vdop>5.437</vdop><extensions><gom:speed>0.833</gom:speed><gom:course>14.644</gom:course><gom:rel_alt>2.869</gom:rel_alt></extensions></trkpt>
   <trkpt lat="59.0630753685" lon="29.9640833982"><ele>88.378</ele><time>2026-04-25T10:40:49.000Z</time><hdop>4.687</hdop><vdop>5.25</vdop><extensions><gom:speed>0.977</gom:speed><gom:course>5.828</gom:course><gom:rel_alt>2.861</gom:rel_alt></extensions></trkpt>
   <trkpt lat="59.0631543679" lon="29.9640931212"><ele>89.284</ele><time>2026-04-25T10:40:58.000Z</time><hdop>4.687</hdop><vdop>5.25</vdop><extensions><gom:speed>1.073</gom:speed><gom:course>8.283</gom:course><gom:rel_alt>3.226</gom:rel_alt></extensions></trkpt>
   <trkpt lat="59.0632323615" lon="29.9641274032"><ele>88.712</ele><time>2026-04-25T10:41:09.000Z</time><hdop>4.687</hdop><vdop>5.875</vdop><extensions><gom:speed>0.961</gom:speed><gom:course>9.799</gom:course><gom:rel_alt>3.059</gom:rel_alt></extensions></trkpt>
   <trkpt lat="59.0633055775" lon="29.9641574942"><ele>88.734</ele><time>2026-04-25T10:41:17.000Z</time><hdop>4.687</hdop><vdop>5.562</vdop><extensions><gom:speed>0.918</gom:speed><gom:course>18.078</gom:course><gom:rel_alt>2.975</gom:rel_alt></extensions></trkpt>
   <trkpt lat="59.0633792125" lon="29.9641711567"><ele>89.647</ele><time>2026-04-25T10:41:24.000Z</time><hdop>4.687</hdop><vdop>5.312</vdop><extensions><gom:speed>0.729</gom:speed><gom:course>9.607</gom:course><gom:rel_alt>2.769</gom:rel_alt></extensions></trkpt>
   <trkpt lat="59.0634505425" lon="29.9641917762"><ele>89.986</ele><time>2026-04-25T10:41:31.000Z</time><hdop>4.687</hdop><vdop>5.812</vdop><extensions><gom:speed>1.079</gom:speed><gom:course>7.981</gom:course><gom:rel_alt>2.843</gom:rel_alt></extensions></trkpt>
   <trkpt lat="59.0635267759" lon="29.9642188497"><ele>89.712</ele><time>2026-04-25T10:41:42.000Z</time><hdop>4.687</hdop><vdop>5.312</vdop><extensions><gom:speed>1.072</gom:speed><gom:course>7.399</gom:course><gom:rel_alt>3.236</gom:rel_alt></extensions></trkpt>
   <trkpt lat="59.0636022549" lon="29.9642543052"><ele>88.963</ele><time>2026-04-25T10:41:55.000Z</time><hdop>4.687</hdop><vdop>5.312</vdop><extensions><gom:speed>0.952</gom:speed><gom:course>11.783</gom:course><gom:rel_alt>3.228</gom:rel_alt></extensions></trkpt>
   <trkpt lat="59.0636757642" lon="29.9642704822"><ele>89.301</ele><time>2026-04-25T10:42:03.000Z</time><hdop>4.687</hdop><vdop>5.312</vdop><extensions><gom:speed>0.999</gom:speed><gom:course>5.822</gom:course><gom:rel_alt>3.324</gom:rel_alt></extensions></trkpt>
   <trkpt lat="59.0637503212" lon="29.9642973882"><ele>89.132</ele><time>2026-04-25T10:42:15.000Z</time><hdop>4.687</hdop><vdop>4.812</vdop><extensions><gom:speed>0.609</gom:speed><gom:course>2.713</gom:course><gom:rel_alt>3.17</gom:rel_alt></extensions></trkpt>
   <trkpt lat="59.063823621" lon="29.964314152"><ele>89.189</ele><time>2026-04-25T10:42:23.000Z</time><hdop>4.687</hdop><vdop>5.5</vdop><extensions><gom:speed>1.064</gom:speed><gom:course>9.876</gom:course><gom:rel_alt>2.962</gom:rel_alt></extensions></trkpt>
   <trkpt lat="59.0639063085" lon="29.9643377051"><ele>89.992</ele><time>2026-04-25T10:42:31.000Z</time><hdop>4.687</hdop><vdop>5.562</vdop><extensions><gom:speed>1.015</gom:speed><gom:course>9.085</gom:course><gom:rel_alt>2.991</gom:rel_alt></extensions></trkpt>
   <trkpt lat="59.0639812008" lon="29.9643694725"><ele>89.752</ele><time>2026-04-25T10:42:39.000Z</time><hdop>4.687</hdop><vdop>5.812</vdop><extensions><gom:speed>1.094</gom:speed><gom:course>10.612</gom:course><gom:rel_alt>2.835</gom:rel_alt></extensions></trkpt>
   <trkpt lat="59.0640563026" lon="29.9643921037"><ele>89.178</ele><time>2026-04-25T10:42:47.000Z</time><hdop>4.687</hdop><vdop>5.437</vdop><extensions><gom:speed>1.065</gom:speed><gom:course>9.701</gom:course><gom:rel_alt>2.951</gom:rel_alt></extensions></trkpt>
   <trkpt lat="59.0641352601" lon="29.9644148186"><ele>88.154</ele><time>2026-04-25T10:42:55.000Z</time><hdop>4.687</hdop><vdop>5.5</vdop><extensions><gom:speed>1.114</gom:speed><gom:course>9.92</gom:course><gom:rel_alt>2.927</gom:rel_alt></extensions></trkpt>
   <trkpt lat="59.0642064644" lon="29.9644689657"><ele>88.02</ele><time>2026-04-25T10:43:07.000Z</time><hdop>4.687</hdop><vdop>5.312</vdop><extensions><gom:speed>0.709</gom:speed><gom:course>8.552</gom:course><gom:rel_alt>2.695</gom:rel_alt></extensions></trkpt>
   <trkpt lat="59.0642810634" lon="29.9645016551"><ele>87.997</ele><time>2026-04-25T10:43:24.000Z</time><hdop>4.687</hdop><vdop>5.312</vdop><extensions><gom:speed>0.873</gom:speed><gom:course>11.568</gom:course><gom:rel_alt>2.777</gom:rel_alt></extensions></trkpt>
   <trkpt lat="59.0643552013" lon="29.964518838"><ele>88.421</ele><time>2026-04-25T10:43:34.000Z</time><hdop>4.687</hdop><vdop>5.375</vdop><extensions><gom:speed>0.872</gom:speed><gom:course>8.756</gom:course><gom:rel_alt>2.792</gom:rel_alt></extensions></trkpt>
   <trkpt lat="59.064430848" lon="29.9645293992"><ele>87.88</ele><time>2026-04-25T10:43:43.000Z</time><hdop>4.687</hdop><vdop>5.5</vdop><extensions><gom:speed>0.902</gom:speed><gom:course>7.613</gom:course><gom:rel_alt>2.935</gom:rel_alt></extensions></trkpt>
   <trkpt lat="59.0645085901" lon="29.9645641841"><ele>89.406</ele><time>2026-04-25T10:43:57.000Z</time><hdop>4.687</hdop><vdop>5.437</vdop><extensions><gom:speed>0.835</gom:speed><gom:course>10.662</gom:course><gom:rel_alt>2.94</gom:rel_alt></extensions></trkpt>
   <trkpt lat="59.0645880086" lon="29.9645861447"><ele>88.967</ele><time>2026-04-25T10:44:06.000Z</time><hdop>4.687</hdop><vdop>5.375</vdop><extensions><gom:speed>1.004</gom:speed><gom:course>7.778</gom:course><gom:rel_alt>2.84</gom:rel_alt></extensions></trkpt>
   <trkpt lat="59.0646595901" lon="29.9646143917"><ele>88.488</ele><time>2026-04-25T10:44:19.000Z</time><hdop>4.687</hdop><vdop>5.437</vdop><extensions><gom:speed>1.05</gom:speed><gom:course>10.113</gom:course><gom:rel_alt>2.888</gom:rel_alt></extensions></trkpt>
   <trkpt lat="59.0647372484" lon="29.9646322452"><ele>87.731</ele><time>2026-04-25T10:44:28.000Z</time><hdop>4.687</hdop><vdop>5.312</vdop><extensions><gom:speed>1.038</gom:speed><gom:course>9.701</gom:course><gom:rel_alt>2.861</gom:rel_alt></extensions></trkpt>
   <trkpt lat="59.0648082012" lon="29.9646590673"><ele>87.285</ele><time>2026-04-25T10:44:40.000Z</time><hdop>4.687</hdop><vdop>5.562</vdop><extensions><gom:speed>0.773</gom:speed><gom:course>7.119</gom:course><gom:rel_alt>2.94</gom:rel_alt></extensions></trkpt>
   <trkpt lat="59.0648820458" lon="29.9646891583"><ele>87.173</ele><time>2026-04-25T10:44:54.000Z</time><hdop>4.687</hdop><vdop>4.937</vdop><extensions><gom:speed>0.611</gom:speed><gom:course>4.081</gom:course><gom:rel_alt>2.909</gom:rel_alt></extensions></trkpt>
   <trkpt lat="59.0649564771" lon="29.9647110351"><ele>88.146</ele><time>2026-04-25T10:45:03.000Z</time><hdop>4.687</hdop><vdop>5.5</vdop><extensions><gom:speed>0.733</gom:speed><gom:course>9.717</gom:course><gom:rel_alt>3.527</gom:rel_alt></extensions></trkpt>
   <trkpt lat="59.0650311599" lon="29.9647365999"><ele>88.492</ele><time>2026-04-25T10:45:12.000Z</time><hdop>4.687</hdop><vdop>5.5</vdop><extensions><gom:speed>0.891</gom:speed><gom:course>11.804</gom:course><gom:rel_alt>2.983</gom:rel_alt></extensions></trkpt>
   <trkpt lat="59.0651057169" lon="29.9647687026"><ele>89.193</ele><time>2026-04-25T10:45:22.000Z</time><hdop>4.687</hdop><vdop>5.437</vdop><extensions><gom:speed>0.943</gom:speed><gom:course>9.091</gom:course><gom:rel_alt>3.207</gom:rel_alt></extensions></trkpt>
   <trkpt lat="59.0651817827" lon="29.9647899926"><ele>89.209</ele><time>2026-04-25T10:45:35.000Z</time><hdop>4.687</hdop><vdop>5.437</vdop><extensions><gom:speed>0.581</gom:speed><gom:course>9.552</gom:course><gom:rel_alt>2.917</gom:rel_alt></extensions></trkpt>
   <trkpt lat="59.0652570102" lon="29.9648154736"><ele>86.636</ele><time>2026-04-25T10:46:09.000Z</time><hdop>4.687</hdop><vdop>5.437</vdop><extensions><gom:speed>1.294</gom:speed><gom:course>12.293</gom:course><gom:rel_alt>2.869</gom:rel_alt></extensions></trkpt>
   <trkpt lat="59.0653375603" lon="29.9648372665"><ele>86.776</ele><time>2026-04-25T10:46:17.000Z</time><hdop>4.687</hdop><vdop>5.437</vdop><extensions><gom:speed>1.097</gom:speed><gom:course>10.717</gom:course><gom:rel_alt>3.009</gom:rel_alt></extensions></trkpt>
   <trkpt lat="59.0654127041" lon="29.9648558744"><ele>87.414</ele><time>2026-04-25T10:46:24.000Z</time><hdop>4.687</hdop><vdop>5.437</vdop><extensions><gom:speed>1.057</gom:speed><gom:course>10.244</gom:course><gom:rel_alt>2.975</gom:rel_alt></extensions></trkpt>
   <trkpt lat="59.0654929608" lon="29.9648753204"><ele>87.072</ele><time>2026-04-25T10:46:32.000Z</time><hdop>4.687</hdop><vdop>5.437</vdop><extensions><gom:speed>1.229</gom:speed><gom:course>6.306</gom:course><gom:rel_alt>3.12</gom:rel_alt></extensions></trkpt>
   <trkpt lat="59.0655650033" lon="29.9649077583"><ele>85.894</ele><time>2026-04-25T10:47:01.000Z</time><hdop>4.687</hdop><vdop>5.562</vdop><extensions><gom:speed>1.043</gom:speed><gom:course>11.134</gom:course><gom:rel_alt>3.186</gom:rel_alt></extensions></trkpt>
   <trkpt lat="59.0656372553" lon="29.9649308086"><ele>86.683</ele><time>2026-04-25T10:47:08.000Z</time><hdop>4.687</hdop><vdop>5.437</vdop><extensions><gom:speed>1.165</gom:speed><gom:course>7.3</gom:course><gom:rel_alt>3.189</gom:rel_alt></extensions></trkpt>
   <trkpt lat="59.065717512" lon="29.9649626598"><ele>86.174</ele><time>2026-04-25T10:47:16.000Z</time><hdop>4.687</hdop><vdop>5.5</vdop><extensions><gom:speed>1.15</gom:speed><gom:course>3.032</gom:course><gom:rel_alt>3.442</gom:rel_alt></extensions></trkpt>
   <trkpt lat="59.0657888839" lon="29.9649797589"><ele>86.26</ele><time>2026-04-25T10:47:22.000Z</time><hdop>4.687</hdop><vdop>5.5</vdop><extensions><gom:speed>1.088</gom:speed><gom:course>3.515</gom:course><gom:rel_alt>3.337</gom:rel_alt></extensions></trkpt>
   <trkpt lat="59.0658631057" lon="29.9650110234"><ele>86.493</ele><time>2026-04-25T10:47:30.000Z</time><hdop>4.687</hdop><vdop>5.625</vdop><extensions><gom:speed>0.964</gom:speed><gom:course>11.815</gom:course><gom:rel_alt>3.442</gom:rel_alt></extensions></trkpt>
   <trkpt lat="59.065941225" lon="29.9650325649"><ele>87.083</ele><time>2026-04-25T10:47:38.000Z</time><hdop>4.687</hdop><vdop>5.812</vdop><extensions><gom:speed>1.132</gom:speed><gom:course>9.69</gom:course><gom:rel_alt>3.582</gom:rel_alt></extensions></trkpt>
   <trkpt lat="59.0660159078" lon="29.9650836945"><ele>86.432</ele><time>2026-04-25T10:47:56.000Z</time><hdop>4.687</hdop><vdop>5.687</vdop><extensions><gom:speed>0.77</gom:speed><gom:course>15.392</gom:course><gom:rel_alt>3.516</gom:rel_alt></extensions></trkpt>
   <trkpt lat="59.0660951587" lon="29.9650965188"><ele>87.232</ele><time>2026-04-25T10:48:03.000Z</time><hdop>4.687</hdop><vdop>5.687</vdop><extensions><gom:speed>1.062</gom:speed><gom:course>9.552</gom:course></extensions></trkpt>
   <trkpt lat="59.0661689194" lon="29.9651240114"><ele>86.448</ele><time>2026-04-25T10:48:14.000Z</time><hdop>4.687</hdop><vdop>5.687</vdop><extensions><gom:speed>0.814</gom:speed><gom:course>8.091</gom:course><gom:rel_alt>3.355</gom:rel_alt></extensions></trkpt>
   <trkpt lat="59.0662477512" lon="29.9651429545"><ele>86.524</ele><time>2026-04-25T10:48:22.000Z</time><hdop>4.687</hdop><vdop>5.375</vdop><extensions><gom:speed>1.277</gom:speed><gom:course>5.388</gom:course><gom:rel_alt>3.453</gom:rel_alt></extensions></trkpt>
   <trkpt lat="59.066321931" lon="29.965169609"><ele>86.414</ele><time>2026-04-25T10:48:31.000Z</time><hdop>4.687</hdop><vdop>5.187</vdop><extensions><gom:speed>0.684</gom:speed><gom:course>4.405</gom:course><gom:rel_alt>3.469</gom:rel_alt></extensions></trkpt>
   <trkpt lat="59.066384963" lon="29.9652541824"><ele>85.147</ele><time>2026-04-25T10:48:41.000Z</time><hdop>4.687</hdop><vdop>5.437</vdop><extensions><gom:speed>0.693</gom:speed><gom:course>33.541</gom:course><gom:rel_alt>3.191</gom:rel_alt></extensions></trkpt>
   <trkpt lat="59.0664411217" lon="29.9653631471"><ele>86.796</ele><time>2026-04-25T10:51:17.000Z</time><hdop>4.687</hdop><vdop>4.375</vdop><extensions><gom:speed>0.013</gom:speed><gom:course>326.238</gom:course><gom:rel_alt>3.419</gom:rel_alt></extensions></trkpt>
   <trkpt lat="59.0663916685" lon="29.9652250972"><ele>88.538</ele><time>2026-04-25T10:52:07.000Z</time><hdop>4.687</hdop><vdop>4.625</vdop><extensions><gom:speed>0.122</gom:speed><gom:course>326.238</gom:course><gom:rel_alt>2.623</gom:rel_alt></extensions></trkpt>
   <trkpt lat="59.0664621603" lon="29.9652898893"><ele>85.121</ele><time>2026-04-25T10:53:54.000Z</time><hdop>4.687</hdop><vdop>5.812</vdop><extensions><gom:speed>0.837</gom:speed><gom:course>11.744</gom:course><gom:rel_alt>3.358</gom:rel_alt></extensions></trkpt>
   <trkpt lat="59.0665339932" lon="29.9652949185"><ele>85.476</ele><time>2026-04-25T10:54:02.000Z</time><hdop>4.687</hdop><vdop>5.562</vdop><extensions><gom:speed>0.889</gom:speed><gom:course>11.321</gom:course><gom:rel_alt>3.477</gom:rel_alt></extensions></trkpt>
   <trkpt lat="59.0666117773" lon="29.9653084133"><ele>86.528</ele><time>2026-04-25T10:54:10.000Z</time><hdop>4.687</hdop><vdop>5.625</vdop><extensions><gom:speed>1.007</gom:speed><gom:course>15.414</gom:course><gom:rel_alt>3.701</gom:rel_alt></extensions></trkpt>
   <trkpt lat="59.066688304" lon="29.9653437011"><ele>85.544</ele><time>2026-04-25T10:54:18.000Z</time><hdop>4.687</hdop><vdop>5.5</vdop><extensions><gom:speed>1.085</gom:speed><gom:course>18.539</gom:course><gom:rel_alt>3.675</gom:rel_alt></extensions></trkpt>
   <trkpt lat="59.0667680578" lon="29.9653551843"><ele>85.769</ele><time>2026-04-25T10:54:27.000Z</time><hdop>4.687</hdop><vdop>5.75</vdop><extensions><gom:speed>1.048</gom:speed><gom:course>3.51</gom:course><gom:rel_alt>3.683</gom:rel_alt></extensions></trkpt>
   <trkpt lat="59.0668470573" lon="29.9654173781"><ele>83.878</ele><time>2026-04-25T10:55:27.000Z</time><hdop>4.687</hdop><vdop>4.437</vdop><extensions><gom:speed>1.275</gom:speed><gom:course>14.15</gom:course><gom:rel_alt>3.284</gom:rel_alt></extensions></trkpt>
   <trkpt lat="59.0669257634" lon="29.9654277716"><ele>85.846</ele><time>2026-04-25T10:55:34.000Z</time><hdop>4.687</hdop><vdop>5.687</vdop><extensions><gom:speed>1.03</gom:speed><gom:course>6.372</gom:course><gom:rel_alt>3.522</gom:rel_alt></extensions></trkpt>
   <trkpt lat="59.0670023739" lon="29.9654408474"><ele>86.371</ele><time>2026-04-25T10:55:46.000Z</time><hdop>4.687</hdop><vdop>5.5</vdop><extensions><gom:speed>0.975</gom:speed><gom:course>19.995</gom:course><gom:rel_alt>3.646</gom:rel_alt></extensions></trkpt>
   <trkpt lat="59.0670813315" lon="29.9654625565"><ele>86.368</ele><time>2026-04-25T10:55:54.000Z</time><hdop>4.687</hdop><vdop>5.437</vdop><extensions><gom:speed>1.022</gom:speed><gom:course>9.64</gom:course><gom:rel_alt>3.654</gom:rel_alt></extensions></trkpt>
   <trkpt lat="59.0671581097" lon="29.9654912226"><ele>85.991</ele><time>2026-04-25T10:56:03.000Z</time><hdop>4.687</hdop><vdop>6.0</vdop><extensions><gom:speed>0.886</gom:speed><gom:course>7.564</gom:course><gom:rel_alt>3.482</gom:rel_alt></extensions></trkpt>
   <trkpt lat="59.0672369834" lon="29.9654994369"><ele>85.703</ele><time>2026-04-25T10:56:15.000Z</time><hdop>4.687</hdop><vdop>5.375</vdop><extensions><gom:speed>0.953</gom:speed><gom:course>15.419</gom:course><gom:rel_alt>3.659</gom:rel_alt></extensions></trkpt>
   <trkpt lat="59.0673105346" lon="29.9655313719"><ele>85.634</ele><time>2026-04-25T10:56:23.000Z</time><hdop>4.687</hdop><vdop>5.062</vdop><extensions><gom:speed>1.052</gom:speed><gom:course>8.355</gom:course><gom:rel_alt>3.152</gom:rel_alt></extensions></trkpt>
   <trkpt lat="59.0673894502" lon="29.965569342"><ele>86.648</ele><time>2026-04-25T10:56:31.000Z</time><hdop>4.687</hdop><vdop>4.937</vdop><extensions><gom:speed>1.065</gom:speed><gom:course>10.036</gom:course><gom:rel_alt>3.339</gom:rel_alt></extensions></trkpt>
   <trkpt lat="59.0674601516" lon="29.965617035"><ele>86.878</ele><time>2026-04-25T10:56:38.000Z</time><hdop>4.687</hdop><vdop>5.062</vdop><extensions><gom:speed>1.187</gom:speed><gom:course>13.815</gom:course><gom:rel_alt>3.405</gom:rel_alt></extensions></trkpt>
   <trkpt lat="59.0675364269" lon="29.9656015285"><ele>87.388</ele><time>2026-04-25T10:56:48.000Z</time><hdop>4.687</hdop><vdop>5.125</vdop><extensions><gom:speed>1.034</gom:speed><gom:course>357.286</gom:course><gom:rel_alt>3.501</gom:rel_alt></extensions></trkpt>
   <trkpt lat="59.0676177733" lon="29.9656389956"><ele>87.592</ele><time>2026-04-25T10:56:58.000Z</time><hdop>4.687</hdop><vdop>5.375</vdop><extensions><gom:speed>1.159</gom:speed><gom:course>12.623</gom:course><gom:rel_alt>3.715</gom:rel_alt></extensions></trkpt>
   <trkpt lat="59.0676975271" lon="29.9656632193"><ele>87.568</ele><time>2026-04-25T10:57:07.000Z</time><hdop>4.687</hdop><vdop>5.187</vdop><extensions><gom:speed>1.075</gom:speed><gom:course>4.185</gom:course><gom:rel_alt>3.826</gom:rel_alt></extensions></trkpt>
   <trkpt lat="59.0677743891" lon="29.9656875268"><ele>87.288</ele><time>2026-04-25T10:57:15.000Z</time><hdop>4.687</hdop><vdop>5.312</vdop><extensions><gom:speed>1.075</gom:speed><gom:course>2.883</gom:course><gom:rel_alt>3.638</gom:rel_alt></extensions></trkpt>
   <trkpt lat="59.0678496167" lon="29.9656708468"><ele>86.916</ele><time>2026-04-25T10:57:29.000Z</time><hdop>4.687</hdop><vdop>5.0</vdop><extensions><gom:speed>0.874</gom:speed><gom:course>354.319</gom:course><gom:rel_alt>4.232</gom:rel_alt></extensions></trkpt>
   <trkpt lat="59.0679179711" lon="29.9657164444"><ele>86.946</ele><time>2026-04-25T10:57:38.000Z</time><hdop>4.687</hdop><vdop>5.125</vdop><extensions><gom:speed>0.942</gom:speed><gom:course>9.668</gom:course><gom:rel_alt>4.336</gom:rel_alt></extensions></trkpt>
   <trkpt lat="59.0680010777" lon="29.9657783866"><ele>87.453</ele><time>2026-04-25T10:58:53.000Z</time><hdop>4.687</hdop><vdop>5.125</vdop><extensions><gom:speed>1.097</gom:speed><gom:course>17.023</gom:course><gom:rel_alt>3.244</gom:rel_alt></extensions></trkpt>
   <trkpt lat="59.0680721562" lon="29.9658108246"><ele>87.055</ele><time>2026-04-25T10:59:01.000Z</time><hdop>4.687</hdop><vdop>4.125</vdop><extensions><gom:speed>1.012</gom:speed><gom:course>11.013</gom:course><gom:rel_alt>3.271</gom:rel_alt></extensions></trkpt>
   <trkpt lat="59.0681416003" lon="29.965854159"><ele>87.922</ele><time>2026-04-25T10:59:11.000Z</time><hdop>4.687</hdop><vdop>5.062</vdop><extensions><gom:speed>1.102</gom:speed><gom:course>20.462</gom:course><gom:rel_alt>3.305</gom:rel_alt></extensions></trkpt>
   <trkpt lat="59.0682055961" lon="29.9657868524"><ele>86.319</ele><time>2026-04-25T11:00:36.000Z</time><hdop>4.687</hdop><vdop>5.312</vdop><extensions><gom:speed>1.076</gom:speed><gom:course>13.139</gom:course><gom:rel_alt>3.67</gom:rel_alt></extensions></trkpt>
   <trkpt lat="59.0682805304" lon="29.9658446037"><ele>85.128</ele><time>2026-04-25T11:00:45.000Z</time><hdop>4.687</hdop><vdop>5.937</vdop><extensions><gom:speed>0.841</gom:speed><gom:course>18.039</gom:course><gom:rel_alt>3.308</gom:rel_alt></extensions></trkpt>
   <trkpt lat="59.0683560513" lon="29.9658519797"><ele>85.201</ele><time>2026-04-25T11:00:53.000Z</time><hdop>4.687</hdop><vdop>6.5</vdop><extensions><gom:speed>0.984</gom:speed><gom:course>2.565</gom:course><gom:rel_alt>3.538</gom:rel_alt></extensions></trkpt>
   <trkpt lat="59.0684287224" lon="29.965900511"><ele>85.561</ele><time>2026-04-25T11:01:02.000Z</time><hdop>4.687</hdop><vdop>5.75</vdop><extensions><gom:speed>0.816</gom:speed><gom:course>19.165</gom:course><gom:rel_alt>3.839</gom:rel_alt></extensions></trkpt>
   <trkpt lat="59.0685014773" lon="29.9659192026"><ele>86.031</ele><time>2026-04-25T11:01:10.000Z</time><hdop>4.687</hdop><vdop>5.812</vdop><extensions><gom:speed>1.059</gom:speed><gom:course>8.629</gom:course><gom:rel_alt>3.638</gom:rel_alt></extensions></trkpt>
   <trkpt lat="59.0685736455" lon="29.9659392353"><ele>85.959</ele><time>2026-04-25T11:01:18.000Z</time><hdop>4.687</hdop><vdop>5.875</vdop><extensions><gom:speed>1.087</gom:speed><gom:course>10.81</gom:course><gom:rel_alt>3.548</gom:rel_alt></extensions></trkpt>
   <trkpt lat="59.0686490407" lon="29.9659725953"><ele>86.143</ele><time>2026-04-25T11:01:29.000Z</time><hdop>4.687</hdop><vdop>5.75</vdop><extensions><gom:speed>0.791</gom:speed><gom:course>21.835</gom:course><gom:rel_alt>4.23</gom:rel_alt></extensions></trkpt>
   <trkpt lat="59.0687262381" lon="29.9659943045"><ele>86.624</ele><time>2026-04-25T11:01:39.000Z</time><hdop>4.687</hdop><vdop>5.625</vdop><extensions><gom:speed>0.742</gom:speed><gom:course>8.514</gom:course><gom:rel_alt>3.807</gom:rel_alt></extensions></trkpt>
   <trkpt lat="59.0688007951" lon="29.9660036922"><ele>87.769</ele><time>2026-04-25T11:01:48.000Z</time><hdop>4.687</hdop><vdop>5.625</vdop><extensions><gom:speed>0.767</gom:speed><gom:course>3.158</gom:course><gom:rel_alt>3.849</gom:rel_alt></extensions></trkpt>
   <trkpt lat="59.0688741787" lon="29.9659932986"><ele>88.13</ele><time>2026-04-25T11:02:00.000Z</time><hdop>4.687</hdop><vdop>5.375</vdop><extensions><gom:speed>1.021</gom:speed><gom:course>13.903</gom:course><gom:rel_alt>4.988</gom:rel_alt></extensions></trkpt>
   <trkpt lat="59.0689540582" lon="29.9660193663"><ele>87.344</ele><time>2026-04-25T11:02:09.000Z</time><hdop>4.687</hdop><vdop>5.375</vdop><extensions><gom:speed>0.911</gom:speed><gom:course>6.3</gom:course><gom:rel_alt>4.719</gom:rel_alt></extensions></trkpt>
   <trkpt lat="59.0690253882" lon="29.9660467752"><ele>86.585</ele><time>2026-04-25T11:02:18.000Z</time><hdop>4.687</hdop><vdop>5.5</vdop><extensions><gom:speed>0.942</gom:speed><gom:course>12.749</gom:course><gom:rel_alt>4.74</gom:rel_alt></extensions></trkpt>
   <trkpt lat="59.0690992747" lon="29.9660757766"><ele>87.158</ele><time>2026-04-25T11:02:27.000Z</time><hdop>4.687</hdop><vdop>5.5</vdop><extensions><gom:speed>0.948</gom:speed><gom:course>12.046</gom:course><gom:rel_alt>4.822</gom:rel_alt></extensions></trkpt>
   <trkpt lat="59.0691747537" lon="29.9661019281"><ele>86.592</ele><time>2026-04-25T11:02:35.000Z</time><hdop>4.687</hdop><vdop>5.812</vdop><extensions><gom:speed>0.864</gom:speed><gom:course>14.485</gom:course><gom:rel_alt>5.115</gom:rel_alt></extensions></trkpt>
   <trkpt lat="59.0692509452" lon="29.9661186081"><ele>87.969</ele><time>2026-04-25T11:02:44.000Z</time><hdop>4.687</hdop><vdop>5.25</vdop><extensions><gom:speed>1.05</gom:speed><gom:course>5.575</gom:course><gom:rel_alt>5.165</gom:rel_alt></extensions></trkpt>
   <trkpt lat="59.0693208503" lon="29.9661528901"><ele>86.75</ele><time>2026-04-25T11:02:54.000Z</time><hdop>4.687</hdop><vdop>4.75</vdop><extensions><gom:speed>1.122</gom:speed><gom:course>11.596</gom:course><gom:rel_alt>5.292</gom:rel_alt></extensions></trkpt>
   <trkpt lat="59.0693972094" lon="29.9661869206"><ele>86.782</ele><time>2026-04-25T11:03:02.000Z</time><hdop>4.687</hdop><vdop>4.812</vdop><extensions><gom:speed>1.116</gom:speed><gom:course>8.855</gom:course><gom:rel_alt>5.506</gom:rel_alt></extensions></trkpt>
   <trkpt lat="59.0694738619" lon="29.9662165925"><ele>86.875</ele><time>2026-04-25T11:03:10.000Z</time><hdop>4.687</hdop><vdop>5.25</vdop><extensions><gom:speed>0.87</gom:speed><gom:course>9.843</gom:course><gom:rel_alt>4.912</gom:rel_alt></extensions></trkpt>
   <trkpt lat="59.0695484609" lon="29.9662482761"><ele>86.617</ele><time>2026-04-25T11:03:18.000Z</time><hdop>4.687</hdop><vdop>5.125</vdop><extensions><gom:speed>1.109</gom:speed><gom:course>9.091</gom:course><gom:rel_alt>4.584</gom:rel_alt></extensions></trkpt>
   <trkpt lat="59.0696214253" lon="29.9662447557"><ele>86.745</ele><time>2026-04-25T11:03:29.000Z</time><hdop>4.687</hdop><vdop>5.187</vdop><extensions><gom:speed>0.716</gom:speed><gom:course>11.75</gom:course><gom:rel_alt>4.7</gom:rel_alt></extensions></trkpt>
   <trkpt lat="59.0697018497" lon="29.9662648723"><ele>86.826</ele><time>2026-04-25T11:03:38.000Z</time><hdop>4.687</hdop><vdop>5.687</vdop><extensions><gom:speed>1.021</gom:speed><gom:course>357.698</gom:course><gom:rel_alt>4.927</gom:rel_alt></extensions></trkpt>
   <trkpt lat="59.0697797176" lon="29.9662973103"><ele>86.749</ele><time>2026-04-25T11:03:46.000Z</time><hdop>4.687</hdop><vdop>5.375</vdop><extensions><gom:speed>0.959</gom:speed><gom:course>357.165</gom:course><gom:rel_alt>4.507</gom:rel_alt></extensions></trkpt>
   <trkpt lat="59.0698590523" lon="29.9663213663"><ele>86.927</ele><time>2026-04-25T11:03:54.000Z</time><hdop>4.687</hdop><vdop>5.187</vdop><extensions><gom:speed>0.966</gom:speed><gom:course>10.821</gom:course><gom:rel_alt>5.075</gom:rel_alt></extensions></trkpt>
   <trkpt lat="59.0699315976" lon="29.9663373758"><ele>87.108</ele><time>2026-04-25T11:04:02.000Z</time><hdop>4.687</hdop><vdop>5.5</vdop><extensions><gom:speed>0.903</gom:speed><gom:course>7.338</gom:course><gom:rel_alt>5.128</gom:rel_alt></extensions></trkpt>
   <trkpt lat="59.0700118963" lon="29.9663638626"><ele>86.851</ele><time>2026-04-25T11:04:11.000Z</time><hdop>4.687</hdop><vdop>5.562</vdop><extensions><gom:speed>1.088</gom:speed><gom:course>12.013</gom:course><gom:rel_alt>5.052</gom:rel_alt></extensions></trkpt>
   <trkpt lat="59.0700812565" lon="29.966429912"><ele>85.574</ele><time>2026-04-25T11:04:22.000Z</time><hdop>4.687</hdop><vdop>5.625</vdop><extensions><gom:speed>1.121</gom:speed><gom:course>13.387</gom:course><gom:rel_alt>4.357</gom:rel_alt></extensions></trkpt>
   <trkpt lat="59.070154221" lon="29.9664497771"><ele>86.393</ele><time>2026-04-25T11:04:32.000Z</time><hdop>4.687</hdop><vdop>5.687</vdop><extensions><gom:speed>0.938</gom:speed><gom:course>13.804</gom:course><gom:rel_alt>4.536</gom:rel_alt></extensions></trkpt>
   <trkpt lat="59.0702308316" lon="29.9664778564"><ele>86.803</ele><time>2026-04-25T11:04:40.000Z</time><hdop>4.687</hdop><vdop>5.625</vdop><extensions><gom:speed>1.052</gom:speed><gom:course>9.036</gom:course><gom:rel_alt>4.499</gom:rel_alt></extensions></trkpt>
   <trkpt lat="59.0703097472" lon="29.9665193469"><ele>87.165</ele><time>2026-04-25T11:04:49.000Z</time><hdop>4.687</hdop><vdop>5.625</vdop><extensions><gom:speed>1.121</gom:speed><gom:course>15.518</gom:course><gom:rel_alt>4.737</gom:rel_alt></extensions></trkpt>
   <trkpt lat="59.0703845976" lon="29.966486406"><ele>87.64</ele><time>2026-04-25T11:05:02.000Z</time><hdop>4.687</hdop><vdop>5.687</vdop><extensions><gom:speed>0.677</gom:speed><gom:course>345.135</gom:course><gom:rel_alt>5.49</gom:rel_alt></extensions></trkpt>
   <trkpt lat="59.0704554247" lon="29.9665232864"><ele>87.078</ele><time>2026-04-25T11:05:09.000Z</time><hdop>4.687</hdop><vdop>5.625</vdop><extensions><gom:speed>1.039</gom:speed><gom:course>10.019</gom:course><gom:rel_alt>6.404</gom:rel_alt></extensions></trkpt>
   <trkpt lat="59.0705301074" lon="29.9665433191"><ele>87.244</ele><time>2026-04-25T11:05:16.000Z</time><hdop>4.687</hdop><vdop>5.375</vdop><extensions><gom:speed>1.101</gom:speed><gom:course>2.955</gom:course><gom:rel_alt>5.91</gom:rel_alt></extensions></trkpt>
   <trkpt lat="59.0706024852" lon="29.9665699736"><ele>87.506</ele><time>2026-04-25T11:05:23.000Z</time><hdop>4.687</hdop><vdop>5.25</vdop><extensions><gom:speed>1.139</gom:speed><gom:course>7.218</gom:course><gom:rel_alt>5.636</gom:rel_alt></extensions></trkpt>
   <trkpt lat="59.0706792634" lon="29.9665803671"><ele>87.549</ele><time>2026-04-25T11:05:31.000Z</time><hdop>4.687</hdop><vdop>5.5</vdop><extensions><gom:speed>1.141</gom:speed><gom:course>8.514</gom:course><gom:rel_alt>5.85</gom:rel_alt></extensions></trkpt>
   <trkpt lat="59.0707503839" lon="29.966612386"><ele>87.21</ele><time>2026-04-25T11:05:40.000Z</time><hdop>4.687</hdop><vdop>5.125</vdop><extensions><gom:speed>1.127</gom:speed><gom:course>5.372</gom:course><gom:rel_alt>5.654</gom:rel_alt></extensions></trkpt>
   <trkpt lat="59.0708268687" lon="29.9666430638"><ele>87.461</ele><time>2026-04-25T11:05:48.000Z</time><hdop>4.687</hdop><vdop>5.437</vdop><extensions><gom:speed>1.19</gom:speed><gom:course>5.07</gom:course><gom:rel_alt>5.752</gom:rel_alt></extensions></trkpt>
   <trkpt lat="59.0709010486" lon="29.9666548822"><ele>87.589</ele><time>2026-04-25T11:05:59.000Z</time><hdop>4.687</hdop><vdop>5.75</vdop><extensions><gom:speed>0.842</gom:speed><gom:course>10.552</gom:course><gom:rel_alt>5.834</gom:rel_alt></extensions></trkpt>
   <trkpt lat="59.0709795451" lon="29.9666808661"><ele>87.142</ele><time>2026-04-25T11:06:07.000Z</time><hdop>4.687</hdop><vdop>5.562</vdop><extensions><gom:speed>1.157</gom:speed><gom:course>11.81</gom:course><gom:rel_alt>5.702</gom:rel_alt></extensions></trkpt>
   <trkpt lat="59.0710607657" lon="29.9667011503"><ele>87.124</ele><time>2026-04-25T11:06:15.000Z</time><hdop>4.687</hdop><vdop>5.687</vdop><extensions><gom:speed>1.146</gom:speed><gom:course>8.333</gom:course><gom:rel_alt>5.683</gom:rel_alt></extensions></trkpt>
   <trkpt lat="59.0711404776" lon="29.966722608"><ele>87.655</ele><time>2026-04-25T11:06:23.000Z</time><hdop>4.687</hdop><vdop>6.0</vdop><extensions><gom:speed>1.037</gom:speed><gom:course>6.421</gom:course><gom:rel_alt>5.71</gom:rel_alt></extensions></trkpt>
   <trkpt lat="59.0712174654" lon="29.9667510227"><ele>86.946</ele><time>2026-04-25T11:06:35.000Z</time><hdop>4.687</hdop><vdop>5.312</vdop><extensions><gom:speed>1.127</gom:speed><gom:course>5.663</gom:course></extensions></trkpt>
   <trkpt lat="59.071294076" lon="29.966795782"><ele>87.52</ele><time>2026-04-25T11:06:44.000Z</time><hdop>4.687</hdop><vdop>5.875</vdop><extensions><gom:speed>0.912</gom:speed><gom:course>11.579</gom:course><gom:rel_alt>5.382</gom:rel_alt></extensions></trkpt>
   <trkpt lat="59.0713703513" lon="29.9668198381"><ele>87.805</ele><time>2026-04-25T11:06:52.000Z</time><hdop>4.687</hdop><vdop>5.625</vdop><extensions><gom:speed>1.088</gom:speed><gom:course>9.14</gom:course><gom:rel_alt>5.543</gom:rel_alt></extensions></trkpt>
   <trkpt lat="59.0714458304" lon="29.9668560479"><ele>87.017</ele><time>2026-04-25T11:07:00.000Z</time><hdop>4.687</hdop><vdop>5.625</vdop><extensions><gom:speed>1.176</gom:speed><gom:course>14.408</gom:course><gom:rel_alt>5.424</gom:rel_alt></extensions></trkpt>
   <trkpt lat="59.0715209741" lon="29.9668759968"><ele>88.244</ele><time>2026-04-25T11:07:09.000Z</time><hdop>4.687</hdop><vdop>5.562</vdop><extensions><gom:speed>0.912</gom:speed><gom:course>11.332</gom:course><gom:rel_alt>5.535</gom:rel_alt></extensions></trkpt>
   <trkpt lat="59.0716010632" lon="29.9669013102"><ele>87.651</ele><time>2026-04-25T11:07:17.000Z</time><hdop>4.687</hdop><vdop>5.562</vdop><extensions><gom:speed>0.99</gom:speed><gom:course>10.277</gom:course><gom:rel_alt>5.958</gom:rel_alt></extensions></trkpt>
   <trkpt lat="59.071675746" lon="29.9669075966"><ele>87.412</ele><time>2026-04-25T11:07:25.000Z</time><hdop>4.687</hdop><vdop>6.062</vdop><extensions><gom:speed>1.04</gom:speed><gom:course>7.591</gom:course><gom:rel_alt>6.016</gom:rel_alt></extensions></trkpt>
   <trkpt lat="59.0717594812" lon="29.9669321556"><ele>87.529</ele><time>2026-04-25T11:07:34.000Z</time><hdop>4.687</hdop><vdop>5.75</vdop><extensions><gom:speed>1.169</gom:speed><gom:course>11.689</gom:course></extensions></trkpt>
   <trkpt lat="59.0718395284" lon="29.9669555411"><ele>87.119</ele><time>2026-04-25T11:07:43.000Z</time><hdop>4.687</hdop><vdop>5.687</vdop><extensions><gom:speed>0.966</gom:speed><gom:course>10.964</gom:course><gom:rel_alt>6.381</gom:rel_alt></extensions></trkpt>
   <trkpt lat="59.0719145045" lon="29.9669897393"><ele>87.93</ele><time>2026-04-25T11:07:52.000Z</time><hdop>4.687</hdop><vdop>5.625</vdop><extensions><gom:speed>0.697</gom:speed><gom:course>19.896</gom:course><gom:rel_alt>6.212</gom:rel_alt></extensions></trkpt>
   <trkpt lat="59.0719909893" lon="29.9670113646"><ele>87.453</ele><time>2026-04-25T11:08:00.000Z</time><hdop>4.687</hdop><vdop>5.625</vdop><extensions><gom:speed>1.059</gom:speed><gom:course>10.442</gom:course><gom:rel_alt>6.293</gom:rel_alt></extensions></trkpt>
   <trkpt lat="59.07206848" lon="29.9670355883"><ele>87.423</ele><time>2026-04-25T11:08:10.000Z</time><hdop>4.687</hdop><vdop>5.687</vdop><extensions><gom:speed>0.948</gom:speed><gom:course>7.317</gom:course><gom:rel_alt>6.634</gom:rel_alt></extensions></trkpt>
   <trkpt lat="59.0721410254" lon="29.9670600634"><ele>87.439</ele><time>2026-04-25T11:08:25.000Z</time><hdop>4.687</hdop><vdop>5.5</vdop><extensions><gom:speed>0.924</gom:speed><gom:course>10.091</gom:course><gom:rel_alt>6.56</gom:rel_alt></extensions></trkpt>
   <trkpt lat="59.0722126488" lon="29.9670780007"><ele>87.078</ele><time>2026-04-25T11:08:34.000Z</time><hdop>4.687</hdop><vdop>5.5</vdop><extensions><gom:speed>0.894</gom:speed><gom:course>14.37</gom:course></extensions></trkpt>
   <trkpt lat="59.0722927379" lon="29.9671089299"><ele>87.678</ele><time>2026-04-25T11:08:43.000Z</time><hdop>4.687</hdop><vdop>5.75</vdop><extensions><gom:speed>1.003</gom:speed><gom:course>10.717</gom:course><gom:rel_alt>6.761</gom:rel_alt></extensions></trkpt>
   <trkpt lat="59.0723642355" lon="29.9671349138"><ele>87.108</ele><time>2026-04-25T11:08:52.000Z</time><hdop>4.687</hdop><vdop>5.562</vdop><extensions><gom:speed>0.641</gom:speed><gom:course>17.303</gom:course><gom:rel_alt>7.181</gom:rel_alt></extensions></trkpt>
   <trkpt lat="59.0724368228" lon="29.9671594728"><ele>87.847</ele><time>2026-04-25T11:09:00.000Z</time><hdop>4.687</hdop><vdop>5.437</vdop><extensions><gom:speed>0.91</gom:speed><gom:course>9.69</gom:course><gom:rel_alt>6.766</gom:rel_alt></extensions></trkpt>
   <trkpt lat="59.0725087814" lon="29.967180679"><ele>87.121</ele><time>2026-04-25T11:09:09.000Z</time><hdop>4.687</hdop><vdop>5.562</vdop><extensions><gom:speed>0.944</gom:speed><gom:course>8.717</gom:course><gom:rel_alt>6.727</gom:rel_alt></extensions></trkpt>
   <trkpt lat="59.0725797761" lon="29.9672183976"><ele>86.452</ele><time>2026-04-25T11:09:21.000Z</time><hdop>4.687</hdop><vdop>5.5</vdop><extensions><gom:speed>1.007</gom:speed><gom:course>11.579</gom:course><gom:rel_alt>6.78</gom:rel_alt></extensions></trkpt>
   <trkpt lat="59.0726524472" lon="29.9672348261"><ele>86.695</ele><time>2026-04-25T11:09:29.000Z</time><hdop>4.687</hdop><vdop>5.75</vdop><extensions><gom:speed>0.965</gom:speed><gom:course>7.959</gom:course><gom:rel_alt>6.436</gom:rel_alt></extensions></trkpt>
   <trkpt lat="59.0727266271" lon="29.9672657553"><ele>86.768</ele><time>2026-04-25T11:09:42.000Z</time><hdop>4.687</hdop><vdop>5.437</vdop><extensions><gom:speed>1.048</gom:speed><gom:course>11.25</gom:course><gom:rel_alt>6.706</gom:rel_alt></extensions></trkpt>
   <trkpt lat="59.0728050398" lon="29.9673004564"><ele>86.082</ele><time>2026-04-25T11:09:52.000Z</time><hdop>4.687</hdop><vdop>5.375</vdop><extensions><gom:speed>1.139</gom:speed><gom:course>11.162</gom:course><gom:rel_alt>6.434</gom:rel_alt></extensions></trkpt>
   <trkpt lat="59.0728773756" lon="29.9673193995"><ele>86.04</ele><time>2026-04-25T11:10:00.000Z</time><hdop>4.687</hdop><vdop>5.625</vdop><extensions><gom:speed>1.013</gom:speed><gom:course>14.397</gom:course><gom:rel_alt>6.428</gom:rel_alt></extensions></trkpt>
   <trkpt lat="59.0729516393" lon="29.9673474789"><ele>86.401</ele><time>2026-04-25T11:10:10.000Z</time><hdop>4.687</hdop><vdop>5.25</vdop><extensions><gom:speed>1.223</gom:speed><gom:course>11.634</gom:course><gom:rel_alt>6.658</gom:rel_alt></extensions></trkpt>
   <trkpt lat="59.073036548" lon="29.9673788272"><ele>85.561</ele><time>2026-04-25T11:10:20.000Z</time><hdop>4.687</hdop><vdop>5.25</vdop><extensions><gom:speed>1.026</gom:speed><gom:course>4.213</gom:course><gom:rel_alt>6.65</gom:rel_alt></extensions></trkpt>
   <trkpt lat="59.0731078779" lon="29.967405314"><ele>85.911</ele><time>2026-04-25T11:10:26.999Z</time><hdop>4.687</hdop><vdop>5.437</vdop><extensions><gom:speed>0.879</gom:speed><gom:course>5.553</gom:course><gom:rel_alt>6.523</gom:rel_alt></extensions></trkpt>
   <trkpt lat="59.0731745141" lon="29.967466921"><ele>85.785</ele><time>2026-04-25T11:10:37.999Z</time><hdop>4.687</hdop><vdop>5.312</vdop><extensions><gom:speed>0.818</gom:speed><gom:course>11.552</gom:course><gom:rel_alt>5.905</gom:rel_alt></extensions></trkpt>
   <trkpt lat="59.0732486101" lon="29.9674737104"><ele>86.46</ele><time>2026-04-25T11:10:48.000Z</time><hdop>4.687</hdop><vdop>5.312</vdop><extensions><gom:speed>0.86</gom:speed><gom:course>356.451</gom:course><gom:rel_alt>6.05</gom:rel_alt></extensions></trkpt>
   <trkpt lat="59.0733203592" lon="29.9675203976"><ele>85.525</ele><time>2026-04-25T11:10:56.000Z</time><hdop>4.687</hdop><vdop>5.25</vdop><extensions><gom:speed>1.049</gom:speed><gom:course>12.464</gom:course><gom:rel_alt>5.519</gom:rel_alt></extensions></trkpt>
   <trkpt lat="59.0733962573" lon="29.9675487284"><ele>85.708</ele><time>2026-04-25T11:11:04.000Z</time><hdop>4.687</hdop><vdop>5.0</vdop><extensions><gom:speed>1.11</gom:speed><gom:course>10.195</gom:course><gom:rel_alt>5.424</gom:rel_alt></extensions></trkpt>
   <trkpt lat="59.0734710239" lon="29.9675642349"><ele>85.923</ele><time>2026-04-25T11:11:17.000Z</time><hdop>4.687</hdop><vdop>5.375</vdop><extensions><gom:speed>0.901</gom:speed><gom:course>8.833</gom:course></extensions></trkpt>
   <trkpt lat="59.0735467125" lon="29.9675921467"><ele>86.286</ele><time>2026-04-25T11:11:27.000Z</time><hdop>4.687</hdop><vdop>5.062</vdop><extensions><gom:speed>1.268</gom:speed><gom:course>8.509</gom:course><gom:rel_alt>5.76</gom:rel_alt></extensions></trkpt>
   <trkpt lat="59.0736179587" lon="29.9676201422"><ele>86.778</ele><time>2026-04-25T11:11:35.000Z</time><hdop>4.687</hdop><vdop>5.25</vdop><extensions><gom:speed>0.817</gom:speed><gom:course>10.162</gom:course><gom:rel_alt>5.749</gom:rel_alt></extensions></trkpt>
   <trkpt lat="59.0736838823" lon="29.9676923942"><ele>86.516</ele><time>2026-04-25T11:12:06.000Z</time><hdop>4.687</hdop><vdop>4.125</vdop><extensions><gom:speed>0.168</gom:speed><gom:course>11.349</gom:course><gom:rel_alt>5.831</gom:rel_alt></extensions></trkpt>
   <trkpt lat="59.0737325393" lon="29.9675882072"><ele>86.523</ele><time>2026-04-25T11:16:43.000Z</time><hdop>4.687</hdop><vdop>5.312</vdop><extensions><gom:speed>0.266</gom:speed><gom:course>355.078</gom:course><gom:rel_alt>6.32</gom:rel_alt></extensions></trkpt>
   <trkpt lat="59.0738038693" lon="29.9676080723"><ele>85.686</ele><time>2026-04-25T11:17:15.000Z</time><hdop>4.687</hdop><vdop>5.0</vdop><extensions><gom:speed>0.571</gom:speed><gom:course>15.556</gom:course><gom:rel_alt>7.284</gom:rel_alt></extensions></trkpt>
   <trkpt lat="59.0738749897" lon="29.9676595372"><ele>87.515</ele><time>2026-04-25T11:18:05.000Z</time><hdop>4.687</hdop><vdop>4.687</vdop><extensions><gom:speed>0.073</gom:speed><gom:course>198.987</gom:course><gom:rel_alt>7.475</gom:rel_alt></extensions></trkpt>
   <trkpt lat="59.0739509298" lon="29.9676844314"><ele>88.923</ele><time>2026-04-25T11:18:15.000Z</time><hdop>4.687</hdop><vdop>4.625</vdop><extensions><gom:speed>0.062</gom:speed><gom:course>198.987</gom:course><gom:rel_alt>7.707</gom:rel_alt></extensions></trkpt>
   <trkpt lat="59.0740226369" lon="29.9677016143"><ele>89.2</ele><time>2026-04-25T11:18:24.000Z</time><hdop>4.687</hdop><vdop>4.937</vdop><extensions><gom:speed>0.061</gom:speed><gom:course>198.987</gom:course><gom:rel_alt>7.797</gom:rel_alt></extensions></trkpt>
   <trkpt lat="59.0740987865" lon="29.9677084875"><ele>88.709</ele><time>2026-04-25T11:18:33.000Z</time><hdop>4.687</hdop><vdop>5.0</vdop><extensions><gom:speed>0.066</gom:speed><gom:course>198.987</gom:course><gom:rel_alt>7.752</gom:rel_alt></extensions></trkpt>
   <trkpt lat="59.0741730083" lon="29.9677301128"><ele>89.163</ele><time>2026-04-25T11:18:41.000Z</time><hdop>4.687</hdop><vdop>5.062</vdop><extensions><gom:speed>0.018</gom:speed><gom:course>198.987</gom:course><gom:rel_alt>7.612</gom:rel_alt></extensions></trkpt>
   <trkpt lat="59.0742518401" lon="29.9677529954"><ele>88.887</ele><time>2026-04-25T11:18:50.000Z</time><hdop>4.687</hdop><vdop>5.125</vdop><extensions><gom:speed>0.051</gom:speed><gom:course>198.987</gom:course><gom:rel_alt>7.636</gom:rel_alt></extensions></trkpt>
   <trkpt lat="59.074329708" lon="29.9677773867"><ele>90.053</ele><time>2026-04-25T11:18:58.000Z</time><hdop>4.687</hdop><vdop>5.187</vdop><extensions><gom:speed>0.098</gom:speed><gom:course>198.987</gom:course><gom:rel_alt>7.72</gom:rel_alt></extensions></trkpt>
   <trkpt lat="59.0744040135" lon="29.9678063881"><ele>89.092</ele><time>2026-04-25T11:19:08.000Z</time><hdop>4.687</hdop><vdop>5.125</vdop><extensions><gom:speed>0.079</gom:speed><gom:course>198.987</gom:course><gom:rel_alt>7.831</gom:rel_alt></extensions></trkpt>
   <trkpt lat="59.0744788639" lon="29.9678380717"><ele>87.603</ele><time>2026-04-25T11:19:22.000Z</time><hdop>4.687</hdop><vdop>4.937</vdop><extensions><gom:speed>0.059</gom:speed><gom:course>198.987</gom:course><gom:rel_alt>7.953</gom:rel_alt></extensions></trkpt>
   <trkpt lat="59.0745572347" lon="29.9678633012"><ele>87.849</ele><time>2026-04-25T11:19:31.000Z</time><hdop>4.687</hdop><vdop>4.875</vdop><extensions><gom:speed>0.108</gom:speed><gom:course>198.987</gom:course><gom:rel_alt>7.718</gom:rel_alt></extensions></trkpt>
   <trkpt lat="59.0746357732" lon="29.9678904586"><ele>87.587</ele><time>2026-04-25T11:19:40.000Z</time><hdop>4.687</hdop><vdop>4.75</vdop><extensions><gom:speed>0.131</gom:speed><gom:course>198.987</gom:course><gom:rel_alt>7.673</gom:rel_alt></extensions></trkpt>
   <trkpt lat="59.0747084024" lon="29.9679258302"><ele>87.607</ele><time>2026-04-25T11:19:49.000Z</time><hdop>4.687</hdop><vdop>5.125</vdop><extensions><gom:speed>0.117</gom:speed><gom:course>198.987</gom:course><gom:rel_alt>7.493</gom:rel_alt></extensions></trkpt>
   <trkpt lat="59.0747823307" lon="29.9679591064"><ele>87.094</ele><time>2026-04-25T11:19:58.000Z</time><hdop>4.687</hdop><vdop>5.187</vdop><extensions><gom:speed>0.058</gom:speed><gom:course>198.987</gom:course><gom:rel_alt>7.58</gom:rel_alt></extensions></trkpt>
   <trkpt lat="59.0748575164" lon="29.9679822404"><ele>87.082</ele><time>2026-04-25T11:20:07.000Z</time><hdop>4.687</hdop><vdop>5.375</vdop><extensions><gom:speed>0.077</gom:speed><gom:course>198.987</gom:course><gom:rel_alt>7.599</gom:rel_alt></extensions></trkpt>
   <trkpt lat="59.0749268348" lon="29.9680456076"><ele>85.614</ele><time>2026-04-25T11:20:18.000Z</time><hdop>4.687</hdop><vdop>5.25</vdop><extensions><gom:speed>0.103</gom:speed><gom:course>198.987</gom:course><gom:rel_alt>7.121</gom:rel_alt></extensions></trkpt>
   <trkpt lat="59.0749990029" lon="29.9680607789"><ele>85.763</ele><time>2026-04-25T11:20:51.000Z</time><hdop>4.687</hdop><vdop>5.25</vdop><extensions><gom:speed>0.039</gom:speed><gom:course>198.987</gom:course><gom:rel_alt>6.996</gom:rel_alt></extensions></trkpt>
   <trkpt lat="59.0750733923" lon="29.968094055"><ele>86.355</ele><time>2026-04-25T11:20:59.000Z</time><hdop>4.687</hdop><vdop>5.937</vdop><extensions><gom:speed>0.869</gom:speed><gom:course>2.351</gom:course><gom:rel_alt>6.912</gom:rel_alt></extensions></trkpt>
   <trkpt lat="59.075096233" lon="29.9682305962"><ele>83.796</ele><time>2026-04-25T11:21:34.000Z</time><hdop>4.687</hdop><vdop>5.062</vdop><extensions><gom:speed>0.513</gom:speed><gom:course>47.099</gom:course><gom:rel_alt>5.62</gom:rel_alt></extensions></trkpt>
   <trkpt lat="59.0751683593" lon="29.9682660517"><ele>83.474</ele><time>2026-04-25T11:21:49.000Z</time><hdop>4.687</hdop><vdop>5.437</vdop><extensions><gom:speed>1.112</gom:speed><gom:course>1.268</gom:course><gom:rel_alt>4.359</gom:rel_alt></extensions></trkpt>
   <trkpt lat="59.0752366299" lon="29.9683499545"><ele>82.803</ele><time>2026-04-25T11:21:57.000Z</time><hdop>4.687</hdop><vdop>5.625</vdop><extensions><gom:speed>0.947</gom:speed><gom:course>50.526</gom:course><gom:rel_alt>4.108</gom:rel_alt></extensions></trkpt>
   <trkpt lat="59.0752714148" lon="29.968491944"><ele>85.258</ele><time>2026-04-25T11:22:04.000Z</time><hdop>4.687</hdop><vdop>5.875</vdop><extensions><gom:speed>0.715</gom:speed><gom:course>86.727</gom:course><gom:rel_alt>4.045</gom:rel_alt></extensions></trkpt>
   <trkpt lat="59.0753407331" lon="29.9685393855"><ele>86.617</ele><time>2026-04-25T11:22:17.000Z</time><hdop>4.687</hdop><vdop>5.437</vdop><extensions><gom:speed>0.336</gom:speed><gom:course>359.719</gom:course><gom:rel_alt>4.098</gom:rel_alt></extensions></trkpt>
   <trkpt lat="59.0754112249" lon="29.9685954605"><ele>83.814</ele><time>2026-04-25T11:22:45.000Z</time><hdop>4.687</hdop><vdop>5.312</vdop><extensions><gom:speed>0.094</gom:speed><gom:course>125.756</gom:course><gom:rel_alt>4.592</gom:rel_alt></extensions></trkpt>
   <trkpt lat="59.0754764361" lon="29.9685077019"><ele>83.834</ele><time>2026-04-25T11:23:03.000Z</time><hdop>4.687</hdop><vdop>4.875</vdop><extensions><gom:speed>0.102</gom:speed><gom:course>125.756</gom:course><gom:rel_alt>4.568</gom:rel_alt></extensions></trkpt>
   <trkpt lat="59.0755530886" lon="29.9685412296"><ele>84.873</ele><time>2026-04-25T11:23:13.000Z</time><hdop>4.687</hdop><vdop>5.062</vdop><extensions><gom:speed>0.147</gom:speed><gom:course>125.756</gom:course><gom:rel_alt>4.605</gom:rel_alt></extensions></trkpt>
   <trkpt lat="59.0755909329" lon="29.9686613422"><ele>83.796</ele><time>2026-04-25T11:23:46.000Z</time><hdop>4.687</hdop><vdop>5.187</vdop><extensions><gom:speed>0.237</gom:speed><gom:course>125.756</gom:course><gom:rel_alt>4.901</gom:rel_alt></extensions></trkpt>
   <trkpt lat="59.0756704772" lon="29.9686501943"><ele>83.919</ele><time>2026-04-25T11:24:22.000Z</time><hdop>4.687</hdop><vdop>5.375</vdop><extensions><gom:speed>0.113</gom:speed><gom:course>125.756</gom:course><gom:rel_alt>4.846</gom:rel_alt></extensions></trkpt>
   <trkpt lat="59.0757457048" lon="29.9686227855"><ele>83.824</ele><time>2026-04-25T11:24:30.000Z</time><hdop>4.687</hdop><vdop>6.062</vdop><extensions><gom:speed>0.952</gom:speed><gom:course>341.537</gom:course><gom:rel_alt>4.594</gom:rel_alt></extensions></trkpt>
   <trkpt lat="59.0758200523" lon="29.9686270602"><ele>84.644</ele><time>2026-04-25T11:25:00.000Z</time><hdop>4.687</hdop><vdop>6.062</vdop><extensions><gom:speed>0.655</gom:speed><gom:course>28.641</gom:course><gom:rel_alt>4.904</gom:rel_alt></extensions></trkpt>
   <trkpt lat="59.0758812402" lon="29.9687143159"><ele>86.044</ele><time>2026-04-25T11:25:16.000Z</time><hdop>4.687</hdop><vdop>5.187</vdop><extensions><gom:speed>0.141</gom:speed><gom:course>73.719</gom:course><gom:rel_alt>4.645</gom:rel_alt></extensions></trkpt>
   <trkpt lat="59.0759538693" lon="29.968682297"><ele>85.723</ele><time>2026-04-25T11:25:29.000Z</time><hdop>4.687</hdop><vdop>5.875</vdop><extensions><gom:speed>0.585</gom:speed><gom:course>29.41</gom:course><gom:rel_alt>4.195</gom:rel_alt></extensions></trkpt>
   <trkpt lat="59.0760281749" lon="29.9686760106"><ele>86.437</ele><time>2026-04-25T11:25:38.000Z</time><hdop>4.687</hdop><vdop>5.687</vdop><extensions><gom:speed>0.953</gom:speed><gom:course>6.937</gom:course><gom:rel_alt>4.053</gom:rel_alt></extensions></trkpt>
   <trkpt lat="59.0760985829" lon="29.9687516991"><ele>84.847</ele><time>2026-04-25T11:25:47.000Z</time><hdop>4.687</hdop><vdop>5.812</vdop><extensions><gom:speed>0.599</gom:speed><gom:course>12.041</gom:course><gom:rel_alt>4.04</gom:rel_alt></extensions></trkpt>
   <trkpt lat="59.0761653867" lon="29.9688106239"><ele>85.187</ele><time>2026-04-25T11:25:59.000Z</time><hdop>4.687</hdop><vdop>5.437</vdop><extensions><gom:speed>0.339</gom:speed><gom:course>47.664</gom:course><gom:rel_alt>4.087</gom:rel_alt></extensions></trkpt>
   <trkpt lat="59.0762395665" lon="29.9688404635"><ele>84.259</ele><time>2026-04-25T11:26:15.000Z</time><hdop>4.687</hdop><vdop>6.375</vdop><extensions><gom:speed>0.516</gom:speed><gom:course>3.74</gom:course><gom:rel_alt>3.944</gom:rel_alt></extensions></trkpt>
   <trkpt lat="59.0763165124" lon="29.9688099534"><ele>86.03</ele><time>2026-04-25T11:26:24.000Z</time><hdop>4.687</hdop><vdop>6.062</vdop><extensions><gom:speed>0.622</gom:speed><gom:course>348.178</gom:course><gom:rel_alt>4.177</gom:rel_alt></extensions></trkpt>
   <trkpt lat="59.0763897702" lon="29.968795285"><ele>84.307</ele><time>2026-04-25T11:26:34.000Z</time><hdop>4.687</hdop><vdop>5.812</vdop><extensions><gom:speed>0.724</gom:speed><gom:course>349.365</gom:course><gom:rel_alt>4.153</gom:rel_alt></extensions></trkpt>
   <trkpt lat="59.0764632376" lon="29.9688217719"><ele>84.78</ele><time>2026-04-25T11:26:43.000Z</time><hdop>4.687</hdop><vdop>5.937</vdop><extensions><gom:speed>0.64</gom:speed><gom:course>31.135</gom:course><gom:rel_alt>3.95</gom:rel_alt></extensions></trkpt>
   <trkpt lat="59.076534861" lon="29.9689047527"><ele>84.823</ele><time>2026-04-25T11:27:03.000Z</time><hdop>4.687</hdop><vdop>5.437</vdop><extensions><gom:speed>0.844</gom:speed><gom:course>26.296</gom:course><gom:rel_alt>4.151</gom:rel_alt></extensions></trkpt>
   <trkpt lat="59.0766112201" lon="29.9688991368"><ele>83.71</ele><time>2026-04-25T11:27:17.000Z</time><hdop>4.687</hdop><vdop>6.0</vdop><extensions><gom:speed>0.665</gom:speed><gom:course>27.598</gom:course></extensions></trkpt>
   <trkpt lat="59.0766838493" lon="29.968951859"><ele>83.712</ele><time>2026-04-25T11:27:28.000Z</time><hdop>4.687</hdop><vdop>5.312</vdop><extensions><gom:speed>0.436</gom:speed><gom:course>354.847</gom:course><gom:rel_alt>3.762</gom:rel_alt></extensions></trkpt>
   <trkpt lat="59.0767465459" lon="29.9690289725"><ele>84.082</ele><time>2026-04-25T11:28:04.000Z</time><hdop>4.687</hdop><vdop>5.312</vdop><extensions><gom:speed>0.0</gom:speed><gom:course>182.765</gom:course><gom:rel_alt>4.048</gom:rel_alt></extensions></trkpt>
   <trkpt lat="59.0767909281" lon="29.9689186667"><ele>86.238</ele><time>2026-04-25T11:28:57.000Z</time><hdop>4.687</hdop><vdop>4.875</vdop><extensions><gom:speed>0.068</gom:speed><gom:course>150.948</gom:course><gom:rel_alt>4.264</gom:rel_alt></extensions></trkpt>
   <trkpt lat="59.0768371124" lon="29.9688003142"><ele>86.769</ele><time>2026-04-25T11:29:14.000Z</time><hdop>4.687</hdop><vdop>5.062</vdop><extensions><gom:speed>0.649</gom:speed><gom:course>336.082</gom:course><gom:rel_alt>4.927</gom:rel_alt></extensions></trkpt>
   <trkpt lat="59.076916028" lon="29.9688135576"><ele>85.396</ele><time>2026-04-25T11:29:22.000Z</time><hdop>4.687</hdop><vdop>5.75</vdop><extensions><gom:speed>0.972</gom:speed><gom:course>358.796</gom:course><gom:rel_alt>4.61</gom:rel_alt></extensions></trkpt>
   <trkpt lat="59.0769899983" lon="29.9688308243"><ele>85.082</ele><time>2026-04-25T11:29:30.000Z</time><hdop>4.687</hdop><vdop>6.062</vdop><extensions><gom:speed>0.978</gom:speed><gom:course>1.928</gom:course><gom:rel_alt>4.314</gom:rel_alt></extensions></trkpt>
   <trkpt lat="59.0770347996" lon="29.9689402081"><ele>85.172</ele><time>2026-04-25T11:29:44.000Z</time><hdop>4.687</hdop><vdop>5.312</vdop><extensions><gom:speed>0.773</gom:speed><gom:course>88.474</gom:course></extensions></trkpt>
   <trkpt lat="59.0771032378" lon="29.9689894099"><ele>85.106</ele><time>2026-04-25T11:29:55.000Z</time><hdop>4.687</hdop><vdop>5.812</vdop><extensions><gom:speed>0.832</gom:speed><gom:course>2.373</gom:course><gom:rel_alt>4.354</gom:rel_alt></extensions></trkpt>
   <trkpt lat="59.077179597" lon="29.9690341693"><ele>85.96</ele><time>2026-04-25T11:30:05.000Z</time><hdop>4.687</hdop><vdop>5.437</vdop><extensions><gom:speed>0.826</gom:speed><gom:course>28.762</gom:course><gom:rel_alt>4.808</gom:rel_alt></extensions></trkpt>
   <trkpt lat="59.0772595603" lon="29.9690363486"><ele>85.882</ele><time>2026-04-25T11:30:16.000Z</time><hdop>4.687</hdop><vdop>4.625</vdop><extensions><gom:speed>0.992</gom:speed><gom:course>332.363</gom:course><gom:rel_alt>4.642</gom:rel_alt></extensions></trkpt>
   <trkpt lat="59.0773367996" lon="29.9690450658"><ele>85.743</ele><time>2026-04-25T11:30:27.000Z</time><hdop>4.687</hdop><vdop>5.687</vdop><extensions><gom:speed>0.709</gom:speed><gom:course>359.917</gom:course><gom:rel_alt>5.26</gom:rel_alt></extensions></trkpt>
   <trkpt lat="59.0773458101" lon="29.9691884801"><ele>86.722</ele><time>2026-04-25T11:30:42.000Z</time><hdop>4.687</hdop><vdop>5.0</vdop><extensions><gom:speed>0.56</gom:speed><gom:course>71.247</gom:course><gom:rel_alt>4.663</gom:rel_alt></extensions></trkpt>
   <trkpt lat="59.0774220016" lon="29.9692251929"><ele>83.981</ele><time>2026-04-25T11:31:16.000Z</time><hdop>4.687</hdop><vdop>4.25</vdop><extensions><gom:speed>0.81</gom:speed><gom:course>26.719</gom:course><gom:rel_alt>4.33</gom:rel_alt></extensions></trkpt>
   <trkpt lat="59.0774929544" lon="29.9691630829"><ele>85.157</ele><time>2026-04-25T11:31:25.999Z</time><hdop>4.687</hdop><vdop>4.125</vdop><extensions><gom:speed>0.519</gom:speed><gom:course>351.897</gom:course><gom:rel_alt>4.515</gom:rel_alt></extensions></trkpt>
   <trkpt lat="59.0775617698" lon="29.9691181559"><ele>84.654</ele><time>2026-04-25T11:31:33.999Z</time><hdop>4.687</hdop><vdop>3.937</vdop><extensions><gom:speed>0.901</gom:speed><gom:course>339.131</gom:course><gom:rel_alt>4.631</gom:rel_alt></extensions></trkpt>
   <trkpt lat="59.0776378775" lon="29.9690733128"><ele>83.839</ele><time>2026-04-25T11:31:46.999Z</time><hdop>4.687</hdop><vdop>5.875</vdop><extensions><gom:speed>0.97</gom:speed><gom:course>359.219</gom:course><gom:rel_alt>4.885</gom:rel_alt></extensions></trkpt>
   <trkpt lat="59.0776903063" lon="29.9691811879"><ele>83.481</ele><time>2026-04-25T11:31:56.999Z</time><hdop>4.687</hdop><vdop>5.312</vdop><extensions><gom:speed>0.802</gom:speed><gom:course>35.651</gom:course></extensions></trkpt>
   <trkpt lat="59.0777545536" lon="29.9692495842"><ele>84.098</ele><time>2026-04-25T11:32:06.000Z</time><hdop>4.687</hdop><vdop>5.375</vdop><extensions><gom:speed>0.558</gom:speed><gom:course>29.96</gom:course><gom:rel_alt>4.7</gom:rel_alt></extensions></trkpt>
   <trkpt lat="59.0778193457" lon="29.9693104368"><ele>83.823</ele><time>2026-04-25T11:32:19.000Z</time><hdop>4.687</hdop><vdop>5.125</vdop><extensions><gom:speed>0.719</gom:speed><gom:course>12.085</gom:course><gom:rel_alt>4.679</gom:rel_alt></extensions></trkpt>
   <trkpt lat="59.0778983032" lon="29.9693333194"><ele>84.071</ele><time>2026-04-25T11:32:27.000Z</time><hdop>4.687</hdop><vdop>4.937</vdop><extensions><gom:speed>0.837</gom:speed><gom:course>15.221</gom:course><gom:rel_alt>4.737</gom:rel_alt></extensions></trkpt>
   <trkpt lat="59.0779782247" lon="29.9693607282"><ele>86.203</ele><time>2026-04-25T11:33:10.000Z</time><hdop>4.687</hdop><vdop>5.25</vdop><extensions><gom:speed>0.722</gom:speed><gom:course>10.14</gom:course></extensions></trkpt>
   <trkpt lat="59.078050351" lon="29.9693601415"><ele>86.048</ele><time>2026-04-25T11:33:43.999Z</time><hdop>4.687</hdop><vdop>4.687</vdop><extensions><gom:speed>0.114</gom:speed><gom:course>354.391</gom:course><gom:rel_alt>4.753</gom:rel_alt></extensions></trkpt>
   <trkpt lat="59.0781065516" lon="29.9694477324"><ele>85.717</ele><time>2026-04-25T11:34:01.000Z</time><hdop>4.687</hdop><vdop>5.312</vdop><extensions><gom:speed>0.664</gom:speed><gom:course>354.759</gom:course><gom:rel_alt>4.705</gom:rel_alt></extensions></trkpt>
   <trkpt lat="59.0781441445" lon="29.9693265301"><ele>85.408</ele><time>2026-04-25T11:34:13.000Z</time><hdop>4.687</hdop><vdop>6.0</vdop><extensions><gom:speed>0.712</gom:speed><gom:course>302.859</gom:course><gom:rel_alt>4.972</gom:rel_alt></extensions></trkpt>
   <trkpt lat="59.0780787237" lon="29.9694083374"><ele>86.046</ele><time>2026-04-25T11:34:33.000Z</time><hdop>4.687</hdop><vdop>5.125</vdop><extensions><gom:speed>0.065</gom:speed><gom:course>353.836</gom:course><gom:rel_alt>4.943</gom:rel_alt></extensions></trkpt>
   <trkpt lat="59.0780671986" lon="29.9695478123"><ele>87.175</ele><time>2026-04-25T11:37:43.000Z</time><hdop>4.687</hdop><vdop>4.625</vdop><extensions><gom:speed>0.0</gom:speed><gom:course>349.452</gom:course><gom:rel_alt>5.591</gom:rel_alt></extensions></trkpt>
   <trkpt lat="59.0781205494" lon="29.9694510851"><ele>88.805</ele><time>2026-04-25T11:40:02.000Z</time><hdop>4.687</hdop><vdop>4.937</vdop><extensions><gom:speed>0.519</gom:speed><gom:course>334.527</gom:course></extensions></trkpt>
   <trkpt lat="59.0781594834" lon="29.9693197407"><ele>87.547</ele><time>2026-04-25T11:40:12.000Z</time><hdop>4.687</hdop><vdop>5.5</vdop><extensions><gom:speed>0.796</gom:speed><gom:course>300.315</gom:course><gom:rel_alt>6.143</gom:rel_alt></extensions></trkpt>
   <trkpt lat="59.0782259518" lon="29.9692662642"><ele>87.014</ele><time>2026-04-25T11:40:21.000Z</time><hdop>4.687</hdop><vdop>5.562</vdop><extensions><gom:speed>0.831</gom:speed><gom:course>355.198</gom:course><gom:rel_alt>6.079</gom:rel_alt></extensions></trkpt>
   <trkpt lat="59.0783001736" lon="29.9692984507"><ele>85.932</ele><time>2026-04-25T11:40:30.000Z</time><hdop>4.687</hdop><vdop>5.625</vdop><extensions><gom:speed>1.186</gom:speed><gom:course>9.541</gom:course><gom:rel_alt>6.447</gom:rel_alt></extensions></trkpt>
   <trkpt lat="59.0783789216" lon="29.9693194054"><ele>85.785</ele><time>2026-04-25T11:40:38.000Z</time><hdop>4.687</hdop><vdop>5.75</vdop><extensions><gom:speed>1.165</gom:speed><gom:course>2.219</gom:course><gom:rel_alt>6.291</gom:rel_alt></extensions></trkpt>
   <trkpt lat="59.0784526823" lon="29.969361315"><ele>84.994</ele><time>2026-04-25T11:40:45.000Z</time><hdop>4.687</hdop><vdop>5.375</vdop><extensions><gom:speed>0.997</gom:speed><gom:course>13.936</gom:course><gom:rel_alt>5.984</gom:rel_alt></extensions></trkpt>
   <trkpt lat="59.0785305921" lon="29.9693925795"><ele>85.003</ele><time>2026-04-25T11:40:52.000Z</time><hdop>4.687</hdop><vdop>5.75</vdop><extensions><gom:speed>1.158</gom:speed><gom:course>19.034</gom:course><gom:rel_alt>5.85</gom:rel_alt></extensions></trkpt>
   <trkpt lat="59.078602886" lon="29.9694276996"><ele>84.527</ele><time>2026-04-25T11:41:00.000Z</time><hdop>4.687</hdop><vdop>5.875</vdop><extensions><gom:speed>1.019</gom:speed><gom:course>27.861</gom:course><gom:rel_alt>5.852</gom:rel_alt></extensions></trkpt>
   <trkpt lat="59.0786807958" lon="29.9694476486"><ele>86.334</ele><time>2026-04-25T11:41:07.000Z</time><hdop>4.687</hdop><vdop>6.0</vdop><extensions><gom:speed>1.044</gom:speed><gom:course>9.569</gom:course><gom:rel_alt>6.13</gom:rel_alt></extensions></trkpt>
   <trkpt lat="59.0787533412" lon="29.9694693577"><ele>86.857</ele><time>2026-04-25T11:41:14.000Z</time><hdop>4.687</hdop><vdop>5.875</vdop><extensions><gom:speed>1.098</gom:speed><gom:course>10.382</gom:course><gom:rel_alt>6.037</gom:rel_alt></extensions></trkpt>
   <trkpt lat="59.0788262637" lon="29.9694949225"><ele>87.676</ele><time>2026-04-25T11:41:21.000Z</time><hdop>4.687</hdop><vdop>6.25</vdop><extensions><gom:speed>0.879</gom:speed><gom:course>14.826</gom:course><gom:rel_alt>5.971</gom:rel_alt></extensions></trkpt>
   <trkpt lat="59.0789018266" lon="29.9695079983"><ele>88.9</ele><time>2026-04-25T11:41:29.000Z</time><hdop>4.687</hdop><vdop>6.187</vdop><extensions><gom:speed>0.75</gom:speed><gom:course>356.094</gom:course><gom:rel_alt>6.132</gom:rel_alt></extensions></trkpt>
   <trkpt lat="59.0789752102" lon="29.9694943358"><ele>89.023</ele><time>2026-04-25T11:41:37.000Z</time><hdop>4.687</hdop><vdop>5.75</vdop><extensions><gom:speed>0.861</gom:speed><gom:course>359.582</gom:course><gom:rel_alt>6.146</gom:rel_alt></extensions></trkpt>
   <trkpt lat="59.0790569337" lon="29.9695157934"><ele>88.734</ele><time>2026-04-25T11:41:46.000Z</time><hdop>4.687</hdop><vdop>5.812</vdop><extensions><gom:speed>0.999</gom:speed><gom:course>5.899</gom:course><gom:rel_alt>6.328</gom:rel_alt></extensions></trkpt>
   <trkpt lat="59.0791324966" lon="29.9695440404"><ele>87.782</ele><time>2026-04-25T11:41:57.000Z</time><hdop>4.687</hdop><vdop>5.812</vdop><extensions><gom:speed>0.984</gom:speed><gom:course>9.431</gom:course><gom:rel_alt>6.365</gom:rel_alt></extensions></trkpt>
   <trkpt lat="59.0792044133" lon="29.9695699405"><ele>86.845</ele><time>2026-04-25T11:42:07.000Z</time><hdop>4.687</hdop><vdop>6.062</vdop><extensions><gom:speed>1.23</gom:speed><gom:course>8.651</gom:course><gom:rel_alt>6.309</gom:rel_alt></extensions></trkpt>
   <trkpt lat="59.0792762043" lon="29.9696143646"><ele>87.181</ele><time>2026-04-25T11:42:18.000Z</time><hdop>4.687</hdop><vdop>5.5</vdop><extensions><gom:speed>1.273</gom:speed><gom:course>17.105</gom:course><gom:rel_alt>6.23</gom:rel_alt></extensions></trkpt>
   <trkpt lat="59.0793562096" lon="29.9696483951"><ele>87.073</ele><time>2026-04-25T11:42:26.000Z</time><hdop>4.687</hdop><vdop>5.5</vdop><extensions><gom:speed>1.108</gom:speed><gom:course>16.661</gom:course><gom:rel_alt>6.209</gom:rel_alt></extensions></trkpt>
   <trkpt lat="59.0794316886" lon="29.9696641531"><ele>87.059</ele><time>2026-04-25T11:42:33.000Z</time><hdop>4.687</hdop><vdop>5.562</vdop><extensions><gom:speed>1.047</gom:speed><gom:course>11.398</gom:course><gom:rel_alt>6.225</gom:rel_alt></extensions></trkpt>
   <trkpt lat="59.0795081735" lon="29.9696816713"><ele>87.386</ele><time>2026-04-25T11:42:41.000Z</time><hdop>4.687</hdop><vdop>5.562</vdop><extensions><gom:speed>0.897</gom:speed><gom:course>6.789</gom:course><gom:rel_alt>6.444</gom:rel_alt></extensions></trkpt>
   <trkpt lat="59.0795860833" lon="29.9697084096"><ele>87.269</ele><time>2026-04-25T11:42:53.000Z</time><hdop>4.687</hdop><vdop>6.0</vdop><extensions><gom:speed>1.021</gom:speed><gom:course>3.103</gom:course><gom:rel_alt>6.352</gom:rel_alt></extensions></trkpt>
   <trkpt lat="59.0796619814" lon="29.9697407637"><ele>87.41</ele><time>2026-04-25T11:43:02.000Z</time><hdop>4.687</hdop><vdop>5.687</vdop><extensions><gom:speed>0.835</gom:speed><gom:course>22.621</gom:course><gom:rel_alt>6.251</gom:rel_alt></extensions></trkpt>
   <trkpt lat="59.0797421124" lon="29.9697514926"><ele>87.776</ele><time>2026-04-25T11:43:12.000Z</time><hdop>4.687</hdop><vdop>5.75</vdop><extensions><gom:speed>0.813</gom:speed><gom:course>356.226</gom:course><gom:rel_alt>6.256</gom:rel_alt></extensions></trkpt>
   <trkpt lat="59.0798157055" lon="29.9697518278"><ele>88.535</ele><time>2026-04-25T11:43:19.000Z</time><hdop>4.687</hdop><vdop>5.875</vdop><extensions><gom:speed>0.86</gom:speed><gom:course>359.461</gom:course><gom:rel_alt>6.383</gom:rel_alt></extensions></trkpt>
   <trkpt lat="59.0798911845" lon="29.9697553482"><ele>86.603</ele><time>2026-04-25T11:43:29.000Z</time><hdop>4.687</hdop><vdop>6.062</vdop><extensions><gom:speed>0.875</gom:speed><gom:course>17.177</gom:course><gom:rel_alt>6.412</gom:rel_alt></extensions></trkpt>
   <trkpt lat="59.079966957" lon="29.9697731179"><ele>86.705</ele><time>2026-04-25T11:43:39.000Z</time><hdop>4.687</hdop><vdop>5.812</vdop><extensions><gom:speed>0.841</gom:speed><gom:course>332.989</gom:course><gom:rel_alt>6.476</gom:rel_alt></extensions></trkpt>
   <trkpt lat="59.0800406758" lon="29.9698284384"><ele>87.181</ele><time>2026-04-25T11:43:54.000Z</time><hdop>4.687</hdop><vdop>5.812</vdop><extensions><gom:speed>1.046</gom:speed><gom:course>24.708</gom:course><gom:rel_alt>6.772</gom:rel_alt></extensions></trkpt>
   <trkpt lat="59.0801165739" lon="29.9698499799"><ele>87.192</ele><time>2026-04-25T11:44:17.000Z</time><hdop>4.687</hdop><vdop>5.375</vdop><extensions><gom:speed>0.676</gom:speed><gom:course>13.892</gom:course><gom:rel_alt>7.155</gom:rel_alt></extensions></trkpt>
   <trkpt lat="59.0801970821" lon="29.9698699288"><ele>86.4</ele><time>2026-04-25T11:44:26.000Z</time><hdop>4.687</hdop><vdop>5.75</vdop><extensions><gom:speed>0.75</gom:speed><gom:course>6.333</gom:course><gom:rel_alt>7.068</gom:rel_alt></extensions></trkpt>
   <trkpt lat="59.0802773807" lon="29.9699252494"><ele>86.766</ele><time>2026-04-25T11:44:34.000Z</time><hdop>4.687</hdop><vdop>5.875</vdop><extensions><gom:speed>1.161</gom:speed><gom:course>27.164</gom:course><gom:rel_alt>7.372</gom:rel_alt></extensions></trkpt>
   <trkpt lat="59.0803530693" lon="29.9699238245"><ele>86.764</ele><time>2026-04-25T11:44:45.000Z</time><hdop>4.687</hdop><vdop>5.75</vdop><extensions><gom:speed>0.899</gom:speed><gom:course>346.266</gom:course><gom:rel_alt>7.414</gom:rel_alt></extensions></trkpt>
   <trkpt lat="59.0804258242" lon="29.9699695059"><ele>87.176</ele><time>2026-04-25T11:44:52.000Z</time><hdop>4.687</hdop><vdop>5.625</vdop><extensions><gom:speed>0.981</gom:speed><gom:course>26.29</gom:course><gom:rel_alt>7.274</gom:rel_alt></extensions></trkpt>
   <trkpt lat="59.0804982439" lon="29.9699712661"><ele>87.944</ele><time>2026-04-25T11:44:59.000Z</time><hdop>4.687</hdop><vdop>6.125</vdop><extensions><gom:speed>1.142</gom:speed><gom:course>5.537</gom:course><gom:rel_alt>7.118</gom:rel_alt></extensions></trkpt>
   <trkpt lat="59.0805726752" lon="29.9700132594"><ele>88.939</ele><time>2026-04-25T11:45:07.000Z</time><hdop>4.687</hdop><vdop>6.062</vdop><extensions><gom:speed>0.859</gom:speed><gom:course>33.898</gom:course><gom:rel_alt>7.181</gom:rel_alt></extensions></trkpt>
   <trkpt lat="59.0806428736" lon="29.9700551689"><ele>89.318</ele><time>2026-04-25T11:45:26.000Z</time><hdop>4.687</hdop><vdop>5.75</vdop><extensions><gom:speed>0.799</gom:speed><gom:course>351.298</gom:course></extensions></trkpt>
   <trkpt lat="59.0807212025" lon="29.9700447753"><ele>88.563</ele><time>2026-04-25T11:45:36.000Z</time><hdop>4.687</hdop><vdop>5.687</vdop><extensions><gom:speed>0.83</gom:speed><gom:course>22.341</gom:course><gom:rel_alt>7.704</gom:rel_alt></extensions></trkpt>
   <trkpt lat="59.0807871681" lon="29.9701072205"><ele>88.206</ele><time>2026-04-25T11:45:45.000Z</time><hdop>4.687</hdop><vdop>5.937</vdop><extensions><gom:speed>0.815</gom:speed><gom:course>9.931</gom:course><gom:rel_alt>7.609</gom:rel_alt></extensions></trkpt>
   <trkpt lat="59.080859001" lon="29.9701476213"><ele>88.011</ele><time>2026-04-25T11:45:54.000Z</time><hdop>4.687</hdop><vdop>6.0</vdop><extensions><gom:speed>0.544</gom:speed><gom:course>29.647</gom:course><gom:rel_alt>7.9</gom:rel_alt></extensions></trkpt>
   <trkpt lat="59.0809336418" lon="29.9701490462"><ele>89.367</ele><time>2026-04-25T11:46:04.999Z</time><hdop>4.687</hdop><vdop>6.0</vdop><extensions><gom:speed>0.835</gom:speed><gom:course>352.463</gom:course><gom:rel_alt>8.029</gom:rel_alt></extensions></trkpt>
   <trkpt lat="59.080998895" lon="29.970208893"><ele>88.491</ele><time>2026-04-25T11:46:13.999Z</time><hdop>4.687</hdop><vdop>5.562</vdop><extensions><gom:speed>0.665</gom:speed><gom:course>22.522</gom:course><gom:rel_alt>8.056</gom:rel_alt></extensions></trkpt>
   <trkpt lat="59.0810730748" lon="29.9702448514"><ele>88.237</ele><time>2026-04-25T11:46:23.999Z</time><hdop>4.687</hdop><vdop>5.562</vdop><extensions><gom:speed>0.632</gom:speed><gom:course>346.041</gom:course><gom:rel_alt>8.037</gom:rel_alt></extensions></trkpt>
   <trkpt lat="59.0811449496" lon="29.970192213"><ele>88.635</ele><time>2026-04-25T11:46:34.000Z</time><hdop>4.687</hdop><vdop>5.687</vdop><extensions><gom:speed>0.759</gom:speed><gom:course>350.606</gom:course><gom:rel_alt>8.236</gom:rel_alt></extensions></trkpt>
   <trkpt lat="59.0812236976" lon="29.9702256568"><ele>85.089</ele><time>2026-04-25T11:46:47.000Z</time><hdop>4.687</hdop><vdop>5.812</vdop><extensions><gom:speed>1.051</gom:speed><gom:course>8.102</gom:course><gom:rel_alt>8.529</gom:rel_alt></extensions></trkpt>
   <trkpt lat="59.0813000148" lon="29.9702398222"><ele>86.711</ele><time>2026-04-25T11:46:55.000Z</time><hdop>4.687</hdop><vdop>5.937</vdop><extensions><gom:speed>0.964</gom:speed><gom:course>28.032</gom:course><gom:rel_alt>8.74</gom:rel_alt></extensions></trkpt>
   <trkpt lat="59.0813760806" lon="29.970238984"><ele>85.806</ele><time>2026-04-25T11:47:06.000Z</time><hdop>4.687</hdop><vdop>5.812</vdop><extensions><gom:speed>0.843</gom:speed><gom:course>15.804</gom:course><gom:rel_alt>8.867</gom:rel_alt></extensions></trkpt>
   <trkpt lat="59.0814408727" lon="29.9703276646"><ele>86.659</ele><time>2026-04-25T11:47:14.000Z</time><hdop>4.687</hdop><vdop>6.062</vdop><extensions><gom:speed>0.839</gom:speed><gom:course>28.487</gom:course><gom:rel_alt>8.812</gom:rel_alt></extensions></trkpt>
   <trkpt lat="59.0815187825" lon="29.9703673948"><ele>87.096</ele><time>2026-04-25T11:47:24.000Z</time><hdop>4.687</hdop><vdop>5.875</vdop><extensions><gom:speed>0.823</gom:speed><gom:course>13.398</gom:course></extensions></trkpt>
   <trkpt lat="59.0815905316" lon="29.970418692"><ele>88.179</ele><time>2026-04-25T11:47:31.000Z</time><hdop>4.687</hdop><vdop>5.812</vdop><extensions><gom:speed>0.933</gom:speed><gom:course>25.23</gom:course><gom:rel_alt>9.234</gom:rel_alt></extensions></trkpt>
   <trkpt lat="59.0816618197" lon="29.9704411555"><ele>88.179</ele><time>2026-04-25T11:47:40.000Z</time><hdop>4.687</hdop><vdop>5.687</vdop><extensions><gom:speed>0.838</gom:speed><gom:course>7.8</gom:course><gom:rel_alt>9.496</gom:rel_alt></extensions></trkpt>
   <trkpt lat="59.0817436271" lon="29.97045113"><ele>88.37</ele><time>2026-04-25T11:47:49.000Z</time><hdop>4.687</hdop><vdop>5.625</vdop><extensions><gom:speed>1.02</gom:speed><gom:course>11.695</gom:course><gom:rel_alt>9.652</gom:rel_alt></extensions></trkpt>
   <trkpt lat="59.0818191899" lon="29.9704534769"><ele>89.484</ele><time>2026-04-25T11:47:56.000Z</time><hdop>4.687</hdop><vdop>5.687</vdop><extensions><gom:speed>0.985</gom:speed><gom:course>5.207</gom:course><gom:rel_alt>9.943</gom:rel_alt></extensions></trkpt>
   <trkpt lat="59.0818898074" lon="29.9705191911"><ele>89.298</ele><time>2026-04-25T11:48:04.000Z</time><hdop>4.687</hdop><vdop>5.687</vdop><extensions><gom:speed>1.087</gom:speed><gom:course>40.759</gom:course><gom:rel_alt>9.781</gom:rel_alt></extensions></trkpt>
   <trkpt lat="59.0819262268" lon="29.970645674"><ele>87.939</ele><time>2026-04-25T11:48:15.000Z</time><hdop>4.687</hdop><vdop>4.937</vdop><extensions><gom:speed>0.714</gom:speed><gom:course>66.451</gom:course><gom:rel_alt>9.969</gom:rel_alt></extensions></trkpt>
   <trkpt lat="59.0820051005" lon="29.970675765"><ele>89.78</ele><time>2026-04-25T11:48:23.000Z</time><hdop>4.687</hdop><vdop>6.0</vdop><extensions><gom:speed>1.118</gom:speed><gom:course>0.027</gom:course><gom:rel_alt>9.839</gom:rel_alt></extensions></trkpt>
   <trkpt lat="59.0820816273" lon="29.9706890922"><ele>90.047</ele><time>2026-04-25T11:48:31.000Z</time><hdop>4.687</hdop><vdop>5.5</vdop><extensions><gom:speed>0.925</gom:speed><gom:course>16.21</gom:course><gom:rel_alt>9.961</gom:rel_alt></extensions></trkpt>
   <trkpt lat="59.0821515324" lon="29.9707247153"><ele>91.212</ele><time>2026-04-25T11:48:48.000Z</time><hdop>4.687</hdop><vdop>5.0</vdop><extensions><gom:speed>0.516</gom:speed><gom:rel_alt>9.94</gom:rel_alt></extensions></trkpt>
   <trkpt lat="59.0822280172" lon="29.9707670439"><ele>91.072</ele><time>2026-04-25T11:48:55.000Z</time><hdop>4.687</hdop><vdop>5.187</vdop><extensions><gom:speed>0.346</gom:speed><gom:rel_alt>10.051</gom:rel_alt></extensions></trkpt>
   <trkpt lat="59.0822997244" lon="29.9708221969"><ele>90.708</ele><time>2026-04-25T11:49:02.000Z</time><hdop>4.687</hdop><vdop>5.75</vdop><extensions><gom:speed>1.08</gom:speed><gom:course>22.115</gom:course><gom:rel_alt>10.238</gom:rel_alt></extensions></trkpt>
   <trkpt lat="59.082368456" lon="29.9708770983"><ele>92.292</ele><time>2026-04-25T11:49:10.000Z</time><hdop>4.687</hdop><vdop>5.875</vdop><extensions><gom:speed>0.701</gom:speed><gom:course>13.211</gom:course><gom:rel_alt>10.281</gom:rel_alt></extensions></trkpt>
   <trkpt lat="59.0824420072" lon="29.9708954547"><ele>90.71</ele><time>2026-04-25T11:49:23.000Z</time><hdop>4.687</hdop><vdop>5.562</vdop><extensions><gom:speed>0.997</gom:speed><gom:course>14.892</gom:course><gom:rel_alt>10.334</gom:rel_alt></extensions></trkpt>
   <trkpt lat="59.0825190369" lon="29.970906435"><ele>90.84</ele><time>2026-04-25T11:49:30.000Z</time><hdop>4.687</hdop><vdop>5.687</vdop><extensions><gom:speed>1.254</gom:speed><gom:course>8.311</gom:course><gom:rel_alt>10.709</gom:rel_alt></extensions></trkpt>
   <trkpt lat="59.0825871399" lon="29.9709545471"><ele>89.822</ele><time>2026-04-25T11:49:38.000Z</time><hdop>4.687</hdop><vdop>5.5</vdop><extensions><gom:speed>1.0</gom:speed><gom:course>15.408</gom:course><gom:rel_alt>10.653</gom:rel_alt></extensions></trkpt>
   <trkpt lat="59.0826653011" lon="29.9710081075"><ele>89.695</ele><time>2026-04-25T11:49:46.000Z</time><hdop>4.687</hdop><vdop>5.562</vdop><extensions><gom:speed>1.113</gom:speed><gom:course>20.885</gom:course><gom:rel_alt>10.693</gom:rel_alt></extensions></trkpt>
   <trkpt lat="59.0827379722" lon="29.9710635957"><ele>88.757</ele><time>2026-04-25T11:49:54.000Z</time><hdop>4.687</hdop><vdop>5.437</vdop><extensions><gom:speed>1.021</gom:speed><gom:course>19.852</gom:course><gom:rel_alt>10.87</gom:rel_alt></extensions></trkpt>
   <trkpt lat="59.0828059076" lon="29.9711182457"><ele>89.081</ele><time>2026-04-25T11:50:01.000Z</time><hdop>4.687</hdop><vdop>5.687</vdop><extensions><gom:speed>0.963</gom:speed><gom:course>30.948</gom:course><gom:rel_alt>10.97</gom:rel_alt></extensions></trkpt>
   <trkpt lat="59.0828773214" lon="29.9712092732"><ele>89.892</ele><time>2026-04-25T11:50:09.000Z</time><hdop>4.687</hdop><vdop>5.5</vdop><extensions><gom:speed>1.108</gom:speed><gom:course>39.265</gom:course><gom:rel_alt>11.095</gom:rel_alt></extensions></trkpt>
   <trkpt lat="59.0829281157" lon="29.9713299726"><ele>89.833</ele><time>2026-04-25T11:50:21.000Z</time><hdop>4.687</hdop><vdop>5.5</vdop><extensions><gom:speed>0.451</gom:speed><gom:course>59.678</gom:course><gom:rel_alt>11.261</gom:rel_alt></extensions></trkpt>
   <trkpt lat="59.0830080791" lon="29.9713354208"><ele>90.055</ele><time>2026-04-25T11:50:41.000Z</time><hdop>4.687</hdop><vdop>5.375</vdop><extensions><gom:speed>1.194</gom:speed><gom:course>10.81</gom:course><gom:rel_alt>12.173</gom:rel_alt></extensions></trkpt>
   <trkpt lat="59.083085444" lon="29.9713640869"><ele>89.822</ele><time>2026-04-25T11:50:49.000Z</time><hdop>4.687</hdop><vdop>5.312</vdop><extensions><gom:speed>1.128</gom:speed><gom:course>14.787</gom:course></extensions></trkpt>
   <trkpt lat="59.0831608812" lon="29.9714170605"><ele>89.922</ele><time>2026-04-25T11:50:57.000Z</time><hdop>4.687</hdop><vdop>5.312</vdop><extensions><gom:speed>0.961</gom:speed><gom:course>23.835</gom:course><gom:rel_alt>12.093</gom:rel_alt></extensions></trkpt>
   <trkpt lat="59.0832360249" lon="29.9714556173"><ele>90.267</ele><time>2026-04-25T11:51:05.000Z</time><hdop>4.687</hdop><vdop>5.375</vdop><extensions><gom:speed>0.933</gom:speed><gom:course>20.995</gom:course><gom:rel_alt>11.816</gom:rel_alt></extensions></trkpt>
   <trkpt lat="59.0833141023" lon="29.9714961019"><ele>90.469</ele><time>2026-04-25T11:51:14.000Z</time><hdop>4.687</hdop><vdop>5.5</vdop><extensions><gom:speed>1.002</gom:speed><gom:course>14.282</gom:course><gom:rel_alt>11.829</gom:rel_alt></extensions></trkpt>
   <trkpt lat="59.0833887851" lon="29.971538179"><ele>90.828</ele><time>2026-04-25T11:51:30.000Z</time><hdop>4.687</hdop><vdop>5.0</vdop><extensions><gom:speed>0.653</gom:speed><gom:course>20.528</gom:course><gom:rel_alt>11.753</gom:rel_alt></extensions></trkpt>
   <trkpt lat="59.0834687065" lon="29.9715675995"><ele>91.26</ele><time>2026-04-25T11:51:39.000Z</time><hdop>4.687</hdop><vdop>5.437</vdop><extensions><gom:speed>0.903</gom:speed><gom:course>14.161</gom:course><gom:rel_alt>11.721</gom:rel_alt></extensions></trkpt>
   <trkpt lat="59.0835456105" lon="29.9716050666"><ele>90.519</ele><time>2026-04-25T11:51:48.000Z</time><hdop>4.687</hdop><vdop>5.625</vdop><extensions><gom:speed>1.281</gom:speed><gom:course>18.012</gom:course></extensions></trkpt>
   <trkpt lat="59.0836189522" lon="29.9716264405"><ele>91.763</ele><time>2026-04-25T11:51:57.000Z</time><hdop>4.687</hdop><vdop>5.812</vdop><extensions><gom:speed>0.917</gom:speed><gom:course>9.349</gom:course><gom:rel_alt>11.739</gom:rel_alt></extensions></trkpt>
   <trkpt lat="59.0836961495" lon="29.9716454674"><ele>90.164</ele><time>2026-04-25T11:52:10.000Z</time><hdop>4.687</hdop><vdop>5.562</vdop><extensions><gom:speed>0.901</gom:speed><gom:course>7.13</gom:course><gom:rel_alt>12.152</gom:rel_alt></extensions></trkpt>
   <trkpt lat="59.0837724248" lon="29.9716736306"><ele>91.204</ele><time>2026-04-25T11:52:18.000Z</time><hdop>4.687</hdop><vdop>5.812</vdop><extensions><gom:speed>0.936</gom:speed><gom:course>6.965</gom:course><gom:rel_alt>12.294</gom:rel_alt></extensions></trkpt>
   <trkpt lat="59.0838450959" lon="29.9716969323"><ele>90.817</ele><time>2026-04-25T11:52:36.000Z</time><hdop>4.687</hdop><vdop>5.062</vdop><extensions><gom:speed>0.18</gom:speed><gom:course>17.853</gom:course><gom:rel_alt>12.809</gom:rel_alt></extensions></trkpt>
   <trkpt lat="59.0839196948" lon="29.9716792465"><ele>91.58</ele><time>2026-04-25T11:52:46.000Z</time><hdop>4.687</hdop><vdop>5.625</vdop><extensions><gom:speed>0.727</gom:speed><gom:course>6.657</gom:course><gom:rel_alt>13.314</gom:rel_alt></extensions></trkpt>
   <trkpt lat="59.0839931203" lon="29.9716972676"><ele>92.263</ele><time>2026-04-25T11:53:10.000Z</time><hdop>4.687</hdop><vdop>5.187</vdop><extensions><gom:speed>0.793</gom:speed><gom:course>8.866</gom:course><gom:rel_alt>14.236</gom:rel_alt></extensions></trkpt>
   <trkpt lat="59.0840680126" lon="29.9716904782"><ele>92.162</ele><time>2026-04-25T11:53:19.000Z</time><hdop>4.687</hdop><vdop>5.437</vdop><extensions><gom:speed>0.623</gom:speed><gom:course>18.232</gom:course><gom:rel_alt>13.922</gom:rel_alt></extensions></trkpt>
   <trkpt lat="59.0841411028" lon="29.9717316334"><ele>91.772</ele><time>2026-04-25T11:53:26.000Z</time><hdop>4.687</hdop><vdop>5.5</vdop><extensions><gom:speed>1.137</gom:speed><gom:course>12.255</gom:course><gom:rel_alt>13.718</gom:rel_alt></extensions></trkpt>
   <trkpt lat="59.0842130196" lon="29.9717661668"><ele>91.912</ele><time>2026-04-25T11:53:33.000Z</time><hdop>4.687</hdop><vdop>5.75</vdop><extensions><gom:speed>0.942</gom:speed><gom:course>11.761</gom:course><gom:rel_alt>13.526</gom:rel_alt></extensions></trkpt>
   <trkpt lat="59.0842802005" lon="29.9718530871"><ele>91.871</ele><time>2026-04-25T11:53:42.000Z</time><hdop>4.687</hdop><vdop>6.062</vdop><extensions><gom:speed>0.902</gom:speed><gom:course>38.71</gom:course><gom:rel_alt>13.732</gom:rel_alt></extensions></trkpt>
   <trkpt lat="59.0843300309" lon="29.9719611299"><ele>92.285</ele><time>2026-04-25T11:53:58.000Z</time><hdop>4.687</hdop><vdop>5.125</vdop><extensions><gom:speed>0.884</gom:speed><gom:course>35.64</gom:course><gom:rel_alt>13.998</gom:rel_alt></extensions></trkpt>
   <trkpt lat="59.0843636004" lon="29.9721005209"><ele>89.354</ele><time>2026-04-25T11:54:14.000Z</time><hdop>4.687</hdop><vdop>5.375</vdop><extensions><gom:speed>0.545</gom:speed><gom:course>94.45</gom:course><gom:rel_alt>11.734</gom:rel_alt></extensions></trkpt>
   <trkpt lat="59.0843444897" lon="29.9722356372"><ele>90.605</ele><time>2026-04-25T11:54:49.000Z</time><hdop>4.687</hdop><vdop>4.5</vdop><extensions><gom:speed>0.032</gom:speed><gom:course>124.032</gom:course><gom:rel_alt>8.109</gom:rel_alt></extensions></trkpt>
   <trkpt lat="59.0843923923" lon="29.9721246608"><ele>91.455</ele><time>2026-04-25T11:55:26.000Z</time><hdop>4.687</hdop><vdop>4.375</vdop><extensions><gom:speed>0.277</gom:speed><gom:rel_alt>9.509</gom:rel_alt></extensions></trkpt>
   <trkpt lat="59.0843509019" lon="29.972005554"><ele>92.352</ele><time>2026-04-25T11:55:33.000Z</time><hdop>4.687</hdop><vdop>4.5</vdop><extensions><gom:speed>0.694</gom:speed><gom:course>235.891</gom:course><gom:rel_alt>11.052</gom:rel_alt></extensions></trkpt>
   <trkpt lat="59.0842959585" lon="29.9719084915"><ele>90.186</ele><time>2026-04-25T11:55:44.000Z</time><hdop>4.687</hdop><vdop>4.875</vdop><extensions><gom:speed>1.089</gom:speed><gom:course>209.237</gom:course><gom:rel_alt>13.47</gom:rel_alt></extensions></trkpt>
   <trkpt lat="59.0842305796" lon="29.9719982617"><ele>87.615</ele><time>2026-04-25T11:55:58.000Z</time><hdop>4.687</hdop><vdop>4.375</vdop><extensions><gom:speed>0.291</gom:speed><gom:course>104.662</gom:course></extensions></trkpt>
   <trkpt lat="59.0841939926" lon="29.9721332103"><ele>88.039</ele><time>2026-04-25T11:56:31.000Z</time><hdop>4.687</hdop><vdop>4.75</vdop><extensions><gom:speed>0.819</gom:speed><gom:course>118.417</gom:course><gom:rel_alt>9.393</gom:rel_alt></extensions></trkpt>
   <trkpt lat="59.0841170049" lon="29.9721064721"><ele>89.564</ele><time>2026-04-25T11:56:40.999Z</time><hdop>4.687</hdop><vdop>3.0</vdop><extensions><gom:speed>0.772</gom:speed><gom:course>184.869</gom:course></extensions></trkpt>
   <trkpt lat="59.0841202738" lon="29.9722518143"><ele>90.011</ele><time>2026-04-25T11:56:51.000Z</time><hdop>4.687</hdop><vdop>4.312</vdop><extensions><gom:speed>0.0</gom:speed><gom:course>187.391</gom:course><gom:rel_alt>7.739</gom:rel_alt></extensions></trkpt>
   <trkpt lat="59.0841422763" lon="29.9723864276"><ele>95.123</ele><time>2026-04-25T12:02:20.000Z</time><hdop>4.687</hdop><vdop>4.937</vdop><extensions><gom:speed>0.23</gom:speed><gom:rel_alt>11.644</gom:rel_alt></extensions></trkpt>
   <trkpt lat="59.0841791986" lon="29.9725268245"><ele>96.235</ele><time>2026-04-25T12:02:48.000Z</time><hdop>4.687</hdop><vdop>5.187</vdop><extensions><gom:speed>1.174</gom:speed><gom:course>30.767</gom:course><gom:rel_alt>13.729</gom:rel_alt></extensions></trkpt>
   <trkpt lat="59.084152586" lon="29.9726591748"><ele>94.395</ele><time>2026-04-25T12:03:06.999Z</time><hdop>4.687</hdop><vdop>5.062</vdop><extensions><gom:speed>0.057</gom:speed><gom:course>129.679</gom:course><gom:rel_alt>15.008</gom:rel_alt></extensions></trkpt>
  </trkseg>
  <trkseg>
   <trkpt lat="59.0817211216" lon="29.9713284638"><ele>92.493</ele><time>2026-04-25T12:17:06.999Z</time><hdop>3.5</hdop><vdop>3.0</vdop><extensions><gom:speed>0.709</gom:speed><gom:course>204.958</gom:course></extensions></trkpt>
   <trkpt lat="59.0816517195" lon="29.9712717183"><ele>91.749</ele><time>2026-04-25T12:17:11.000Z</time><hdop>4.687</hdop><vdop>4.0</vdop><extensions><gom:speed>0.799</gom:speed><gom:course>193.708</gom:course><gom:rel_alt>-0.039</gom:rel_alt></extensions></trkpt>
   <trkpt lat="59.0815817306" lon="29.971216733"><ele>91.367</ele><time>2026-04-25T12:17:16.000Z</time><hdop>4.687</hdop><vdop>4.0</vdop><extensions><gom:speed>0.769</gom:speed><gom:course>193.708</gom:course><gom:rel_alt>-0.179</gom:rel_alt></extensions></trkpt>
   <trkpt lat="59.0815149268" lon="29.9711504322"><ele>88.99</ele><time>2026-04-25T12:17:25.000Z</time><hdop>4.687</hdop><vdop>4.0</vdop><extensions><gom:speed>1.079</gom:speed><gom:course>220.075</gom:course><gom:rel_alt>-0.05</gom:rel_alt></extensions></trkpt>
   <trkpt lat="59.0814286351" lon="29.9710865621"><ele>90.24</ele><time>2026-04-25T12:17:31.000Z</time><hdop>4.687</hdop><vdop>4.375</vdop><extensions><gom:speed>1.218</gom:speed><gom:course>194.867</gom:course><gom:rel_alt>-0.232</gom:rel_alt></extensions></trkpt>
   <trkpt lat="59.0813544553" lon="29.9710284755"><ele>90.74</ele><time>2026-04-25T12:17:36.000Z</time><hdop>4.687</hdop><vdop>3.875</vdop><extensions><gom:speed>0.979</gom:speed><gom:course>205.332</gom:course></extensions></trkpt>
   <trkpt lat="59.0812770903" lon="29.9710372765"><ele>92.496</ele><time>2026-04-25T12:17:43.000Z</time><hdop>4.687</hdop><vdop>3.437</vdop><extensions><gom:speed>0.73</gom:speed><gom:course>211.462</gom:course><gom:rel_alt>-0.842</gom:rel_alt></extensions></trkpt>
   <trkpt lat="59.0811977975" lon="29.9709942773"><ele>92.268</ele><time>2026-04-25T12:17:56.000Z</time><hdop>4.687</hdop><vdop>3.625</vdop><extensions><gom:speed>1.186</gom:speed><gom:course>156.041</gom:course><gom:rel_alt>-0.948</gom:rel_alt></extensions></trkpt>
   <trkpt lat="59.0811313709" lon="29.9709288147"><ele>91.095</ele><time>2026-04-25T12:18:03.000Z</time><hdop>4.687</hdop><vdop>3.812</vdop><extensions><gom:speed>0.845</gom:speed><gom:course>205.387</gom:course><gom:rel_alt>-1.255</gom:rel_alt></extensions></trkpt>
   <trkpt lat="59.0810605019" lon="29.9709666171"><ele>90.888</ele><time>2026-04-25T12:18:11.000Z</time><hdop>4.687</hdop><vdop>4.125</vdop><extensions><gom:speed>0.595</gom:speed><gom:course>172.553</gom:course><gom:rel_alt>-1.614</gom:rel_alt></extensions></trkpt>
   <trkpt lat="59.0809895491" lon="29.9709136434"><ele>91.541</ele><time>2026-04-25T12:18:15.000Z</time><hdop>4.687</hdop><vdop>4.375</vdop><extensions><gom:speed>1.395</gom:speed><gom:course>205.051</gom:course><gom:rel_alt>-2.071</gom:rel_alt></extensions></trkpt>
   <trkpt lat="59.0809100049" lon="29.970886989"><ele>90.635</ele><time>2026-04-25T12:18:23.000Z</time><hdop>4.687</hdop><vdop>5.0</vdop><extensions><gom:speed>0.84</gom:speed><gom:course>199.262</gom:course><gom:rel_alt>-2.317</gom:rel_alt></extensions></trkpt>
   <trkpt lat="59.0808389263" lon="29.970833261"><ele>90.727</ele><time>2026-04-25T12:18:30.000Z</time><hdop>4.687</hdop><vdop>4.625</vdop><extensions><gom:speed>0.969</gom:speed><gom:course>188.088</gom:course><gom:rel_alt>-2.454</gom:rel_alt></extensions></trkpt>
   <trkpt lat="59.0807664648" lon="29.970853629"><ele>91.052</ele><time>2026-04-25T12:18:38.000Z</time><hdop>4.687</hdop><vdop>4.375</vdop><extensions><gom:speed>0.793</gom:speed><gom:course>175.619</gom:course><gom:rel_alt>-2.404</gom:rel_alt></extensions></trkpt>
   <trkpt lat="59.0806865852" lon="29.970840637"><ele>91.279</ele><time>2026-04-25T12:18:47.000Z</time><hdop>4.687</hdop><vdop>4.75</vdop><extensions><gom:speed>0.758</gom:speed><gom:course>182.233</gom:course><gom:rel_alt>-2.438</gom:rel_alt></extensions></trkpt>
   <trkpt lat="59.0806120701" lon="29.9707888369"><ele>90.155</ele><time>2026-04-25T12:18:54.000Z</time><hdop>4.687</hdop><vdop>4.75</vdop><extensions><gom:speed>1.027</gom:speed><gom:course>184.073</gom:course><gom:rel_alt>-2.401</gom:rel_alt></extensions></trkpt>
   <trkpt lat="59.0805391476" lon="29.9708000686"><ele>90.912</ele><time>2026-04-25T12:19:02.000Z</time><hdop>4.687</hdop><vdop>4.75</vdop><extensions><gom:speed>1.17</gom:speed><gom:course>175.904</gom:course><gom:rel_alt>-2.219</gom:rel_alt></extensions></trkpt>
   <trkpt lat="59.0804577174" lon="29.9708203528"><ele>91.826</ele><time>2026-04-25T12:19:10.000Z</time><hdop>4.687</hdop><vdop>4.937</vdop><extensions><gom:speed>1.258</gom:speed><gom:course>179.041</gom:course><gom:rel_alt>-2.385</gom:rel_alt></extensions></trkpt>
   <trkpt lat="59.0803858007" lon="29.9708510306"><ele>92.158</ele><time>2026-04-25T12:19:16.000Z</time><hdop>4.687</hdop><vdop>3.687</vdop><extensions><gom:speed>0.748</gom:speed><gom:course>190.049</gom:course><gom:rel_alt>-2.602</gom:rel_alt></extensions></trkpt>
   <trkpt lat="59.0803132972" lon="29.9708201014"><ele>95.839</ele><time>2026-04-25T12:20:06.000Z</time><hdop>4.687</hdop><vdop>4.437</vdop><extensions><gom:speed>0.02</gom:speed><gom:course>95.67</gom:course><gom:rel_alt>-2.354</gom:rel_alt></extensions></trkpt>
   <trkpt lat="59.0802591501" lon="29.9709418066"><ele>92.617</ele><time>2026-04-25T12:20:19.000Z</time><hdop>4.687</hdop><vdop>4.812</vdop><extensions><gom:speed>0.578</gom:speed><gom:course>142.615</gom:course><gom:rel_alt>-2.362</gom:rel_alt></extensions></trkpt>
   <trkpt lat="59.0801752472" lon="29.9709815368"><ele>92.974</ele><time>2026-04-25T12:20:26.000Z</time><hdop>4.687</hdop><vdop>4.25</vdop><extensions><gom:speed>0.962</gom:speed><gom:course>190.972</gom:course><gom:rel_alt>-2.895</gom:rel_alt></extensions></trkpt>
   <trkpt lat="59.0801000197" lon="29.9710067664"><ele>92.967</ele><time>2026-04-25T12:20:31.000Z</time><hdop>4.687</hdop><vdop>4.5</vdop><extensions><gom:speed>1.264</gom:speed><gom:course>165.379</gom:course><gom:rel_alt>-3.178</gom:rel_alt></extensions></trkpt>
   <trkpt lat="59.0800218165" lon="29.9709955346"><ele>92.695</ele><time>2026-04-25T12:20:39.000Z</time><hdop>4.687</hdop><vdop>4.187</vdop><extensions><gom:speed>1.184</gom:speed><gom:course>163.435</gom:course><gom:rel_alt>-3.35</gom:rel_alt></extensions></trkpt>
   <trkpt lat="59.0799419789" lon="29.9710246198"><ele>90.114</ele><time>2026-04-25T12:20:51.000Z</time><hdop>4.687</hdop><vdop>3.937</vdop><extensions><gom:speed>0.933</gom:speed><gom:course>178.915</gom:course><gom:rel_alt>-3.199</gom:rel_alt></extensions></trkpt>
   <trkpt lat="59.079862267" lon="29.9710734863"><ele>92.101</ele><time>2026-04-25T12:20:57.000Z</time><hdop>4.687</hdop><vdop>3.812</vdop><extensions><gom:speed>0.514</gom:speed><gom:course>169.708</gom:course><gom:rel_alt>-3.038</gom:rel_alt></extensions></trkpt>
   <trkpt lat="59.0797904341" lon="29.9710544594"><ele>90.931</ele><time>2026-04-25T12:21:06.000Z</time><hdop>4.687</hdop><vdop>4.562</vdop><extensions><gom:speed>1.012</gom:speed><gom:course>172.405</gom:course><gom:rel_alt>-3.22</gom:rel_alt></extensions></trkpt>
   <trkpt lat="59.0797292881" lon="29.9711518571"><ele>92.011</ele><time>2026-04-25T12:21:24.000Z</time><hdop>4.687</hdop><vdop>4.812</vdop><extensions><gom:speed>0.693</gom:speed><gom:course>149.833</gom:course><gom:rel_alt>-3.773</gom:rel_alt></extensions></trkpt>
   <trkpt lat="59.0796606822" lon="29.9712504283"><ele>93.525</ele><time>2026-04-25T12:21:35.000Z</time><hdop>4.687</hdop><vdop>4.687</vdop><extensions><gom:speed>0.463</gom:speed><gom:course>167.016</gom:course><gom:rel_alt>-3.421</gom:rel_alt></extensions></trkpt>
   <trkpt lat="59.079573217" lon="29.9712378554"><ele>93.866</ele><time>2026-04-25T12:21:42.000Z</time><hdop>4.687</hdop><vdop>4.625</vdop><extensions><gom:speed>1.358</gom:speed><gom:course>178.623</gom:course><gom:rel_alt>-3.363</gom:rel_alt></extensions></trkpt>
   <trkpt lat="59.0794952234" lon="29.9712489196"><ele>94.834</ele><time>2026-04-25T12:21:49.000Z</time><hdop>4.687</hdop><vdop>4.625</vdop><extensions><gom:speed>1.179</gom:speed><gom:course>185.512</gom:course><gom:rel_alt>-3.775</gom:rel_alt></extensions></trkpt>
   <trkpt lat="59.0794240611" lon="29.9712813575"><ele>94.532</ele><time>2026-04-25T12:21:57.000Z</time><hdop>4.687</hdop><vdop>3.312</vdop><extensions><gom:speed>0.927</gom:speed><gom:course>169.977</gom:course><gom:rel_alt>-3.638</gom:rel_alt></extensions></trkpt>
   <trkpt lat="59.0793438044" lon="29.9713069223"><ele>94.614</ele><time>2026-04-25T12:22:04.000Z</time><hdop>4.687</hdop><vdop>3.187</vdop><extensions><gom:speed>0.828</gom:speed><gom:course>173.636</gom:course><gom:rel_alt>-3.522</gom:rel_alt></extensions></trkpt>
   <trkpt lat="59.079270337" lon="29.9713111133"><ele>96.353</ele><time>2026-04-25T12:22:15.000Z</time><hdop>4.687</hdop><vdop>3.5</vdop><extensions><gom:speed>0.915</gom:speed><gom:course>184.265</gom:course><gom:rel_alt>-2.975</gom:rel_alt></extensions></trkpt>
   <trkpt lat="59.0791819498" lon="29.9713143822"><ele>98.406</ele><time>2026-04-25T12:22:23.000Z</time><hdop>4.687</hdop><vdop>4.437</vdop><extensions><gom:speed>0.782</gom:speed><gom:course>192.038</gom:course><gom:rel_alt>-2.515</gom:rel_alt></extensions></trkpt>
   <trkpt lat="59.0791280961" lon="29.971408511"><ele>97.209</ele><time>2026-04-25T12:22:38.000Z</time><hdop>4.687</hdop><vdop>4.687</vdop><extensions><gom:speed>1.123</gom:speed><gom:course>159.062</gom:course><gom:rel_alt>-2.465</gom:rel_alt></extensions></trkpt>
   <trkpt lat="59.0790533295" lon="29.9713877239"><ele>94.656</ele><time>2026-04-25T12:22:45.000Z</time><hdop>4.687</hdop><vdop>4.375</vdop><extensions><gom:speed>0.405</gom:speed><gom:course>181.612</gom:course><gom:rel_alt>-2.343</gom:rel_alt></extensions></trkpt>
   <trkpt lat="59.078984095" lon="29.9713264522"><ele>96.964</ele><time>2026-04-25T12:23:07.000Z</time><hdop>4.687</hdop><vdop>4.125</vdop><extensions><gom:speed>0.21</gom:speed><gom:course>185.512</gom:course><gom:rel_alt>-1.712</gom:rel_alt></extensions></trkpt>
   <trkpt lat="59.0789221527" lon="29.9712219298"><ele>95.39</ele><time>2026-04-25T12:23:15.000Z</time><hdop>4.687</hdop><vdop>4.187</vdop><extensions><gom:speed>0.864</gom:speed><gom:course>201.283</gom:course></extensions></trkpt>
   <trkpt lat="59.0788858591" lon="29.9710894119"><ele>93.487</ele><time>2026-04-25T12:23:26.000Z</time><hdop>4.687</hdop><vdop>3.0</vdop><extensions><gom:speed>0.465</gom:speed><gom:course>269.8</gom:course><gom:rel_alt>-1.661</gom:rel_alt></extensions></trkpt>
   <trkpt lat="59.0788183428" lon="29.971004168"><ele>93.397</ele><time>2026-04-25T12:23:32.000Z</time><hdop>4.687</hdop><vdop>3.562</vdop><extensions><gom:speed>0.804</gom:speed><gom:course>205.579</gom:course><gom:rel_alt>-1.511</gom:rel_alt></extensions></trkpt>
   <trkpt lat="59.0787433667" lon="29.9710079398"><ele>93.789</ele><time>2026-04-25T12:23:41.000Z</time><hdop>4.687</hdop><vdop>4.75</vdop><extensions><gom:speed>1.096</gom:speed><gom:course>181.365</gom:course><gom:rel_alt>-1.175</gom:rel_alt></extensions></trkpt>
   <trkpt lat="59.0786734197" lon="29.9710515257"><ele>93.22</ele><time>2026-04-25T12:23:50.000Z</time><hdop>4.687</hdop><vdop>4.75</vdop><extensions><gom:speed>0.961</gom:speed><gom:course>176.031</gom:course><gom:rel_alt>-0.871</gom:rel_alt></extensions></trkpt>
   <trkpt lat="59.0785923248" lon="29.9710556329"><ele>94.388</ele><time>2026-04-25T12:23:59.000Z</time><hdop>4.687</hdop><vdop>3.875</vdop><extensions><gom:speed>1.001</gom:speed><gom:course>154.794</gom:course></extensions></trkpt>
   <trkpt lat="59.0785214977" lon="29.9711160664"><ele>94.79</ele><time>2026-04-25T12:24:10.000Z</time><hdop>4.687</hdop><vdop>4.312</vdop><extensions><gom:speed>0.52</gom:speed><gom:course>153.97</gom:course><gom:rel_alt>-1.059</gom:rel_alt></extensions></trkpt>
   <trkpt lat="59.0784522213" lon="29.9711640947"><ele>94.671</ele><time>2026-04-25T12:24:17.000Z</time><hdop>4.687</hdop><vdop>3.687</vdop><extensions><gom:speed>0.934</gom:speed><gom:course>189.033</gom:course><gom:rel_alt>-1.297</gom:rel_alt></extensions></trkpt>
   <trkpt lat="59.0783777062" lon="29.9712132126"><ele>95.218</ele><time>2026-04-25T12:24:25.000Z</time><hdop>4.687</hdop><vdop>4.687</vdop><extensions><gom:speed>0.649</gom:speed><gom:course>177.552</gom:course><gom:rel_alt>-1.471</gom:rel_alt></extensions></trkpt>
   <trkpt lat="59.0783277501" lon="29.9713180703"><ele>95.575</ele><time>2026-04-25T12:24:37.000Z</time><hdop>4.687</hdop><vdop>4.5</vdop><extensions><gom:speed>0.21</gom:speed><gom:course>170.719</gom:course><gom:rel_alt>-1.566</gom:rel_alt></extensions></trkpt>
   <trkpt lat="59.0782386504" lon="29.9712998815"><ele>97.319</ele><time>2026-04-25T12:24:43.000Z</time><hdop>4.687</hdop><vdop>4.812</vdop><extensions><gom:speed>1.459</gom:speed><gom:course>201.184</gom:course><gom:rel_alt>-1.598</gom:rel_alt></extensions></trkpt>
   <trkpt lat="59.0781729363" lon="29.9712420464"><ele>97.699</ele><time>2026-04-25T12:24:51.000Z</time><hdop>4.687</hdop><vdop>4.375</vdop><extensions><gom:speed>0.373</gom:speed><gom:course>225.113</gom:course><gom:rel_alt>-1.656</gom:rel_alt></extensions></trkpt>
   <trkpt lat="59.0781075575" lon="29.9711739015"><ele>95.232</ele><time>2026-04-25T12:25:05.000Z</time><hdop>4.687</hdop><vdop>4.812</vdop><extensions><gom:speed>0.145</gom:speed><gom:course>215.752</gom:course><gom:rel_alt>-1.913</gom:rel_alt></extensions></trkpt>
   <trkpt lat="59.0780345511" lon="29.9711425532"><ele>94.986</ele><time>2026-04-25T12:25:14.000Z</time><hdop>4.687</hdop><vdop>4.312</vdop><extensions><gom:speed>0.603</gom:speed><gom:course>181.348</gom:course><gom:rel_alt>-2.166</gom:rel_alt></extensions></trkpt>
   <trkpt lat="59.077968334" lon="29.9712030705"><ele>94.17</ele><time>2026-04-25T12:25:22.000Z</time><hdop>4.687</hdop><vdop>4.187</vdop><extensions><gom:speed>0.887</gom:speed><gom:course>167.692</gom:course><gom:rel_alt>-2.296</gom:rel_alt></extensions></trkpt>
   <trkpt lat="59.0778997282" lon="29.9712795135"><ele>93.52</ele><time>2026-04-25T12:25:29.999Z</time><hdop>4.687</hdop><vdop>3.875</vdop><extensions><gom:speed>0.703</gom:speed><gom:course>163.045</gom:course><gom:rel_alt>-2.417</gom:rel_alt></extensions></trkpt>
   <trkpt lat="59.0778374925" lon="29.971351514"><ele>93.577</ele><time>2026-04-25T12:25:37.999Z</time><hdop>4.687</hdop><vdop>3.5</vdop><extensions><gom:speed>1.027</gom:speed><gom:course>139.121</gom:course><gom:rel_alt>-2.393</gom:rel_alt></extensions></trkpt>
   <trkpt lat="59.0777655339" lon="29.9713836167"><ele>93.709</ele><time>2026-04-25T12:25:47.000Z</time><hdop>4.687</hdop><vdop>3.875</vdop><extensions><gom:speed>0.853</gom:speed><gom:course>164.275</gom:course><gom:rel_alt>-2.227</gom:rel_alt></extensions></trkpt>
   <trkpt lat="59.0777751312" lon="29.971227881"><ele>93.16</ele><time>2026-04-25T12:26:11.000Z</time><hdop>4.687</hdop><vdop>4.437</vdop><extensions><gom:speed>0.779</gom:speed><gom:course>258.622</gom:course><gom:rel_alt>-2.298</gom:rel_alt></extensions></trkpt>
   <trkpt lat="59.0777237501" lon="29.971121347"><ele>93.088</ele><time>2026-04-25T12:26:18.000Z</time><hdop>4.687</hdop><vdop>3.062</vdop><extensions><gom:speed>0.018</gom:speed><gom:course>306.649</gom:course><gom:rel_alt>-2.362</gom:rel_alt></extensions></trkpt>
   <trkpt lat="59.07763859" lon="29.9710946087"><ele>91.133</ele><time>2026-04-25T12:26:33.000Z</time><hdop>4.687</hdop><vdop>3.875</vdop><extensions><gom:speed>0.779</gom:speed><gom:course>183.716</gom:course><gom:rel_alt>-2.401</gom:rel_alt></extensions></trkpt>
   <trkpt lat="59.0776176771" lon="29.9712312337"><ele>93.425</ele><time>2026-04-25T12:28:24.000Z</time><hdop>4.687</hdop><vdop>4.375</vdop><extensions><gom:speed>0.584</gom:speed><gom:course>124.383</gom:course></extensions></trkpt>
   <trkpt lat="59.077658958" lon="29.9711033259"><ele>90.608</ele><time>2026-04-25T12:28:45.000Z</time><hdop>9.375</hdop><vdop>3.0</vdop><extensions><gom:speed>1.232</gom:speed><gom:course>344.305</gom:course><gom:rel_alt>-2.045</gom:rel_alt></extensions></trkpt>
   <trkpt lat="59.0775766477" lon="29.9710931838"><ele>91.323</ele><time>2026-04-25T12:28:56.000Z</time><hdop>4.687</hdop><vdop>3.25</vdop><extensions><gom:speed>0.959</gom:speed><gom:course>223.36</gom:course><gom:rel_alt>-1.849</gom:rel_alt></extensions></trkpt>
   <trkpt lat="59.0775530107" lon="29.971226959"><ele>89.849</ele><time>2026-04-25T12:29:03.000Z</time><hdop>4.687</hdop><vdop>3.0</vdop><extensions><gom:speed>1.265</gom:speed><gom:course>146.883</gom:course><gom:rel_alt>-1.889</gom:rel_alt></extensions></trkpt>
   <trkpt lat="59.0774920324" lon="29.9713192437"><ele>89.073</ele><time>2026-04-25T12:29:18.000Z</time><hdop>4.687</hdop><vdop>3.75</vdop><extensions><gom:speed>0.579</gom:speed><gom:course>158.309</gom:course><gom:rel_alt>-1.693</gom:rel_alt></extensions></trkpt>
   <trkpt lat="59.0774189841" lon="29.9712873087"><ele>86.473</ele><time>2026-04-25T12:29:39.000Z</time><hdop>4.687</hdop><vdop>3.437</vdop><extensions><gom:speed>1.279</gom:speed><gom:course>174.432</gom:course><gom:rel_alt>-1.841</gom:rel_alt></extensions></trkpt>
   <trkpt lat="59.0773510069" lon="29.9712189123"><ele>88.051</ele><time>2026-04-25T12:29:48.000Z</time><hdop>4.687</hdop><vdop>3.375</vdop><extensions><gom:speed>0.886</gom:speed><gom:course>184.424</gom:course><gom:rel_alt>-1.833</gom:rel_alt></extensions></trkpt>
   <trkpt lat="59.0772744801" lon="29.9712786753"><ele>88.243</ele><time>2026-04-25T12:30:02.000Z</time><hdop>4.687</hdop><vdop>3.437</vdop><extensions><gom:speed>0.722</gom:speed><gom:course>160.875</gom:course><gom:rel_alt>-1.548</gom:rel_alt></extensions></trkpt>
   <trkpt lat="59.0772228476" lon="29.9713862989"><ele>86.535</ele><time>2026-04-25T12:30:13.000Z</time><hdop>4.687</hdop><vdop>3.937</vdop><extensions><gom:speed>0.94</gom:speed><gom:course>130.832</gom:course><gom:rel_alt>-1.661</gom:rel_alt></extensions></trkpt>
   <trkpt lat="59.0771463627" lon="29.9713736423"><ele>85.308</ele><time>2026-04-25T12:30:23.000Z</time><hdop>4.687</hdop><vdop>4.25</vdop><extensions><gom:speed>1.082</gom:speed><gom:course>165.0</gom:course><gom:rel_alt>-1.754</gom:rel_alt></extensions></trkpt>
   <trkpt lat="59.0770674052" lon="29.9713743128"><ele>85.855</ele><time>2026-04-25T12:30:34.000Z</time><hdop>4.687</hdop><vdop>3.5</vdop><extensions><gom:speed>0.381</gom:speed><gom:course>195.488</gom:course><gom:rel_alt>-1.957</gom:rel_alt></extensions></trkpt>
   <trkpt lat="59.0770033255" lon="29.9714429606"><ele>87.63</ele><time>2026-04-25T12:30:50.000Z</time><hdop>4.687</hdop><vdop>3.375</vdop><extensions><gom:speed>0.673</gom:speed><gom:course>130.618</gom:course><gom:rel_alt>-1.857</gom:rel_alt></extensions></trkpt>
   <trkpt lat="59.0769261282" lon="29.9714544438"><ele>88.54</ele><time>2026-04-25T12:31:05.000Z</time><hdop>4.687</hdop><vdop>3.0</vdop><extensions><gom:speed>0.577</gom:speed><gom:course>153.86</gom:course><gom:rel_alt>-1.957</gom:rel_alt></extensions></trkpt>
   <trkpt lat="59.0768498948" lon="29.9714356684"><ele>86.447</ele><time>2026-04-25T12:31:21.000Z</time><hdop>4.687</hdop><vdop>3.187</vdop><extensions><gom:speed>0.733</gom:speed><gom:course>177.448</gom:course></extensions></trkpt>
   <trkpt lat="59.0768089492" lon="29.9715634086"><ele>86.157</ele><time>2026-04-25T12:31:26.000Z</time><hdop>4.687</hdop><vdop>3.312</vdop><extensions><gom:speed>1.494</gom:speed><gom:course>135.37</gom:course><gom:rel_alt>-1.434</gom:rel_alt></extensions></trkpt>
   <trkpt lat="59.0767372839" lon="29.9716425337"><ele>85.994</ele><time>2026-04-25T12:31:38.000Z</time><hdop>4.687</hdop><vdop>4.687</vdop><extensions><gom:speed>0.752</gom:speed><gom:course>137.215</gom:course><gom:rel_alt>-1.788</gom:rel_alt></extensions></trkpt>
   <trkpt lat="59.0766675046" lon="29.9716013786"><ele>84.355</ele><time>2026-04-25T12:32:02.999Z</time><hdop>4.687</hdop><vdop>4.562</vdop><extensions><gom:speed>0.78</gom:speed><gom:course>209.457</gom:course><gom:rel_alt>-1.601</gom:rel_alt></extensions></trkpt>
   <trkpt lat="59.0766343961" lon="29.9714619037"><ele>85.156</ele><time>2026-04-25T12:32:30.000Z</time><hdop>4.687</hdop><vdop>4.375</vdop><extensions><gom:speed>0.697</gom:speed><gom:course>220.334</gom:course><gom:rel_alt>-1.87</gom:rel_alt></extensions></trkpt>
   <trkpt lat="59.0765922351" lon="29.9713434674"><ele>84.689</ele><time>2026-04-25T12:32:38.000Z</time><hdop>4.687</hdop><vdop>4.562</vdop><extensions><gom:speed>0.754</gom:speed><gom:course>229.205</gom:course><gom:rel_alt>-1.762</gom:rel_alt></extensions></trkpt>
   <trkpt lat="59.0766322168" lon="29.9712193314"><ele>84.749</ele><time>2026-04-25T12:32:49.000Z</time><hdop>4.687</hdop><vdop>4.5</vdop><extensions><gom:speed>0.669</gom:speed><gom:course>293.311</gom:course></extensions></trkpt>
   <trkpt lat="59.0765670056" lon="29.971148672"><ele>84.369</ele><time>2026-04-25T12:33:02.000Z</time><hdop>4.687</hdop><vdop>4.437</vdop><extensions><gom:speed>0.392</gom:speed><gom:course>297.36</gom:course><gom:rel_alt>-2.182</gom:rel_alt></extensions></trkpt>
   <trkpt lat="59.0765351124" lon="29.9710126337"><ele>85.947</ele><time>2026-04-25T12:33:12.000Z</time><hdop>4.687</hdop><vdop>4.312</vdop><extensions><gom:speed>0.669</gom:speed><gom:course>260.132</gom:course><gom:rel_alt>-1.77</gom:rel_alt></extensions></trkpt>
   <trkpt lat="59.0764661713" lon="29.9709408846"><ele>86.998</ele><time>2026-04-25T12:33:24.000Z</time><hdop>4.687</hdop><vdop>5.0</vdop><extensions><gom:speed>0.867</gom:speed><gom:course>187.687</gom:course><gom:rel_alt>-1.508</gom:rel_alt></extensions></trkpt>
   <trkpt lat="59.0763939193" lon="29.9709242046"><ele>88.598</ele><time>2026-04-25T12:33:36.000Z</time><hdop>4.687</hdop><vdop>4.187</vdop><extensions><gom:speed>0.642</gom:speed><gom:course>208.073</gom:course><gom:rel_alt>-1.569</gom:rel_alt></extensions></trkpt>
   <trkpt lat="59.0764186459" lon="29.97078649"><ele>86.806</ele><time>2026-04-25T12:33:55.999Z</time><hdop>4.687</hdop><vdop>5.25</vdop><extensions><gom:speed>0.761</gom:speed><gom:course>278.963</gom:course><gom:rel_alt>-1.759</gom:rel_alt></extensions></trkpt>
   <trkpt lat="59.0764576217" lon="29.9706595041"><ele>88.327</ele><time>2026-04-25T12:34:02.999Z</time><hdop>4.687</hdop><vdop>4.937</vdop><extensions><gom:speed>0.822</gom:speed><gom:course>294.915</gom:course></extensions></trkpt>
   <trkpt lat="59.0764018821" lon="29.9705506232"><ele>86.673</ele><time>2026-04-25T12:34:12.000Z</time><hdop>4.687</hdop><vdop>4.5</vdop><extensions><gom:speed>0.268</gom:speed><gom:course>222.91</gom:course><gom:rel_alt>-2.0</gom:rel_alt></extensions></trkpt>
   <trkpt lat="59.0763142074" lon="29.9705160059"><ele>81.737</ele><time>2026-04-25T12:35:19.000Z</time><hdop>4.687</hdop><vdop>3.312</vdop><extensions><gom:speed>1.301</gom:speed><gom:course>223.542</gom:course><gom:rel_alt>-1.918</gom:rel_alt></extensions></trkpt>
   <trkpt lat="59.0762603117" lon="29.970611392"><ele>86.551</ele><time>2026-04-25T12:35:49.000Z</time><hdop>4.687</hdop><vdop>3.0</vdop><extensions><gom:speed>0.917</gom:speed><gom:course>105.959</gom:course><gom:rel_alt>-1.802</gom:rel_alt></extensions></trkpt>
   <trkpt lat="59.0762748543" lon="29.9707492743"><ele>83.612</ele><time>2026-04-25T12:36:06.999Z</time><hdop>4.687</hdop><vdop>3.312</vdop><extensions><gom:speed>0.483</gom:speed><gom:course>88.314</gom:course><gom:rel_alt>-2.613</gom:rel_alt></extensions></trkpt>
   <trkpt lat="59.0762163906" lon="29.9708723206"><ele>83.011</ele><time>2026-04-25T12:36:30.000Z</time><hdop>4.687</hdop><vdop>3.875</vdop><extensions><gom:speed>1.152</gom:speed><gom:course>141.231</gom:course></extensions></trkpt>
   <trkpt lat="59.0761535263" lon="29.9709672876"><ele>84.217</ele><time>2026-04-25T12:36:41.000Z</time><hdop>4.687</hdop><vdop>3.5</vdop><extensions><gom:speed>0.935</gom:speed><gom:course>136.974</gom:course><gom:rel_alt>-1.778</gom:rel_alt></extensions></trkpt>
   <trkpt lat="59.0762201205" lon="29.971048173"><ele>85.116</ele><time>2026-04-25T12:37:05.000Z</time><hdop>4.687</hdop><vdop>3.0</vdop><extensions><gom:speed>0.792</gom:speed><gom:course>59.266</gom:course><gom:rel_alt>-2.0</gom:rel_alt></extensions></trkpt>
   <trkpt lat="59.076146234" lon="29.9710813653"><ele>84.687</ele><time>2026-04-25T12:37:14.000Z</time><hdop>4.687</hdop><vdop>3.562</vdop><extensions><gom:speed>0.848</gom:speed><gom:course>164.517</gom:course><gom:rel_alt>-1.886</gom:rel_alt></extensions></trkpt>
   <trkpt lat="59.0760732277" lon="29.9710133881"><ele>86.028</ele><time>2026-04-25T12:37:42.000Z</time><hdop>4.687</hdop><vdop>3.125</vdop><extensions><gom:speed>1.32</gom:speed><gom:course>214.764</gom:course><gom:rel_alt>-1.585</gom:rel_alt></extensions></trkpt>
   <trkpt lat="59.0760472438" lon="29.9708767631"><ele>85.924</ele><time>2026-04-25T12:38:06.000Z</time><hdop>4.687</hdop><vdop>4.812</vdop><extensions><gom:speed>0.907</gom:speed><gom:course>230.919</gom:course><gom:rel_alt>-1.574</gom:rel_alt></extensions></trkpt>
   <trkpt lat="59.0759601977" lon="29.970811468"><ele>85.524</ele><time>2026-04-25T12:38:13.000Z</time><hdop>4.687</hdop><vdop>3.687</vdop><extensions><gom:speed>1.242</gom:speed><gom:course>203.541</gom:course></extensions></trkpt>
   <trkpt lat="59.0758973753" lon="29.9707330134"><ele>87.202</ele><time>2026-04-25T12:38:25.000Z</time><hdop>4.687</hdop><vdop>4.5</vdop><extensions><gom:speed>0.802</gom:speed><gom:course>214.121</gom:course><gom:rel_alt>-1.384</gom:rel_alt></extensions></trkpt>
   <trkpt lat="59.0758368161" lon="29.970823538"><ele>90.57</ele><time>2026-04-25T12:38:41.000Z</time><hdop>4.687</hdop><vdop>4.437</vdop><extensions><gom:speed>0.646</gom:speed><gom:course>128.97</gom:course><gom:rel_alt>-1.112</gom:rel_alt></extensions></trkpt>
   <trkpt lat="59.0757532904" lon="29.9707520403"><ele>91.384</ele><time>2026-04-25T12:38:49.000Z</time><hdop>4.687</hdop><vdop>4.312</vdop><extensions><gom:speed>0.676</gom:speed><gom:course>247.789</gom:course><gom:rel_alt>-1.181</gom:rel_alt></extensions></trkpt>
   <trkpt lat="59.0756781047" lon="29.970745251"><ele>89.54</ele><time>2026-04-25T12:39:00.000Z</time><hdop>4.687</hdop><vdop>4.437</vdop><extensions><gom:speed>0.644</gom:speed><gom:course>176.767</gom:course><gom:rel_alt>-1.329</gom:rel_alt></extensions></trkpt>
   <trkpt lat="59.0756503606" lon="29.9706138227"><ele>87.704</ele><time>2026-04-25T12:39:08.000Z</time><hdop>4.687</hdop><vdop>4.812</vdop><extensions><gom:speed>0.362</gom:speed><gom:course>274.975</gom:course><gom:rel_alt>-1.249</gom:rel_alt></extensions></trkpt>
   <trkpt lat="59.0755856943" lon="29.97054375"><ele>88.012</ele><time>2026-04-25T12:39:15.000Z</time><hdop>4.687</hdop><vdop>4.75</vdop><extensions><gom:speed>0.484</gom:speed><gom:course>222.663</gom:course><gom:rel_alt>-1.21</gom:rel_alt></extensions></trkpt>
   <trkpt lat="59.0755066529" lon="29.9705697339"><ele>88.204</ele><time>2026-04-25T12:39:25.000Z</time><hdop>4.687</hdop><vdop>5.0</vdop><extensions><gom:speed>0.783</gom:speed><gom:course>184.985</gom:course><gom:rel_alt>-1.461</gom:rel_alt></extensions></trkpt>
   <trkpt lat="59.0754291203" lon="29.9705652915"><ele>88.096</ele><time>2026-04-25T12:39:38.000Z</time><hdop>4.687</hdop><vdop>4.562</vdop><extensions><gom:speed>0.162</gom:speed><gom:course>65.457</gom:course><gom:rel_alt>-1.244</gom:rel_alt></extensions></trkpt>
   <trkpt lat="59.0753665913" lon="29.9706403934"><ele>91.001</ele><time>2026-04-25T12:39:57.000Z</time><hdop>4.687</hdop><vdop>4.687</vdop><extensions><gom:speed>0.253</gom:speed><gom:course>89.88</gom:course><gom:rel_alt>-1.109</gom:rel_alt></extensions></trkpt>
   <trkpt lat="59.0753017992" lon="29.9707081192"><ele>91.534</ele><time>2026-04-25T12:40:32.000Z</time><hdop>4.687</hdop><vdop>3.625</vdop><extensions><gom:speed>0.092</gom:speed><gom:course>68.951</gom:course><gom:rel_alt>-1.49</gom:rel_alt></extensions></trkpt>
   <trkpt lat="59.0752341991" lon="29.9707676307"><ele>90.709</ele><time>2026-04-25T12:40:49.000Z</time><hdop>4.687</hdop><vdop>3.125</vdop><extensions><gom:speed>0.61</gom:speed><gom:course>187.292</gom:course><gom:rel_alt>-1.688</gom:rel_alt></extensions></trkpt>
   <trkpt lat="59.07515784" lon="29.970782299"><ele>89.742</ele><time>2026-04-25T12:40:59.000Z</time><hdop>4.687</hdop><vdop>3.062</vdop><extensions><gom:speed>0.547</gom:speed><gom:course>162.072</gom:course><gom:rel_alt>-1.482</gom:rel_alt></extensions></trkpt>
   <trkpt lat="59.0751009688" lon="29.970890677"><ele>93.325</ele><time>2026-04-25T12:41:20.000Z</time><hdop>4.687</hdop><vdop>5.0</vdop><extensions><gom:speed>0.628</gom:speed><gom:course>116.698</gom:course><gom:rel_alt>-1.379</gom:rel_alt></extensions></trkpt>
   <trkpt lat="59.0750271661" lon="29.9708691355"><ele>90.714</ele><time>2026-04-25T12:41:25.000Z</time><hdop>4.687</hdop><vdop>4.312</vdop><extensions><gom:speed>1.01</gom:speed><gom:course>174.251</gom:course></extensions></trkpt>
   <trkpt lat="59.0749484182" lon="29.9709229473"><ele>91.414</ele><time>2026-04-25T12:41:35.000Z</time><hdop>4.687</hdop><vdop>4.625</vdop><extensions><gom:speed>0.876</gom:speed><gom:course>152.184</gom:course><gom:rel_alt>-1.027</gom:rel_alt></extensions></trkpt>
   <trkpt lat="59.0748722267" lon="29.9709418904"><ele>91.099</ele><time>2026-04-25T12:41:50.000Z</time><hdop>4.687</hdop><vdop>4.5</vdop><extensions><gom:speed>0.617</gom:speed><gom:course>149.773</gom:course><gom:rel_alt>-1.062</gom:rel_alt></extensions></trkpt>
   <trkpt lat="59.0748144334" lon="29.9708568979"><ele>91.496</ele><time>2026-04-25T12:42:07.000Z</time><hdop>4.687</hdop><vdop>4.312</vdop><extensions><gom:speed>0.357</gom:speed><gom:course>226.173</gom:course><gom:rel_alt>-0.885</gom:rel_alt></extensions></trkpt>
   <trkpt lat="59.0747349311" lon="29.9709293176"><ele>89.419</ele><time>2026-04-25T12:42:17.000Z</time><hdop>4.687</hdop><vdop>4.25</vdop><extensions><gom:speed>0.907</gom:speed><gom:course>163.226</gom:course><gom:rel_alt>-0.827</gom:rel_alt></extensions></trkpt>
   <trkpt lat="59.0746620085" lon="29.9708991427"><ele>91.639</ele><time>2026-04-25T12:42:25.000Z</time><hdop>4.687</hdop><vdop>3.0</vdop><extensions><gom:speed>0.799</gom:speed><gom:course>180.337</gom:course><gom:rel_alt>-0.792</gom:rel_alt></extensions></trkpt>
   <trkpt lat="59.0746056821" lon="29.9707966321"><ele>91.053</ele><time>2026-04-25T12:42:30.000Z</time><hdop>4.687</hdop><vdop>3.062</vdop><extensions><gom:speed>0.776</gom:speed><gom:course>232.238</gom:course><gom:rel_alt>-0.734</gom:rel_alt></extensions></trkpt>
   <trkpt lat="59.0746212306" lon="29.970651709"><ele>88.845</ele><time>2026-04-25T12:42:36.000Z</time><hdop>4.687</hdop><vdop>3.25</vdop><extensions><gom:speed>0.878</gom:speed><gom:course>272.915</gom:course><gom:rel_alt>-0.89</gom:rel_alt></extensions></trkpt>
   <trkpt lat="59.0745660776" lon="29.9705522158"><ele>88.34</ele><time>2026-04-25T12:42:42.000Z</time><hdop>4.687</hdop><vdop>3.875</vdop><extensions><gom:speed>0.786</gom:speed><gom:course>255.875</gom:course><gom:rel_alt>-0.837</gom:rel_alt></extensions></trkpt>
   <trkpt lat="59.0745095417" lon="29.9704405688"><ele>89.559</ele><time>2026-04-25T12:42:49.000Z</time><hdop>4.687</hdop><vdop>4.312</vdop><extensions><gom:speed>1.365</gom:speed><gom:course>226.206</gom:course><gom:rel_alt>-1.085</gom:rel_alt></extensions></trkpt>
   <trkpt lat="59.0744377926" lon="29.9704912793"><ele>90.582</ele><time>2026-04-25T12:43:24.000Z</time><hdop>4.687</hdop><vdop>3.0</vdop><extensions><gom:speed>0.188</gom:speed><gom:course>222.438</gom:course><gom:rel_alt>-1.44</gom:rel_alt></extensions></trkpt>
   <trkpt lat="59.074349154" lon="29.9704684805"><ele>89.183</ele><time>2026-04-25T12:43:33.000Z</time><hdop>4.687</hdop><vdop>4.375</vdop><extensions><gom:speed>0.858</gom:speed><gom:course>173.965</gom:course><gom:rel_alt>-0.998</gom:rel_alt></extensions></trkpt>
   <trkpt lat="59.0742691068" lon="29.9704987392"><ele>88.24</ele><time>2026-04-25T12:43:49.000Z</time><hdop>4.687</hdop><vdop>4.625</vdop><extensions><gom:speed>0.77</gom:speed><gom:course>191.066</gom:course><gom:rel_alt>-1.244</gom:rel_alt></extensions></trkpt>
   <trkpt lat="59.0742391834" lon="29.9703677301"><ele>88.343</ele><time>2026-04-25T12:43:55.000Z</time><hdop>4.687</hdop><vdop>4.562</vdop><extensions><gom:speed>0.905</gom:speed><gom:course>252.744</gom:course><gom:rel_alt>-1.162</gom:rel_alt></extensions></trkpt>
   <trkpt lat="59.0741554482" lon="29.9703959771"><ele>88.417</ele><time>2026-04-25T12:44:11.000Z</time><hdop>4.687</hdop><vdop>3.5</vdop><extensions><gom:speed>0.531</gom:speed><gom:course>199.646</gom:course><gom:rel_alt>-0.647</gom:rel_alt></extensions></trkpt>
   <trkpt lat="59.0742316816" lon="29.9703514692"><ele>87.979</ele><time>2026-04-25T12:44:22.999Z</time><hdop>4.687</hdop><vdop>3.062</vdop><extensions><gom:speed>1.107</gom:speed><gom:course>333.5</gom:course><gom:rel_alt>-0.924</gom:rel_alt></extensions></trkpt>
   <trkpt lat="59.0742751837" lon="29.9702360504"><ele>89.085</ele><time>2026-04-25T12:44:28.999Z</time><hdop>4.687</hdop><vdop>3.375</vdop><extensions><gom:speed>0.724</gom:speed><gom:course>314.785</gom:course><gom:rel_alt>-1.136</gom:rel_alt></extensions></trkpt>
   <trkpt lat="59.0742828112" lon="29.9700854276"><ele>89.666</ele><time>2026-04-25T12:44:39.000Z</time><hdop>4.687</hdop><vdop>3.625</vdop><extensions><gom:speed>0.649</gom:speed><gom:course>287.324</gom:course><gom:rel_alt>-1.247</gom:rel_alt></extensions></trkpt>
   <trkpt lat="59.0742299633" lon="29.9699608725"><ele>89.167</ele><time>2026-04-25T12:44:48.000Z</time><hdop>4.687</hdop><vdop>4.687</vdop><extensions><gom:speed>0.758</gom:speed><gom:course>238.143</gom:course><gom:rel_alt>-1.226</gom:rel_alt></extensions></trkpt>
   <trkpt lat="59.0741595972" lon="29.9699027859"><ele>88.036</ele><time>2026-04-25T12:45:00.000Z</time><hdop>4.687</hdop><vdop>4.25</vdop><extensions><gom:speed>0.455</gom:speed><gom:course>215.78</gom:course><gom:rel_alt>-1.495</gom:rel_alt></extensions></trkpt>
   <trkpt lat="59.0740886025" lon="29.9697810807"><ele>90.178</ele><time>2026-04-25T12:45:11.000Z</time><hdop>4.687</hdop><vdop>3.375</vdop><extensions><gom:speed>0.886</gom:speed><gom:course>230.48</gom:course><gom:rel_alt>-1.268</gom:rel_alt></extensions></trkpt>
   <trkpt lat="59.074067061" lon="29.9696263507"><ele>88.825</ele><time>2026-04-25T12:45:30.000Z</time><hdop>4.687</hdop><vdop>4.375</vdop><extensions><gom:speed>0.797</gom:speed><gom:course>257.375</gom:course><gom:rel_alt>-0.869</gom:rel_alt></extensions></trkpt>
   <trkpt lat="59.0740707072" lon="29.9697682564"><ele>88.628</ele><time>2026-04-25T12:45:55.000Z</time><hdop>4.687</hdop><vdop>3.687</vdop><extensions><gom:speed>0.063</gom:speed><gom:course>295.113</gom:course><gom:rel_alt>-1.487</gom:rel_alt></extensions></trkpt>
   <trkpt lat="59.0739940547" lon="29.9697672505"><ele>89.175</ele><time>2026-04-25T12:46:06.000Z</time><hdop>4.687</hdop><vdop>4.125</vdop><extensions><gom:speed>0.217</gom:speed><gom:course>295.113</gom:course><gom:rel_alt>-1.416</gom:rel_alt></extensions></trkpt>
   <trkpt lat="59.0739291787" lon="29.9698286061"><ele>87.301</ele><time>2026-04-25T12:46:28.000Z</time><hdop>4.687</hdop><vdop>4.687</vdop><extensions><gom:speed>0.039</gom:speed><gom:course>295.113</gom:course><gom:rel_alt>-1.165</gom:rel_alt></extensions></trkpt>
   <trkpt lat="59.0738632551" lon="29.9699033726"><ele>87.394</ele><time>2026-04-25T12:46:45.000Z</time><hdop>4.687</hdop><vdop>4.687</vdop><extensions><gom:speed>0.061</gom:speed><gom:course>335.5</gom:course><gom:rel_alt>-1.138</gom:rel_alt></extensions></trkpt>
   <trkpt lat="59.0738023605" lon="29.969988868"><ele>88.62</ele><time>2026-04-25T12:47:09.000Z</time><hdop>4.687</hdop><vdop>4.437</vdop><extensions><gom:speed>0.273</gom:speed><gom:course>335.5</gom:course><gom:rel_alt>-0.969</gom:rel_alt></extensions></trkpt>
   <trkpt lat="59.0737349281" lon="29.9699396663"><ele>91.092</ele><time>2026-04-25T12:47:28.000Z</time><hdop>4.687</hdop><vdop>4.875</vdop><extensions><gom:speed>0.043</gom:speed><gom:course>312.966</gom:course><gom:rel_alt>-0.85</gom:rel_alt></extensions></trkpt>
   <trkpt lat="59.0736581918" lon="29.9699326255"><ele>90.773</ele><time>2026-04-25T12:47:57.000Z</time><hdop>4.687</hdop><vdop>3.125</vdop><extensions><gom:speed>0.412</gom:speed><gom:course>166.45</gom:course><gom:rel_alt>-0.98</gom:rel_alt></extensions></trkpt>
   <trkpt lat="59.0737205951" lon="29.970010661"><ele>90.007</ele><time>2026-04-25T12:49:18.000Z</time><hdop>4.687</hdop><vdop>3.562</vdop><extensions><gom:speed>0.054</gom:speed><gom:course>93.231</gom:course><gom:rel_alt>-0.8</gom:rel_alt></extensions></trkpt>
   <trkpt lat="59.0736724829" lon="29.9698881176"><ele>91.244</ele><time>2026-04-25T12:49:38.000Z</time><hdop>4.687</hdop><vdop>4.562</vdop><extensions><gom:speed>0.0</gom:speed><gom:course>93.231</gom:course><gom:rel_alt>-0.898</gom:rel_alt></extensions></trkpt>
   <trkpt lat="59.0737330003" lon="29.9699729424"><ele>88.519</ele><time>2026-04-25T12:50:49.000Z</time><hdop>4.687</hdop><vdop>4.437</vdop><extensions><gom:speed>0.369</gom:speed><gom:course>147.284</gom:course><gom:rel_alt>-0.85</gom:rel_alt></extensions></trkpt>
   <trkpt lat="59.0736610416" lon="29.9699549213"><ele>88.568</ele><time>2026-04-25T12:51:12.000Z</time><hdop>4.687</hdop><vdop>4.0</vdop><extensions><gom:speed>0.401</gom:speed><gom:course>194.631</gom:course><gom:rel_alt>-1.038</gom:rel_alt></extensions></trkpt>
   <trkpt lat="59.0736199284" lon="29.9700744473"><ele>93.409</ele><time>2026-04-25T12:52:02.000Z</time><hdop>4.687</hdop><vdop>4.125</vdop><extensions><gom:speed>0.243</gom:speed><gom:rel_alt>-0.969</gom:rel_alt></extensions></trkpt>
   <trkpt lat="59.0735452037" lon="29.9700764589"><ele>89.533</ele><time>2026-04-25T12:52:22.000Z</time><hdop>4.687</hdop><vdop>3.0</vdop><extensions><gom:speed>0.36</gom:speed><gom:course>152.761</gom:course><gom:rel_alt>-0.649</gom:rel_alt></extensions></trkpt>
   <trkpt lat="59.0735772226" lon="29.9702115752"><ele>90.008</ele><time>2026-04-25T12:52:32.000Z</time><hdop>4.687</hdop><vdop>3.0</vdop><extensions><gom:speed>0.674</gom:speed><gom:rel_alt>-0.713</gom:rel_alt></extensions></trkpt>
   <trkpt lat="59.0735467963" lon="29.9703474459"><ele>89.801</ele><time>2026-04-25T12:53:03.000Z</time><hdop>4.687</hdop><vdop>4.0</vdop><extensions><gom:speed>0.031</gom:speed><gom:rel_alt>-0.554</gom:rel_alt></extensions></trkpt>
   <trkpt lat="59.0736206409" lon="29.970350631"><ele>88.941</ele><time>2026-04-25T12:53:59.000Z</time><hdop>4.687</hdop><vdop>3.0</vdop><extensions><gom:speed>0.39</gom:speed><gom:course>95.269</gom:course><gom:rel_alt>-0.874</gom:rel_alt></extensions></trkpt>
   <trkpt lat="59.073644655" lon="29.9704885133"><ele>89.533</ele><time>2026-04-25T12:54:11.000Z</time><hdop>4.687</hdop><vdop>3.375</vdop><extensions><gom:speed>0.567</gom:speed><gom:course>96.439</gom:course><gom:rel_alt>-0.42</gom:rel_alt></extensions></trkpt>
   <trkpt lat="59.0736520311" lon="29.9706337717"><ele>89.847</ele><time>2026-04-25T12:54:29.000Z</time><hdop>4.687</hdop><vdop>3.0</vdop><extensions><gom:speed>0.652</gom:speed><gom:course>76.998</gom:course><gom:rel_alt>-0.613</gom:rel_alt></extensions></trkpt>
   <trkpt lat="59.0736439426" lon="29.9704937939"><ele>90.01</ele><time>2026-04-25T12:54:44.000Z</time><hdop>4.687</hdop><vdop>3.0</vdop><extensions><gom:speed>0.155</gom:speed><gom:course>73.351</gom:course><gom:rel_alt>-0.639</gom:rel_alt></extensions></trkpt>
   <trkpt lat="59.073652073" lon="29.9706382141"><ele>92.124</ele><time>2026-04-25T12:55:11.000Z</time><hdop>4.687</hdop><vdop>3.437</vdop><extensions><gom:speed>0.063</gom:speed><gom:course>341.289</gom:course><gom:rel_alt>-0.206</gom:rel_alt></extensions></trkpt>
   <trkpt lat="59.0737078546" lon="29.9707336001"><ele>90.956</ele><time>2026-04-25T12:55:40.000Z</time><hdop>4.687</hdop><vdop>3.5</vdop><extensions><gom:speed>0.385</gom:speed><gom:course>341.603</gom:course></extensions></trkpt>
   <trkpt lat="59.0737066392" lon="29.9708798644"><ele>91.646</ele><time>2026-04-25T12:55:54.000Z</time><hdop>4.687</hdop><vdop>3.062</vdop><extensions><gom:speed>0.179</gom:speed><gom:course>341.603</gom:course></extensions></trkpt>
   <trkpt lat="59.0737486744" lon="29.970995367"><ele>89.493</ele><time>2026-04-25T12:56:16.000Z</time><hdop>4.687</hdop><vdop>5.25</vdop><extensions><gom:speed>0.445</gom:speed><gom:course>50.142</gom:course><gom:rel_alt>-0.232</gom:rel_alt></extensions></trkpt>
   <trkpt lat="59.0736763805" lon="29.971046329"><ele>92.957</ele><time>2026-04-25T12:56:38.000Z</time><hdop>4.687</hdop><vdop>4.125</vdop><extensions><gom:speed>0.274</gom:speed><gom:course>154.948</gom:course><gom:rel_alt>-0.203</gom:rel_alt></extensions></trkpt>
   <trkpt lat="59.073624748" lon="29.9711493425"><ele>91.496</ele><time>2026-04-25T12:56:56.000Z</time><hdop>4.687</hdop><vdop>3.187</vdop><extensions><gom:speed>0.727</gom:speed><gom:course>111.666</gom:course><gom:rel_alt>-0.435</gom:rel_alt></extensions></trkpt>
   <trkpt lat="59.0735463353" lon="29.9711450678"><ele>90.375</ele><time>2026-04-25T12:58:28.000Z</time><hdop>4.75</hdop><vdop>3.0</vdop><extensions><gom:speed>0.301</gom:speed><gom:course>172.927</gom:course><gom:rel_alt>-0.322</gom:rel_alt></extensions></trkpt>
   <trkpt lat="59.0735997699" lon="29.9712509312"><ele>88.441</ele><time>2026-04-25T13:00:43.000Z</time><hdop>4.687</hdop><vdop>3.812</vdop><extensions><gom:speed>0.105</gom:speed><gom:course>156.898</gom:course><gom:rel_alt>0.293</gom:rel_alt></extensions></trkpt>
   <trkpt lat="59.0735548429" lon="29.9710951116"><ele>90.549</ele><time>2026-04-25T13:02:52.000Z</time><hdop>4.687</hdop><vdop>3.875</vdop><extensions><gom:speed>0.13</gom:speed><gom:course>156.898</gom:course><gom:rel_alt>0.438</gom:rel_alt></extensions></trkpt>
   <trkpt lat="59.0735183397" lon="29.9712234386"><ele>91.492</ele><time>2026-04-25T13:03:54.000Z</time><hdop>4.687</hdop><vdop>3.187</vdop><extensions><gom:speed>1.007</gom:speed><gom:course>118.302</gom:course><gom:rel_alt>0.34</gom:rel_alt></extensions></trkpt>
   <trkpt lat="59.073493655" lon="29.9713624943"><ele>90.762</ele><time>2026-04-25T13:04:03.000Z</time><hdop>4.687</hdop><vdop>4.187</vdop><extensions><gom:speed>1.069</gom:speed><gom:course>87.188</gom:course><gom:rel_alt>0.388</gom:rel_alt></extensions></trkpt>
   <trkpt lat="59.0734890869" lon="29.9715145421"><ele>88.772</ele><time>2026-04-25T13:04:40.000Z</time><hdop>4.687</hdop><vdop>4.437</vdop><extensions><gom:speed>0.038</gom:speed><gom:course>191.917</gom:course><gom:rel_alt>0.676</gom:rel_alt></extensions></trkpt>
   <trkpt lat="59.0734894641" lon="29.9716556933"><ele>90.674</ele><time>2026-04-25T13:04:49.000Z</time><hdop>4.687</hdop><vdop>5.0</vdop><extensions><gom:speed>0.52</gom:speed><gom:course>88.721</gom:course><gom:rel_alt>0.636</gom:rel_alt></extensions></trkpt>
   <trkpt lat="59.0735130172" lon="29.971788295"><ele>86.004</ele><time>2026-04-25T13:05:26.000Z</time><hdop>4.687</hdop><vdop>4.062</vdop><extensions><gom:speed>0.117</gom:speed><gom:course>86.342</gom:course><gom:rel_alt>1.022</gom:rel_alt></extensions></trkpt>
   <trkpt lat="59.0734418549" lon="29.9718112614"><ele>85.992</ele><time>2026-04-25T13:07:27.999Z</time><hdop>4.687</hdop><vdop>3.875</vdop><extensions><gom:speed>0.443</gom:speed><gom:course>157.793</gom:course><gom:rel_alt>0.906</gom:rel_alt></extensions></trkpt>
   <trkpt lat="59.0733667949" lon="29.9717716989"><ele>86.31</ele><time>2026-04-25T13:07:39.000Z</time><hdop>4.687</hdop><vdop>4.687</vdop><extensions><gom:speed>0.705</gom:speed><gom:course>178.437</gom:course><gom:rel_alt>0.819</gom:rel_alt></extensions></trkpt>
   <trkpt lat="59.0732914835" lon="29.9718052265"><ele>86.977</ele><time>2026-04-25T13:08:00.000Z</time><hdop>4.687</hdop><vdop>4.687</vdop><extensions><gom:speed>0.637</gom:speed><gom:course>161.122</gom:course><gom:rel_alt>1.215</gom:rel_alt></extensions></trkpt>
   <trkpt lat="59.0733708602" lon="29.9717603833"><ele>82.647</ele><time>2026-04-25T13:09:59.000Z</time><hdop>4.687</hdop><vdop>4.062</vdop><extensions><gom:speed>0.53</gom:speed><gom:course>313.016</gom:course><gom:rel_alt>1.405</gom:rel_alt></extensions></trkpt>
   <trkpt lat="59.0734335568" lon="29.9716786597"><ele>83.977</ele><time>2026-04-25T13:10:19.000Z</time><hdop>4.687</hdop><vdop>3.812</vdop><extensions><gom:speed>0.269</gom:speed><gom:course>355.16</gom:course><gom:rel_alt>1.35</gom:rel_alt></extensions></trkpt>
   <trkpt lat="59.0734563556" lon="29.9718294502"><ele>86.092</ele><time>2026-04-25T13:10:38.000Z</time><hdop>4.687</hdop><vdop>4.187</vdop><extensions><gom:speed>0.361</gom:speed><gom:course>355.49</gom:course></extensions></trkpt>
   <trkpt lat="59.0735284818" lon="29.9718209844"><ele>84.565</ele><time>2026-04-25T13:11:41.000Z</time><hdop>4.687</hdop><vdop>3.0</vdop><extensions><gom:speed>1.33</gom:speed><gom:rel_alt>1.12</gom:rel_alt></extensions></trkpt>
   <trkpt lat="59.0735425215" lon="29.9719671648"><ele>88.856</ele><time>2026-04-25T13:12:51.000Z</time><hdop>4.687</hdop><vdop>3.0</vdop><extensions><gom:speed>0.786</gom:speed><gom:course>66.127</gom:course></extensions></trkpt>
   <trkpt lat="59.073574247" lon="29.9721105792"><ele>90.998</ele><time>2026-04-25T13:13:11.000Z</time><hdop>4.687</hdop><vdop>4.562</vdop><extensions><gom:speed>0.309</gom:speed><gom:course>38.908</gom:course><gom:rel_alt>1.516</gom:rel_alt></extensions></trkpt>
   <trkpt lat="59.0736072298" lon="29.9722495512"><ele>90.49</ele><time>2026-04-25T13:13:30.000Z</time><hdop>4.687</hdop><vdop>3.187</vdop><extensions><gom:speed>1.159</gom:speed><gom:course>90.396</gom:course><gom:rel_alt>1.59</gom:rel_alt></extensions></trkpt>
   <trkpt lat="59.0736792304" lon="29.972247288"><ele>88.785</ele><time>2026-04-25T13:13:50.999Z</time><hdop>4.687</hdop><vdop>3.0</vdop><extensions><gom:speed>0.185</gom:speed><gom:course>64.518</gom:course><gom:rel_alt>1.426</gom:rel_alt></extensions></trkpt>
   <trkpt lat="59.0736831699" lon="29.9723942228"><ele>91.147</ele><time>2026-04-25T13:14:12.000Z</time><hdop>4.687</hdop><vdop>3.125</vdop><extensions><gom:speed>0.3</gom:speed><gom:course>63.567</gom:course><gom:rel_alt>1.73</gom:rel_alt></extensions></trkpt>
   <trkpt lat="59.0736792304" lon="29.9725561612"><ele>91.004</ele><time>2026-04-25T13:14:21.000Z</time><hdop>4.687</hdop><vdop>3.437</vdop><extensions><gom:speed>0.472</gom:speed><gom:course>96.087</gom:course><gom:rel_alt>1.828</gom:rel_alt></extensions></trkpt>
   <trkpt lat="59.0736804458" lon="29.9727163393"><ele>89.604</ele><time>2026-04-25T13:14:45.000Z</time><hdop>4.687</hdop><vdop>3.375</vdop><extensions><gom:speed>0.278</gom:speed><gom:course>152.778</gom:course><gom:rel_alt>2.029</gom:rel_alt></extensions></trkpt>
   <trkpt lat="59.0737405859" lon="29.9727995716"><ele>88.436</ele><time>2026-04-25T13:14:59.000Z</time><hdop>4.687</hdop><vdop>3.0</vdop><extensions><gom:speed>1.089</gom:speed><gom:course>86.112</gom:course><gom:rel_alt>2.158</gom:rel_alt></extensions></trkpt>
   <trkpt lat="59.0737878179" lon="29.9729098775"><ele>89.46</ele><time>2026-04-25T13:15:12.000Z</time><hdop>4.687</hdop><vdop>3.25</vdop><extensions><gom:speed>0.935</gom:speed><gom:course>22.0</gom:course><gom:rel_alt>2.465</gom:rel_alt></extensions></trkpt>
   <trkpt lat="59.073821597" lon="29.9730411381"><ele>91.588</ele><time>2026-04-25T13:15:23.000Z</time><hdop>4.687</hdop><vdop>3.0</vdop><extensions><gom:speed>0.811</gom:speed><gom:course>69.489</gom:course><gom:rel_alt>2.705</gom:rel_alt></extensions></trkpt>
   <trkpt lat="59.0738613272" lon="29.9731850554"><ele>91.419</ele><time>2026-04-25T13:15:37.000Z</time><hdop>4.687</hdop><vdop>3.0</vdop><extensions><gom:speed>1.082</gom:speed><gom:course>42.567</gom:course><gom:rel_alt>2.322</gom:rel_alt></extensions></trkpt>
   <trkpt lat="59.0739386922" lon="29.9731492646"><ele>90.477</ele><time>2026-04-25T13:15:47.000Z</time><hdop>4.687</hdop><vdop>3.187</vdop><extensions><gom:speed>0.787</gom:speed><gom:course>32.992</gom:course><gom:rel_alt>2.137</gom:rel_alt></extensions></trkpt>
   <trkpt lat="59.0739750277" lon="29.9732853029"><ele>89.782</ele><time>2026-04-25T13:15:56.000Z</time><hdop>4.687</hdop><vdop>4.375</vdop><extensions><gom:speed>0.572</gom:speed><gom:course>47.318</gom:course><gom:rel_alt>2.021</gom:rel_alt></extensions></trkpt>
   <trkpt lat="59.0739599403" lon="29.9734248616"><ele>87.413</ele><time>2026-04-25T13:16:10.000Z</time><hdop>4.687</hdop><vdop>4.375</vdop><extensions><gom:speed>0.964</gom:speed><gom:course>107.596</gom:course><gom:rel_alt>2.058</gom:rel_alt></extensions></trkpt>
   <trkpt lat="59.0739550788" lon="29.9735935055"><ele>89.286</ele><time>2026-04-25T13:16:20.000Z</time><hdop>4.687</hdop><vdop>3.0</vdop><extensions><gom:speed>0.979</gom:speed><gom:course>118.478</gom:course><gom:rel_alt>2.219</gom:rel_alt></extensions></trkpt>
   <trkpt lat="59.0738748221" lon="29.9735635821"><ele>89.49</ele><time>2026-04-25T13:16:37.000Z</time><hdop>4.687</hdop><vdop>3.625</vdop><extensions><gom:speed>1.004</gom:speed><gom:course>177.964</gom:course><gom:rel_alt>2.047</gom:rel_alt></extensions></trkpt>
   <trkpt lat="59.073809569" lon="29.9736421205"><ele>86.992</ele><time>2026-04-25T13:17:57.000Z</time><hdop>4.687</hdop><vdop>3.437</vdop><extensions><gom:speed>1.009</gom:speed><gom:course>162.078</gom:course><gom:rel_alt>1.976</gom:rel_alt></extensions></trkpt>
   <trkpt lat="59.0738101138" lon="29.973804478"><ele>86.965</ele><time>2026-04-25T13:18:07.000Z</time><hdop>4.687</hdop><vdop>3.437</vdop><extensions><gom:speed>0.357</gom:speed><gom:course>60.832</gom:course><gom:rel_alt>2.013</gom:rel_alt></extensions></trkpt>
   <trkpt lat="59.0737388257" lon="29.9737784103"><ele>86.805</ele><time>2026-04-25T13:18:16.000Z</time><hdop>4.687</hdop><vdop>3.187</vdop><extensions><gom:speed>0.408</gom:speed><gom:course>60.832</gom:course></extensions></trkpt>
   <trkpt lat="59.0736615027" lon="29.9738034722"><ele>87.842</ele><time>2026-04-25T13:18:35.000Z</time><hdop>4.687</hdop><vdop>3.312</vdop><extensions><gom:speed>0.564</gom:speed><gom:course>123.889</gom:course><gom:rel_alt>2.211</gom:rel_alt></extensions></trkpt>
   <trkpt lat="59.0735899212" lon="29.9738347367"><ele>87.102</ele><time>2026-04-25T13:18:50.000Z</time><hdop>4.687</hdop><vdop>3.75</vdop><extensions><gom:speed>0.466</gom:speed><gom:course>128.932</gom:course><gom:rel_alt>2.116</gom:rel_alt></extensions></trkpt>
   <trkpt lat="59.0735322537" lon="29.9737091758"><ele>87.55</ele><time>2026-04-25T13:19:05.000Z</time><hdop>4.687</hdop><vdop>3.062</vdop><extensions><gom:speed>1.361</gom:speed><gom:course>216.208</gom:course><gom:rel_alt>1.965</gom:rel_alt></extensions></trkpt>
   <trkpt lat="59.0734740414" lon="29.9738109321"><ele>87.409</ele><time>2026-04-25T13:19:14.000Z</time><hdop>4.687</hdop><vdop>5.25</vdop><extensions><gom:speed>0.615</gom:speed><gom:course>144.335</gom:course><gom:rel_alt>2.185</gom:rel_alt></extensions></trkpt>
   <trkpt lat="59.0734355685" lon="29.9739312124"><ele>87.062</ele><time>2026-04-25T13:19:41.000Z</time><hdop>4.687</hdop><vdop>4.437</vdop><extensions><gom:speed>0.155</gom:speed><gom:course>130.942</gom:course><gom:rel_alt>2.082</gom:rel_alt></extensions></trkpt>
   <trkpt lat="59.0733832654" lon="29.9738249299"><ele>88.024</ele><time>2026-04-25T13:20:42.000Z</time><hdop>4.687</hdop><vdop>4.75</vdop><extensions><gom:speed>0.186</gom:speed><gom:course>67.105</gom:course><gom:rel_alt>2.211</gom:rel_alt></extensions></trkpt>
   <trkpt lat="59.0733066548" lon="29.9738400173"><ele>87.716</ele><time>2026-04-25T13:21:01.000Z</time><hdop>4.687</hdop><vdop>5.125</vdop><extensions><gom:speed>0.469</gom:speed><gom:course>122.345</gom:course><gom:rel_alt>2.058</gom:rel_alt></extensions></trkpt>
   <trkpt lat="59.0732297508" lon="29.9738471419"><ele>87.201</ele><time>2026-04-25T13:21:17.000Z</time><hdop>4.687</hdop><vdop>4.875</vdop><extensions><gom:speed>0.682</gom:speed><gom:course>174.729</gom:course><gom:rel_alt>2.042</gom:rel_alt></extensions></trkpt>
   <trkpt lat="59.073196307" lon="29.9739829287"><ele>87.446</ele><time>2026-04-25T13:21:37.000Z</time><hdop>4.687</hdop><vdop>3.562</vdop><extensions><gom:speed>0.062</gom:speed><gom:course>171.938</gom:course><gom:rel_alt>2.235</gom:rel_alt></extensions></trkpt>
   <trkpt lat="59.0731255638" lon="29.9740233295"><ele>88.365</ele><time>2026-04-25T13:22:35.999Z</time><hdop>4.687</hdop><vdop>5.187</vdop><extensions><gom:speed>0.616</gom:speed><gom:course>126.185</gom:course><gom:rel_alt>2.137</gom:rel_alt></extensions></trkpt>
   <trkpt lat="59.0730984064" lon="29.9741570209"><ele>87.555</ele><time>2026-04-25T13:23:11.000Z</time><hdop>4.687</hdop><vdop>4.875</vdop><extensions><gom:speed>0.077</gom:speed><gom:course>144.357</gom:course><gom:rel_alt>2.285</gom:rel_alt></extensions></trkpt>
   <trkpt lat="59.0730233045" lon="29.9741643131"><ele>89.828</ele><time>2026-04-25T13:23:34.000Z</time><hdop>4.687</hdop><vdop>5.125</vdop><extensions><gom:speed>0.364</gom:speed><gom:course>177.25</gom:course><gom:rel_alt>2.475</gom:rel_alt></extensions></trkpt>
   <trkpt lat="59.0729447242" lon="29.9741418496"><ele>88.889</ele><time>2026-04-25T13:25:10.000Z</time><hdop>4.687</hdop><vdop>4.687</vdop><extensions><gom:speed>0.103</gom:speed><gom:course>159.496</gom:course><gom:rel_alt>2.763</gom:rel_alt></extensions></trkpt>
   <trkpt lat="59.0728720112" lon="29.9741467111"><ele>87.45</ele><time>2026-04-25T13:25:41.000Z</time><hdop>4.687</hdop><vdop>4.812</vdop><extensions><gom:speed>0.386</gom:speed><gom:course>153.706</gom:course></extensions></trkpt>
   <trkpt lat="59.0727980409" lon="29.9741915543"><ele>88.65</ele><time>2026-04-25T13:25:58.000Z</time><hdop>4.687</hdop><vdop>5.437</vdop><extensions><gom:speed>0.602</gom:speed><gom:course>166.879</gom:course><gom:rel_alt>3.006</gom:rel_alt></extensions></trkpt>
   <trkpt lat="59.072747037" lon="29.9742992618"><ele>89.103</ele><time>2026-04-25T13:26:22.999Z</time><hdop>4.687</hdop><vdop>4.937</vdop><extensions><gom:speed>0.586</gom:speed><gom:course>172.032</gom:course><gom:rel_alt>2.914</gom:rel_alt></extensions></trkpt>
   <trkpt lat="59.0726691691" lon="29.9743084818"><ele>90.395</ele><time>2026-04-25T13:26:33.999Z</time><hdop>4.687</hdop><vdop>5.187</vdop><extensions><gom:speed>0.705</gom:speed><gom:course>191.862</gom:course><gom:rel_alt>2.378</gom:rel_alt></extensions></trkpt>
   <trkpt lat="59.0725929776" lon="29.9743231502"><ele>89.444</ele><time>2026-04-25T13:26:47.000Z</time><hdop>4.687</hdop><vdop>4.562</vdop><extensions><gom:speed>0.591</gom:speed><gom:course>151.371</gom:course><gom:rel_alt>2.946</gom:rel_alt></extensions></trkpt>
   <trkpt lat="59.072515445" lon="29.974319043"><ele>88.642</ele><time>2026-04-25T13:27:14.000Z</time><hdop>4.687</hdop><vdop>5.0</vdop><extensions><gom:speed>0.426</gom:speed><gom:course>178.953</gom:course><gom:rel_alt>2.792</gom:rel_alt></extensions></trkpt>
   <trkpt lat="59.0724539219" lon="29.9744009342"><ele>88.642</ele><time>2026-04-25T13:27:30.000Z</time><hdop>4.687</hdop><vdop>4.937</vdop><extensions><gom:speed>0.083</gom:speed><gom:course>160.759</gom:course><gom:rel_alt>3.165</gom:rel_alt></extensions></trkpt>
   <trkpt lat="59.0724462943" lon="29.9742531613"><ele>89.176</ele><time>2026-04-25T13:27:47.000Z</time><hdop>4.687</hdop><vdop>4.687</vdop><extensions><gom:speed>0.247</gom:speed><gom:course>206.106</gom:course><gom:rel_alt>3.03</gom:rel_alt></extensions></trkpt>
   <trkpt lat="59.0724777684" lon="29.9741212301"><ele>88.568</ele><time>2026-04-25T13:27:59.000Z</time><hdop>4.687</hdop><vdop>4.687</vdop><extensions><gom:speed>0.335</gom:speed><gom:course>323.87</gom:course><gom:rel_alt>3.16</gom:rel_alt></extensions></trkpt>
   <trkpt lat="59.0725115055" lon="29.9739848566"><ele>89.038</ele><time>2026-04-25T13:35:04.000Z</time><hdop>4.687</hdop><vdop>5.187</vdop><extensions><gom:speed>0.496</gom:speed><gom:course>210.078</gom:course><gom:rel_alt>4.573</gom:rel_alt></extensions></trkpt>
   <trkpt lat="59.0725771358" lon="29.9739021272"><ele>90.3</ele><time>2026-04-25T13:35:23.000Z</time><hdop>4.687</hdop><vdop>5.125</vdop><extensions><gom:speed>0.339</gom:speed><gom:course>332.363</gom:course><gom:rel_alt>4.703</gom:rel_alt></extensions></trkpt>
   <trkpt lat="59.0726311572" lon="29.9737893068"><ele>91.886</ele><time>2026-04-25T13:35:38.000Z</time><hdop>4.687</hdop><vdop>5.125</vdop><extensions><gom:speed>0.444</gom:speed><gom:course>312.01</gom:course><gom:rel_alt>4.869</gom:rel_alt></extensions></trkpt>
   <trkpt lat="59.0726361025" lon="29.9736483232"><ele>90.752</ele><time>2026-04-25T13:35:59.000Z</time><hdop>4.687</hdop><vdop>4.75</vdop><extensions><gom:speed>0.189</gom:speed><gom:course>328.15</gom:course><gom:rel_alt>4.774</gom:rel_alt></extensions></trkpt>
   <trkpt lat="59.0725879485" lon="29.9735219241"><ele>88.137</ele><time>2026-04-25T13:36:12.000Z</time><hdop>4.687</hdop><vdop>5.0</vdop><extensions><gom:speed>0.558</gom:speed><gom:course>272.838</gom:course><gom:rel_alt>4.925</gom:rel_alt></extensions></trkpt>
   <trkpt lat="59.0725303648" lon="29.9734277953"><ele>88.786</ele><time>2026-04-25T13:36:24.000Z</time><hdop>4.687</hdop><vdop>4.75</vdop><extensions><gom:speed>0.654</gom:speed><gom:course>240.56</gom:course><gom:rel_alt>4.774</gom:rel_alt></extensions></trkpt>
   <trkpt lat="59.0724971725" lon="29.97330148"><ele>89.675</ele><time>2026-04-25T13:36:44.000Z</time><hdop>4.687</hdop><vdop>4.375</vdop><extensions><gom:speed>0.215</gom:speed><gom:course>226.904</gom:course><gom:rel_alt>4.901</gom:rel_alt></extensions></trkpt>
   <trkpt lat="59.0724655308" lon="29.9731757515"><ele>89.607</ele><time>2026-04-25T13:37:23.000Z</time><hdop>4.687</hdop><vdop>4.875</vdop><extensions><gom:speed>0.547</gom:speed><gom:course>286.434</gom:course><gom:rel_alt>4.877</gom:rel_alt></extensions></trkpt>
   <trkpt lat="59.0724086596" lon="29.9730616738"><ele>89.629</ele><time>2026-04-25T13:37:35.000Z</time><hdop>4.687</hdop><vdop>4.937</vdop><extensions><gom:speed>0.665</gom:speed><gom:course>226.135</gom:course><gom:rel_alt>5.049</gom:rel_alt></extensions></trkpt>
   <trkpt lat="59.0723666243" lon="29.9729301617"><ele>89.842</ele><time>2026-04-25T13:37:48.000Z</time><hdop>4.687</hdop><vdop>5.125</vdop><extensions><gom:speed>0.624</gom:speed><gom:course>228.211</gom:course><gom:rel_alt>5.443</gom:rel_alt></extensions></trkpt>
   <trkpt lat="59.0723911414" lon="29.9727922794"><ele>92.077</ele><time>2026-04-25T13:38:07.000Z</time><hdop>4.687</hdop><vdop>5.062</vdop><extensions><gom:speed>0.2</gom:speed><gom:course>241.054</gom:course><gom:rel_alt>5.155</gom:rel_alt></extensions></trkpt>
   <trkpt lat="59.0723341864" lon="29.9726900202"><ele>91.179</ele><time>2026-04-25T13:38:25.000Z</time><hdop>4.687</hdop><vdop>5.0</vdop><extensions><gom:speed>0.449</gom:speed><gom:course>247.262</gom:course><gom:rel_alt>5.189</gom:rel_alt></extensions></trkpt>
   <trkpt lat="59.072321404" lon="29.9725485336"><ele>89.994</ele><time>2026-04-25T13:38:35.000Z</time><hdop>4.687</hdop><vdop>5.062</vdop><extensions><gom:speed>0.294</gom:speed><gom:course>289.757</gom:course><gom:rel_alt>5.266</gom:rel_alt></extensions></trkpt>
   <trkpt lat="59.0722678017" lon="29.9724435922"><ele>90.273</ele><time>2026-04-25T13:38:56.000Z</time><hdop>4.687</hdop><vdop>4.5</vdop><extensions><gom:speed>0.679</gom:speed><gom:course>221.674</gom:course><gom:rel_alt>5.057</gom:rel_alt></extensions></trkpt>
   <trkpt lat="59.0722035125" lon="29.9725104798"><ele>87.911</ele><time>2026-04-25T13:39:58.000Z</time><hdop>4.687</hdop><vdop>3.0</vdop><extensions><gom:speed>0.826</gom:speed><gom:course>116.198</gom:course><gom:rel_alt>5.044</gom:rel_alt></extensions></trkpt>
   <trkpt lat="59.0722017942" lon="29.9723559175"><ele>87.086</ele><time>2026-04-25T13:40:46.000Z</time><hdop>4.687</hdop><vdop>4.687</vdop><extensions><gom:speed>0.067</gom:speed><gom:course>205.628</gom:course><gom:rel_alt>5.144</gom:rel_alt></extensions></trkpt>
   <trkpt lat="59.0722766865" lon="29.9723057099"><ele>88.466</ele><time>2026-04-25T13:40:52.000Z</time><hdop>4.687</hdop><vdop>5.5</vdop><extensions><gom:speed>0.643</gom:speed><gom:course>336.01</gom:course><gom:rel_alt>5.271</gom:rel_alt></extensions></trkpt>
   <trkpt lat="59.0722582463" lon="29.9721540813"><ele>89.048</ele><time>2026-04-25T13:41:05.000Z</time><hdop>4.687</hdop><vdop>4.625</vdop><extensions><gom:speed>1.05</gom:speed><gom:course>241.856</gom:course><gom:rel_alt>5.205</gom:rel_alt></extensions></trkpt>
   <trkpt lat="59.0722005788" lon="29.9720572703"><ele>89.297</ele><time>2026-04-25T13:41:16.000Z</time><hdop>4.687</hdop><vdop>4.937</vdop><extensions><gom:speed>0.446</gom:speed><gom:course>244.79</gom:course><gom:rel_alt>5.049</gom:rel_alt></extensions></trkpt>
   <trkpt lat="59.0721999083" lon="29.9719048873"><ele>89.373</ele><time>2026-04-25T13:41:32.000Z</time><hdop>4.687</hdop><vdop>4.937</vdop><extensions><gom:speed>0.306</gom:speed><gom:course>248.662</gom:course><gom:rel_alt>5.292</gom:rel_alt></extensions></trkpt>
   <trkpt lat="59.0722175941" lon="29.9717692681"><ele>89.171</ele><time>2026-04-25T13:41:47.000Z</time><hdop>4.687</hdop><vdop>3.812</vdop><extensions><gom:speed>0.48</gom:speed><gom:course>283.544</gom:course><gom:rel_alt>5.215</gom:rel_alt></extensions></trkpt>
   <trkpt lat="59.0721909816" lon="29.9716373369"><ele>90.202</ele><time>2026-04-25T13:42:06.000Z</time><hdop>4.687</hdop><vdop>4.062</vdop><extensions><gom:speed>0.383</gom:speed><gom:course>237.44</gom:course><gom:rel_alt>5.173</gom:rel_alt></extensions></trkpt>
   <trkpt lat="59.0721942505" lon="29.9714973592"><ele>88.221</ele><time>2026-04-25T13:42:18.000Z</time><hdop>4.687</hdop><vdop>4.875</vdop><extensions><gom:speed>0.226</gom:speed><gom:course>255.979</gom:course><gom:rel_alt>5.054</gom:rel_alt></extensions></trkpt>
   <trkpt lat="59.0722145347" lon="29.9713493348"><ele>88.872</ele><time>2026-04-25T13:42:29.000Z</time><hdop>4.687</hdop><vdop>4.5</vdop><extensions><gom:speed>0.86</gom:speed><gom:course>310.648</gom:course><gom:rel_alt>5.377</gom:rel_alt></extensions></trkpt>
   <trkpt lat="59.0721851142" lon="29.9712148052"><ele>90.496</ele><time>2026-04-25T13:42:43.000Z</time><hdop>4.687</hdop><vdop>4.437</vdop><extensions><gom:speed>0.266</gom:speed><gom:course>228.804</gom:course><gom:rel_alt>5.213</gom:rel_alt></extensions></trkpt>
   <trkpt lat="59.0722575339" lon="29.9712163978"><ele>90.666</ele><time>2026-04-25T13:43:05.000Z</time><hdop>4.687</hdop><vdop>4.437</vdop><extensions><gom:speed>0.044</gom:speed><gom:course>217.615</gom:course><gom:rel_alt>5.77</gom:rel_alt></extensions></trkpt>
   <trkpt lat="59.072184737" lon="29.971207513"><ele>91.528</ele><time>2026-04-25T13:43:20.000Z</time><hdop>4.687</hdop><vdop>4.937</vdop><extensions><gom:speed>0.51</gom:speed><gom:course>174.504</gom:course><gom:rel_alt>5.239</gom:rel_alt></extensions></trkpt>
   <trkpt lat="59.0721996149" lon="29.9710581474"><ele>88.428</ele><time>2026-04-25T13:43:40.000Z</time><hdop>4.687</hdop><vdop>4.062</vdop><extensions><gom:speed>0.496</gom:speed><gom:course>235.528</gom:course><gom:rel_alt>5.118</gom:rel_alt></extensions></trkpt>
   <trkpt lat="59.0721789535" lon="29.9709195108"><ele>88.982</ele><time>2026-04-25T13:43:50.000Z</time><hdop>4.687</hdop><vdop>3.875</vdop><extensions><gom:speed>0.65</gom:speed><gom:course>248.86</gom:course><gom:rel_alt>5.226</gom:rel_alt></extensions></trkpt>
   <trkpt lat="59.0722129421" lon="29.9707833048"><ele>90.243</ele><time>2026-04-25T13:44:00.000Z</time><hdop>4.687</hdop><vdop>4.812</vdop><extensions><gom:speed>0.423</gom:speed><gom:course>304.721</gom:course><gom:rel_alt>5.028</gom:rel_alt></extensions></trkpt>
   <trkpt lat="59.0722758483" lon="29.9707101308"><ele>91.659</ele><time>2026-04-25T13:44:10.000Z</time><hdop>4.687</hdop><vdop>4.937</vdop><extensions><gom:speed>0.47</gom:speed><gom:course>303.089</gom:course><gom:rel_alt>5.39</gom:rel_alt></extensions></trkpt>
   <trkpt lat="59.0723200629" lon="29.9705966398"><ele>90.55</ele><time>2026-04-25T13:44:28.000Z</time><hdop>4.687</hdop><vdop>4.062</vdop><extensions><gom:speed>0.528</gom:speed><gom:course>354.655</gom:course><gom:rel_alt>5.332</gom:rel_alt></extensions></trkpt>
   <trkpt lat="59.0723133154" lon="29.9704541475"><ele>89.591</ele><time>2026-04-25T13:44:49.000Z</time><hdop>4.687</hdop><vdop>5.0</vdop><extensions><gom:speed>0.374</gom:speed><gom:course>359.412</gom:course><gom:rel_alt>5.485</gom:rel_alt></extensions></trkpt>
   <trkpt lat="59.0722657062" lon="29.9703409918"><ele>88.988</ele><time>2026-04-25T13:45:02.000Z</time><hdop>4.687</hdop><vdop>4.312</vdop><extensions><gom:speed>0.242</gom:speed><gom:course>301.727</gom:course><gom:rel_alt>5.255</gom:rel_alt></extensions></trkpt>
   <trkpt lat="59.0722893432" lon="29.9702087254"><ele>89.05</ele><time>2026-04-25T13:45:16.999Z</time><hdop>4.687</hdop><vdop>4.937</vdop><extensions><gom:speed>0.304</gom:speed><gom:course>326.677</gom:course><gom:rel_alt>5.453</gom:rel_alt></extensions></trkpt>
   <trkpt lat="59.0722126907" lon="29.9702052888"><ele>89.969</ele><time>2026-04-25T13:45:57.000Z</time><hdop>4.687</hdop><vdop>4.75</vdop><extensions><gom:speed>0.045</gom:speed><gom:course>293.394</gom:course><gom:rel_alt>5.85</gom:rel_alt></extensions></trkpt>
   <trkpt lat="59.0721283687" lon="29.9702268303"><ele>91.423</ele><time>2026-04-25T13:46:18.000Z</time><hdop>4.687</hdop><vdop>4.812</vdop><extensions><gom:speed>0.484</gom:speed><gom:course>216.082</gom:course><gom:rel_alt>5.889</gom:rel_alt></extensions></trkpt>
   <trkpt lat="59.0720496627" lon="29.9702896946"><ele>90.674</ele><time>2026-04-25T13:46:33.000Z</time><hdop>4.687</hdop><vdop>4.937</vdop><extensions><gom:speed>0.596</gom:speed><gom:course>160.265</gom:course><gom:rel_alt>5.916</gom:rel_alt></extensions></trkpt>
   <trkpt lat="59.0719761534" lon="29.9703159299"><ele>91.607</ele><time>2026-04-25T13:46:49.000Z</time><hdop>4.687</hdop><vdop>4.937</vdop><extensions><gom:speed>0.79</gom:speed><gom:course>170.735</gom:course></extensions></trkpt>
   <trkpt lat="59.071904069" lon="29.9703025189"><ele>91.475</ele><time>2026-04-25T13:47:03.000Z</time><hdop>4.687</hdop><vdop>4.875</vdop><extensions><gom:speed>0.489</gom:speed><gom:course>145.752</gom:course><gom:rel_alt>5.897</gom:rel_alt></extensions></trkpt>
   <trkpt lat="59.0718472397" lon="29.9704064545"><ele>91.898</ele><time>2026-04-25T13:47:17.000Z</time><hdop>4.687</hdop><vdop>4.812</vdop><extensions><gom:speed>0.293</gom:speed><gom:course>183.88</gom:course><gom:rel_alt>6.056</gom:rel_alt></extensions></trkpt>
   <trkpt lat="59.0717723893" lon="29.9704119865"><ele>90.479</ele><time>2026-04-25T13:48:07.000Z</time><hdop>4.687</hdop><vdop>4.375</vdop><extensions><gom:speed>0.153</gom:speed><gom:course>163.451</gom:course><gom:rel_alt>6.315</gom:rel_alt></extensions></trkpt>
   <trkpt lat="59.0716978742" lon="29.9703717534"><ele>89.883</ele><time>2026-04-25T13:48:19.000Z</time><hdop>4.687</hdop><vdop>4.687</vdop><extensions><gom:speed>0.366</gom:speed><gom:course>201.267</gom:course><gom:rel_alt>6.09</gom:rel_alt></extensions></trkpt>
   <trkpt lat="59.0716996763" lon="29.970208893"><ele>89.201</ele><time>2026-04-25T13:49:16.000Z</time><hdop>4.687</hdop><vdop>4.812</vdop><extensions><gom:speed>0.834</gom:speed><gom:course>235.501</gom:course></extensions></trkpt>
   <trkpt lat="59.0717468664" lon="29.9701031134"><ele>88.855</ele><time>2026-04-25T13:49:35.000Z</time><hdop>4.687</hdop><vdop>4.375</vdop><extensions><gom:speed>0.049</gom:speed><gom:course>120.505</gom:course><gom:rel_alt>6.632</gom:rel_alt></extensions></trkpt>
   <trkpt lat="59.0717320304" lon="29.9699562624"><ele>88.705</ele><time>2026-04-25T13:49:46.000Z</time><hdop>4.687</hdop><vdop>3.812</vdop><extensions><gom:speed>0.303</gom:speed><gom:course>232.457</gom:course></extensions></trkpt>
   <trkpt lat="59.0717358442" lon="29.9698129319"><ele>89.69</ele><time>2026-04-25T13:49:58.000Z</time><hdop>4.687</hdop><vdop>4.687</vdop><extensions><gom:speed>0.259</gom:speed><gom:course>237.198</gom:course><gom:rel_alt>6.74</gom:rel_alt></extensions></trkpt>
   <trkpt lat="59.0717693718" lon="29.9696835153"><ele>91.29</ele><time>2026-04-25T13:50:14.000Z</time><hdop>4.687</hdop><vdop>4.437</vdop><extensions><gom:speed>0.651</gom:speed><gom:course>313.241</gom:course><gom:rel_alt>6.825</gom:rel_alt></extensions></trkpt>
   <trkpt lat="59.0717681565" lon="29.9695432861"><ele>90.727</ele><time>2026-04-25T13:50:41.000Z</time><hdop>4.687</hdop><vdop>4.812</vdop><extensions><gom:speed>0.107</gom:speed><gom:course>247.547</gom:course><gom:rel_alt>6.497</gom:rel_alt></extensions></trkpt>
   <trkpt lat="59.0717124587" lon="29.969450247"><ele>90.347</ele><time>2026-04-25T13:51:09.000Z</time><hdop>4.687</hdop><vdop>4.687</vdop><extensions><gom:speed>0.37</gom:speed><gom:course>230.106</gom:course><gom:rel_alt>6.529</gom:rel_alt></extensions></trkpt>
   <trkpt lat="59.0716332916" lon="29.9694639933"><ele>90.934</ele><time>2026-04-25T13:51:20.000Z</time><hdop>4.687</hdop><vdop>4.687</vdop><extensions><gom:speed>0.61</gom:speed><gom:course>205.601</gom:course><gom:rel_alt>6.621</gom:rel_alt></extensions></trkpt>
   <trkpt lat="59.071575205" lon="29.9693690263"><ele>89.194</ele><time>2026-04-25T13:51:33.000Z</time><hdop>4.687</hdop><vdop>4.562</vdop><extensions><gom:speed>0.318</gom:speed><gom:course>222.339</gom:course><gom:rel_alt>6.669</gom:rel_alt></extensions></trkpt>
   <trkpt lat="59.0715080241" lon="29.9693147954"><ele>89.503</ele><time>2026-04-25T13:51:48.000Z</time><hdop>4.687</hdop><vdop>4.875</vdop><extensions><gom:speed>0.243</gom:speed><gom:course>184.199</gom:course><gom:rel_alt>6.555</gom:rel_alt></extensions></trkpt>
   <trkpt lat="59.0714273064" lon="29.9693428748"><ele>92.887</ele><time>2026-04-25T13:52:02.000Z</time><hdop>4.687</hdop><vdop>4.5</vdop><extensions><gom:speed>0.519</gom:speed><gom:course>219.076</gom:course><gom:rel_alt>6.809</gom:rel_alt></extensions></trkpt>
   <trkpt lat="59.0713554734" lon="29.9693087604"><ele>93.16</ele><time>2026-04-25T13:52:16.000Z</time><hdop>4.687</hdop><vdop>4.562</vdop><extensions><gom:speed>0.45</gom:speed><gom:course>236.649</gom:course><gom:rel_alt>6.751</gom:rel_alt></extensions></trkpt>
   <trkpt lat="59.0712950818" lon="29.9692142126"><ele>90.568</ele><time>2026-04-25T13:52:27.000Z</time><hdop>4.687</hdop><vdop>4.5</vdop><extensions><gom:speed>0.767</gom:speed><gom:course>196.471</gom:course></extensions></trkpt>
   <trkpt lat="59.0712229975" lon="29.9692151346"><ele>90.185</ele><time>2026-04-25T13:52:46.000Z</time><hdop>4.687</hdop><vdop>4.375</vdop><extensions><gom:speed>0.019</gom:speed><gom:course>294.542</gom:course><gom:rel_alt>6.906</gom:rel_alt></extensions></trkpt>
   <trkpt lat="59.0711483566" lon="29.9692479916"><ele>90.895</ele><time>2026-04-25T13:53:01.000Z</time><hdop>4.687</hdop><vdop>4.5</vdop><extensions><gom:speed>0.232</gom:speed><gom:course>219.57</gom:course><gom:rel_alt>7.131</gom:rel_alt></extensions></trkpt>
   <trkpt lat="59.0710951734" lon="29.9693422042"><ele>90.402</ele><time>2026-04-25T13:53:16.000Z</time><hdop>4.687</hdop><vdop>4.0</vdop><extensions><gom:speed>0.584</gom:speed><gom:course>99.488</gom:course><gom:rel_alt>7.197</gom:rel_alt></extensions></trkpt>
   <trkpt lat="59.0710320577" lon="29.9694439605"><ele>90.98</ele><time>2026-04-25T13:53:23.000Z</time><hdop>4.687</hdop><vdop>3.562</vdop><extensions><gom:speed>1.261</gom:speed><gom:course>144.384</gom:course><gom:rel_alt>7.179</gom:rel_alt></extensions></trkpt>
   <trkpt lat="59.0709776173" lon="29.9693403602"><ele>86.858</ele><time>2026-04-25T13:53:54.000Z</time><hdop>4.687</hdop><vdop>3.312</vdop><extensions><gom:speed>0.424</gom:speed><gom:course>213.22</gom:course><gom:rel_alt>7.488</gom:rel_alt></extensions></trkpt>
   <trkpt lat="59.0710504141" lon="29.969325189"><ele>86.344</ele><time>2026-04-25T13:54:17.000Z</time><hdop>4.687</hdop><vdop>3.375</vdop><extensions><gom:speed>0.274</gom:speed><gom:course>231.32</gom:course><gom:rel_alt>7.514</gom:rel_alt></extensions></trkpt>
   <trkpt lat="59.0710818881" lon="29.9694534321"><ele>88.699</ele><time>2026-04-25T13:54:54.000Z</time><hdop>4.687</hdop><vdop>3.25</vdop><extensions><gom:speed>0.117</gom:speed><gom:course>231.32</gom:course></extensions></trkpt>
   <trkpt lat="59.0710492825" lon="29.969584525"><ele>89.475</ele><time>2026-04-25T13:55:05.000Z</time><hdop>4.687</hdop><vdop>4.625</vdop><extensions><gom:speed>0.044</gom:speed><gom:course>231.326</gom:course><gom:rel_alt>7.525</gom:rel_alt></extensions></trkpt>
   <trkpt lat="59.0709966861" lon="29.9696900532"><ele>90.443</ele><time>2026-04-25T13:55:20.000Z</time><hdop>4.687</hdop><vdop>4.375</vdop><extensions><gom:speed>0.599</gom:speed><gom:course>146.867</gom:course><gom:rel_alt>7.665</gom:rel_alt></extensions></trkpt>
   <trkpt lat="59.0710687705" lon="29.9697015364"><ele>87.731</ele><time>2026-04-25T13:55:33.000Z</time><hdop>4.687</hdop><vdop>4.437</vdop><extensions><gom:speed>0.331</gom:speed><gom:course>105.36</gom:course><gom:rel_alt>7.789</gom:rel_alt></extensions></trkpt>
   <trkpt lat="59.071094922" lon="29.96985459"><ele>88.602</ele><time>2026-04-25T13:55:46.000Z</time><hdop>4.687</hdop><vdop>4.562</vdop><extensions><gom:speed>0.781</gom:speed><gom:course>71.373</gom:course><gom:rel_alt>7.72</gom:rel_alt></extensions></trkpt>
   <trkpt lat="59.0710663816" lon="29.9699913826"><ele>89.047</ele><time>2026-04-25T13:55:59.000Z</time><hdop>4.687</hdop><vdop>4.687</vdop><extensions><gom:speed>0.429</gom:speed><gom:course>68.594</gom:course><gom:rel_alt>7.607</gom:rel_alt></extensions></trkpt>
   <trkpt lat="59.0710771524" lon="29.9701342941"><ele>90.968</ele><time>2026-04-25T13:56:10.000Z</time><hdop>4.687</hdop><vdop>4.5</vdop><extensions><gom:speed>0.23</gom:speed><gom:course>79.053</gom:course><gom:rel_alt>7.718</gom:rel_alt></extensions></trkpt>
   <trkpt lat="59.0710987777" lon="29.9702824861"><ele>92.424</ele><time>2026-04-25T13:56:30.000Z</time><hdop>4.687</hdop><vdop>4.75</vdop><extensions><gom:speed>0.459</gom:speed><gom:course>47.818</gom:course><gom:rel_alt>7.665</gom:rel_alt></extensions></trkpt>
   <trkpt lat="59.0710956764" lon="29.9704285827"><ele>92.066</ele><time>2026-04-25T13:56:46.000Z</time><hdop>4.687</hdop><vdop>4.562</vdop><extensions><gom:speed>0.12</gom:speed><gom:course>58.761</gom:course><gom:rel_alt>7.512</gom:rel_alt></extensions></trkpt>
   <trkpt lat="59.0710660463" lon="29.9705570773"><ele>92.221</ele><time>2026-04-25T13:56:57.000Z</time><hdop>4.687</hdop><vdop>4.562</vdop><extensions><gom:speed>0.437</gom:speed><gom:course>117.138</gom:course><gom:rel_alt>7.39</gom:rel_alt></extensions></trkpt>
   <trkpt lat="59.071143076" lon="29.9705680576"><ele>90.992</ele><time>2026-04-25T13:57:16.000Z</time><hdop>4.687</hdop><vdop>4.812</vdop><extensions><gom:speed>0.604</gom:speed><gom:course>4.246</gom:course><gom:rel_alt>7.147</gom:rel_alt></extensions></trkpt>
   <trkpt lat="59.0712205248" lon="29.9705159221"><ele>90.499</ele><time>2026-04-25T13:57:25.000Z</time><hdop>4.687</hdop><vdop>5.25</vdop><extensions><gom:speed>1.047</gom:speed><gom:course>354.638</gom:course><gom:rel_alt>7.155</gom:rel_alt></extensions></trkpt>
   <trkpt lat="59.0712312536" lon="29.9706678022"><ele>89.045</ele><time>2026-04-25T13:57:41.000Z</time><hdop>4.687</hdop><vdop>3.187</vdop><extensions><gom:speed>1.094</gom:speed><gom:course>86.084</gom:course><gom:rel_alt>6.846</gom:rel_alt></extensions></trkpt>
   <trkpt lat="59.0711818842" lon="29.9708133959"><ele>90.389</ele><time>2026-04-25T13:57:55.000Z</time><hdop>4.687</hdop><vdop>4.375</vdop><extensions><gom:speed>0.988</gom:speed><gom:course>126.41</gom:course><gom:rel_alt>7.054</gom:rel_alt></extensions></trkpt>
   <trkpt lat="59.0711304193" lon="29.9709272221"><ele>90.515</ele><time>2026-04-25T13:58:04.000Z</time><hdop>4.687</hdop><vdop>4.812</vdop><extensions><gom:speed>0.718</gom:speed><gom:course>132.964</gom:course><gom:rel_alt>6.975</gom:rel_alt></extensions></trkpt>
   <trkpt lat="59.0710706564" lon="29.9710196745"><ele>91.938</ele><time>2026-04-25T13:58:19.000Z</time><hdop>4.687</hdop><vdop>4.687</vdop><extensions><gom:speed>0.684</gom:speed><gom:course>99.136</gom:course><gom:rel_alt>7.068</gom:rel_alt></extensions></trkpt>
   <trkpt lat="59.0710953411" lon="29.9711534497"><ele>92.197</ele><time>2026-04-25T13:58:34.000Z</time><hdop>4.687</hdop><vdop>4.125</vdop><extensions><gom:speed>0.441</gom:speed><gom:course>34.42</gom:course></extensions></trkpt>
   <trkpt lat="59.0710703211" lon="29.9712857999"><ele>91.604</ele><time>2026-04-25T13:58:45.000Z</time><hdop>4.687</hdop><vdop>4.312</vdop><extensions><gom:speed>0.0</gom:speed><gom:course>168.472</gom:course><gom:rel_alt>7.073</gom:rel_alt></extensions></trkpt>
   <trkpt lat="59.0710438343" lon="29.971432148"><ele>93.111</ele><time>2026-04-25T13:58:55.000Z</time><hdop>4.687</hdop><vdop>4.687</vdop><extensions><gom:speed>0.551</gom:speed><gom:course>102.751</gom:course><gom:rel_alt>7.213</gom:rel_alt></extensions></trkpt>
   <trkpt lat="59.0710734643" lon="29.9715650849"><ele>91.044</ele><time>2026-04-25T13:59:07.000Z</time><hdop>4.687</hdop><vdop>3.687</vdop><extensions><gom:speed>0.505</gom:speed><gom:course>60.491</gom:course><gom:rel_alt>7.268</gom:rel_alt></extensions></trkpt>
   <trkpt lat="59.0711141585" lon="29.9716803361"><ele>89.763</ele><time>2026-04-25T13:59:17.000Z</time><hdop>4.687</hdop><vdop>3.0</vdop><extensions><gom:speed>0.56</gom:speed><gom:course>44.857</gom:course><gom:rel_alt>7.152</gom:rel_alt></extensions></trkpt>
   <trkpt lat="59.0711955467" lon="29.9716823478"><ele>87.659</ele><time>2026-04-25T13:59:26.000Z</time><hdop>4.687</hdop><vdop>3.062</vdop><extensions><gom:speed>0.851</gom:speed><gom:course>350.315</gom:course><gom:rel_alt>7.255</gom:rel_alt></extensions></trkpt>
   <trkpt lat="59.0711993186" lon="29.9718296178"><ele>87.079</ele><time>2026-04-25T13:59:38.000Z</time><hdop>4.687</hdop><vdop>3.0</vdop><extensions><gom:speed>1.193</gom:speed><gom:course>60.332</gom:course><gom:rel_alt>7.192</gom:rel_alt></extensions></trkpt>
   <trkpt lat="59.0712077424" lon="29.9719763849"><ele>87.117</ele><time>2026-04-25T13:59:50.000Z</time><hdop>4.687</hdop><vdop>3.125</vdop><extensions><gom:speed>0.447</gom:speed><gom:course>59.546</gom:course><gom:rel_alt>7.163</gom:rel_alt></extensions></trkpt>
   <trkpt lat="59.0712844787" lon="29.9720088229"><ele>88.114</ele><time>2026-04-25T14:00:00.000Z</time><hdop>4.687</hdop><vdop>5.125</vdop><extensions><gom:speed>0.846</gom:speed><gom:course>9.882</gom:course><gom:rel_alt>7.329</gom:rel_alt></extensions></trkpt>
   <trkpt lat="59.0713084091" lon="29.9721513991"><ele>89.22</ele><time>2026-04-25T14:00:16.000Z</time><hdop>4.687</hdop><vdop>4.125</vdop><extensions><gom:speed>0.591</gom:speed><gom:course>80.184</gom:course><gom:rel_alt>7.456</gom:rel_alt></extensions></trkpt>
   <trkpt lat="59.0713082833" lon="29.9722949811"><ele>89.816</ele><time>2026-04-25T14:00:26.000Z</time><hdop>4.687</hdop><vdop>4.437</vdop><extensions><gom:speed>0.352</gom:speed><gom:course>76.444</gom:course><gom:rel_alt>7.358</gom:rel_alt></extensions></trkpt>
   <trkpt lat="59.0712475145" lon="29.97238626"><ele>88.918</ele><time>2026-04-25T14:00:43.000Z</time><hdop>4.687</hdop><vdop>4.375</vdop><extensions><gom:speed>0.447</gom:speed><gom:course>109.903</gom:course><gom:rel_alt>7.372</gom:rel_alt></extensions></trkpt>
   <trkpt lat="59.0712500291" lon="29.9725340329"><ele>87.547</ele><time>2026-04-25T14:00:56.000Z</time><hdop>4.687</hdop><vdop>4.187</vdop><extensions><gom:speed>0.422</gom:speed><gom:course>101.938</gom:course><gom:rel_alt>7.617</gom:rel_alt></extensions></trkpt>
   <trkpt lat="59.0712905556" lon="29.9726499547"><ele>88.396</ele><time>2026-04-25T14:01:09.000Z</time><hdop>4.687</hdop><vdop>4.625</vdop><extensions><gom:speed>0.436</gom:speed><gom:course>21.786</gom:course><gom:rel_alt>7.538</gom:rel_alt></extensions></trkpt>
   <trkpt lat="59.0713101274" lon="29.9727890104"><ele>88.798</ele><time>2026-04-25T14:01:30.000Z</time><hdop>4.687</hdop><vdop>5.0</vdop><extensions><gom:speed>0.246</gom:speed><gom:course>139.671</gom:course><gom:rel_alt>7.535</gom:rel_alt></extensions></trkpt>
   <trkpt lat="59.0713721534" lon="29.972880457"><ele>90.125</ele><time>2026-04-25T14:01:58.000Z</time><hdop>4.687</hdop><vdop>4.125</vdop><extensions><gom:speed>0.521</gom:speed><gom:course>355.297</gom:course><gom:rel_alt>6.618</gom:rel_alt></extensions></trkpt>
   <trkpt lat="59.0713036733" lon="29.9729335145"><ele>88.086</ele><time>2026-04-25T14:02:06.999Z</time><hdop>4.687</hdop><vdop>3.812</vdop><extensions><gom:speed>0.675</gom:speed><gom:course>188.423</gom:course><gom:rel_alt>7.031</gom:rel_alt></extensions></trkpt>
   <trkpt lat="59.0712304574" lon="29.9730014079"><ele>88.67</ele><time>2026-04-25T14:02:16.999Z</time><hdop>4.687</hdop><vdop>4.25</vdop><extensions><gom:speed>0.722</gom:speed><gom:course>171.186</gom:course><gom:rel_alt>7.234</gom:rel_alt></extensions></trkpt>
   <trkpt lat="59.0711499492" lon="29.9729828839"><ele>85.284</ele><time>2026-04-25T14:02:42.000Z</time><hdop>4.687</hdop><vdop>3.0</vdop><extensions><gom:speed>0.682</gom:speed><gom:course>166.566</gom:course><gom:rel_alt>7.007</gom:rel_alt></extensions></trkpt>
   <trkpt lat="59.0710901443" lon="29.9730747495"><ele>84.441</ele><time>2026-04-25T14:02:57.000Z</time><hdop>4.687</hdop><vdop>3.0</vdop><extensions><gom:speed>0.186</gom:speed><gom:course>182.59</gom:course><gom:rel_alt>6.999</gom:rel_alt></extensions></trkpt>
   <trkpt lat="59.0710630708" lon="29.9732198403"><ele>87.12</ele><time>2026-04-25T14:03:08.000Z</time><hdop>4.687</hdop><vdop>4.875</vdop><extensions><gom:speed>0.69</gom:speed><gom:course>92.561</gom:course><gom:rel_alt>7.329</gom:rel_alt></extensions></trkpt>
   <trkpt lat="59.0711269828" lon="29.9733363487"><ele>86.138</ele><time>2026-04-25T14:03:24.000Z</time><hdop>4.687</hdop><vdop>4.875</vdop><extensions><gom:speed>1.328</gom:speed><gom:course>14.156</gom:course><gom:rel_alt>7.771</gom:rel_alt></extensions></trkpt>
   <trkpt lat="59.0711711135" lon="29.9734697886"><ele>87.61</ele><time>2026-04-25T14:03:39.000Z</time><hdop>4.687</hdop><vdop>5.0</vdop><extensions><gom:speed>0.639</gom:speed><gom:course>66.71</gom:course><gom:rel_alt>7.689</gom:rel_alt></extensions></trkpt>
   <trkpt lat="59.0712223269" lon="29.9735700362"><ele>86.748</ele><time>2026-04-25T14:03:58.000Z</time><hdop>4.687</hdop><vdop>5.125</vdop><extensions><gom:speed>0.461</gom:speed><gom:course>63.71</gom:course></extensions></trkpt>
   <trkpt lat="59.0713015778" lon="29.973554362"><ele>85.537</ele><time>2026-04-25T14:04:12.000Z</time><hdop>4.687</hdop><vdop>4.562</vdop><extensions><gom:speed>0.645</gom:speed><gom:course>1.318</gom:course><gom:rel_alt>7.67</gom:rel_alt></extensions></trkpt>
   <trkpt lat="59.0713686749" lon="29.9736182321"><ele>88.969</ele><time>2026-04-25T14:04:29.999Z</time><hdop>4.687</hdop><vdop>3.562</vdop><extensions><gom:speed>0.283</gom:speed><gom:course>316.328</gom:course><gom:rel_alt>7.551</gom:rel_alt></extensions></trkpt>
   <trkpt lat="59.0714405498" lon="29.9736819346"><ele>89.81</ele><time>2026-04-25T14:04:39.999Z</time><hdop>4.687</hdop><vdop>4.812</vdop><extensions><gom:speed>0.759</gom:speed><gom:course>36.738</gom:course><gom:rel_alt>7.554</gom:rel_alt></extensions></trkpt>
   <trkpt lat="59.0714207685" lon="29.9738214095"><ele>88.012</ele><time>2026-04-25T14:04:50.999Z</time><hdop>4.687</hdop><vdop>4.25</vdop><extensions><gom:speed>0.592</gom:speed><gom:course>142.346</gom:course><gom:rel_alt>7.403</gom:rel_alt></extensions></trkpt>
   <trkpt lat="59.0713659508" lon="29.9739353195"><ele>88.002</ele><time>2026-04-25T14:04:56.999Z</time><hdop>4.687</hdop><vdop>4.812</vdop><extensions><gom:speed>0.649</gom:speed><gom:course>118.873</gom:course></extensions></trkpt>
   <trkpt lat="59.0713952456" lon="29.9740882893"><ele>85.976</ele><time>2026-04-25T14:05:13.000Z</time><hdop>4.687</hdop><vdop>3.937</vdop><extensions><gom:speed>0.691</gom:speed><gom:course>70.214</gom:course><gom:rel_alt>7.416</gom:rel_alt></extensions></trkpt>
   <trkpt lat="59.0713371171" lon="29.9741858546"><ele>86.192</ele><time>2026-04-25T14:05:24.000Z</time><hdop>4.687</hdop><vdop>3.812</vdop><extensions><gom:speed>0.938</gom:speed><gom:course>126.388</gom:course><gom:rel_alt>7.308</gom:rel_alt></extensions></trkpt>
   <trkpt lat="59.0712670863" lon="29.9742849287"><ele>85.437</ele><time>2026-04-25T14:05:36.000Z</time><hdop>4.687</hdop><vdop>4.25</vdop><extensions><gom:speed>0.823</gom:speed><gom:course>149.443</gom:course><gom:rel_alt>7.266</gom:rel_alt></extensions></trkpt>
   <trkpt lat="59.0712667929" lon="29.9744275049"><ele>86.689</ele><time>2026-04-25T14:05:48.000Z</time><hdop>4.687</hdop><vdop>4.937</vdop><extensions><gom:speed>0.66</gom:speed><gom:course>104.201</gom:course><gom:rel_alt>7.329</gom:rel_alt></extensions></trkpt>
   <trkpt lat="59.0713106303" lon="29.9745578435"><ele>88.352</ele><time>2026-04-25T14:06:02.000Z</time><hdop>4.687</hdop><vdop>5.0</vdop><extensions><gom:speed>0.439</gom:speed><gom:course>69.703</gom:course><gom:rel_alt>7.266</gom:rel_alt></extensions></trkpt>
   <trkpt lat="59.0713631848" lon="29.9746581749"><ele>86.188</ele><time>2026-04-25T14:06:19.999Z</time><hdop>4.687</hdop><vdop>5.312</vdop><extensions><gom:speed>0.51</gom:speed><gom:course>21.753</gom:course><gom:rel_alt>7.348</gom:rel_alt></extensions></trkpt>
   <trkpt lat="59.071351031" lon="29.9748041038"><ele>88.726</ele><time>2026-04-25T14:06:35.000Z</time><hdop>4.687</hdop><vdop>4.812</vdop><extensions><gom:speed>0.363</gom:speed><gom:course>86.628</gom:course><gom:rel_alt>7.237</gom:rel_alt></extensions></trkpt>
   <trkpt lat="59.0713757996" lon="29.9749501165"><ele>89.79</ele><time>2026-04-25T14:06:50.000Z</time><hdop>4.687</hdop><vdop>4.687</vdop><extensions><gom:speed>0.074</gom:speed><gom:course>30.767</gom:course><gom:rel_alt>7.097</gom:rel_alt></extensions></trkpt>
   <trkpt lat="59.0713900488" lon="29.9751040083"><ele>87.67</ele><time>2026-04-25T14:08:48.000Z</time><hdop>4.687</hdop><vdop>3.375</vdop><extensions><gom:speed>0.924</gom:speed><gom:course>116.303</gom:course><gom:rel_alt>7.189</gom:rel_alt></extensions></trkpt>
   <trkpt lat="59.0713345187" lon="29.9752040044"><ele>86.557</ele><time>2026-04-25T14:20:09.000Z</time><hdop>4.687</hdop><vdop>5.437</vdop><extensions><gom:speed>0.568</gom:speed><gom:course>121.999</gom:course><gom:rel_alt>9.263</gom:rel_alt></extensions></trkpt>
   <trkpt lat="59.0712669186" lon="29.9752540443"><ele>86.637</ele><time>2026-04-25T14:20:21.000Z</time><hdop>4.687</hdop><vdop>4.562</vdop><extensions><gom:speed>0.208</gom:speed><gom:course>159.194</gom:course></extensions></trkpt>
   <trkpt lat="59.0711915234" lon="29.9752828781"><ele>87.26</ele><time>2026-04-25T14:20:36.000Z</time><hdop>4.687</hdop><vdop>3.687</vdop><extensions><gom:speed>0.928</gom:speed><gom:course>174.267</gom:course><gom:rel_alt>9.551</gom:rel_alt></extensions></trkpt>
   <trkpt lat="59.0711223727" lon="29.9753267154"><ele>87.836</ele><time>2026-04-25T14:20:58.000Z</time><hdop>4.687</hdop><vdop>5.187</vdop><extensions><gom:speed>0.641</gom:speed><gom:course>198.092</gom:course><gom:rel_alt>9.884</gom:rel_alt></extensions></trkpt>
   <trkpt lat="59.0710473547" lon="29.9753307388"><ele>90.403</ele><time>2026-04-25T14:21:37.000Z</time><hdop>4.687</hdop><vdop>4.5</vdop><extensions><gom:speed>0.556</gom:speed><gom:course>192.142</gom:course><gom:rel_alt>9.765</gom:rel_alt></extensions></trkpt>
   <trkpt lat="59.0709669303" lon="29.9753356003"><ele>88.222</ele><time>2026-04-25T14:21:59.000Z</time><hdop>4.687</hdop><vdop>4.375</vdop><extensions><gom:speed>0.781</gom:speed><gom:course>178.041</gom:course><gom:rel_alt>9.802</gom:rel_alt></extensions></trkpt>
   <trkpt lat="59.0709002942" lon="29.9752804473"><ele>88.935</ele><time>2026-04-25T14:22:13.000Z</time><hdop>4.687</hdop><vdop>4.937</vdop><extensions><gom:speed>0.205</gom:speed><gom:course>188.176</gom:course><gom:rel_alt>9.591</gom:rel_alt></extensions></trkpt>
   <trkpt lat="59.0708272459" lon="29.9753066827"><ele>89.076</ele><time>2026-04-25T14:22:28.000Z</time><hdop>4.687</hdop><vdop>5.062</vdop><extensions><gom:speed>0.544</gom:speed><gom:course>126.245</gom:course><gom:rel_alt>9.813</gom:rel_alt></extensions></trkpt>
   <trkpt lat="59.0707597297" lon="29.9753708043"><ele>90.712</ele><time>2026-04-25T14:22:42.000Z</time><hdop>4.687</hdop><vdop>4.5</vdop><extensions><gom:speed>0.566</gom:speed><gom:course>154.2</gom:course><gom:rel_alt>9.723</gom:rel_alt></extensions></trkpt>
   <trkpt lat="59.0706906209" lon="29.9754305672"><ele>89.261</ele><time>2026-04-25T14:23:04.000Z</time><hdop>4.687</hdop><vdop>5.0</vdop><extensions><gom:speed>0.426</gom:speed><gom:course>139.297</gom:course><gom:rel_alt>9.795</gom:rel_alt></extensions></trkpt>
   <trkpt lat="59.0706124596" lon="29.9754459061"><ele>87.492</ele><time>2026-04-25T14:23:17.000Z</time><hdop>4.687</hdop><vdop>4.875</vdop><extensions><gom:speed>0.615</gom:speed><gom:course>193.334</gom:course></extensions></trkpt>
   <trkpt lat="59.0705379445" lon="29.9754661903"><ele>88.802</ele><time>2026-04-25T14:23:29.000Z</time><hdop>4.687</hdop><vdop>4.937</vdop><extensions><gom:speed>0.656</gom:speed><gom:course>167.28</gom:course><gom:rel_alt>10.146</gom:rel_alt></extensions></trkpt>
   <trkpt lat="59.0704820791" lon="29.9755582236"><ele>88.435</ele><time>2026-04-25T14:23:42.000Z</time><hdop>4.687</hdop><vdop>4.562</vdop><extensions><gom:speed>0.419</gom:speed><gom:course>114.55</gom:course><gom:rel_alt>10.067</gom:rel_alt></extensions></trkpt>
   <trkpt lat="59.0704068096" lon="29.9755369336"><ele>88.041</ele><time>2026-04-25T14:24:05.000Z</time><hdop>4.687</hdop><vdop>4.375</vdop><extensions><gom:speed>0.643</gom:speed><gom:course>173.152</gom:course><gom:rel_alt>10.291</gom:rel_alt></extensions></trkpt>
   <trkpt lat="59.0703344738" lon="29.9755828664"><ele>88.065</ele><time>2026-04-25T14:24:19.000Z</time><hdop>4.687</hdop><vdop>4.312</vdop><extensions><gom:speed>0.55</gom:speed><gom:course>180.326</gom:course><gom:rel_alt>10.286</gom:rel_alt></extensions></trkpt>
   <trkpt lat="59.070256564" lon="29.9756302242"><ele>88.329</ele><time>2026-04-25T14:24:34.000Z</time><hdop>4.687</hdop><vdop>4.25</vdop><extensions><gom:speed>0.818</gom:speed><gom:course>159.166</gom:course><gom:rel_alt>10.289</gom:rel_alt></extensions></trkpt>
   <trkpt lat="59.0701819232" lon="29.9756379355"><ele>88.465</ele><time>2026-04-25T14:24:43.000Z</time><hdop>4.687</hdop><vdop>4.625</vdop><extensions><gom:speed>0.648</gom:speed><gom:course>176.294</gom:course><gom:rel_alt>10.273</gom:rel_alt></extensions></trkpt>
   <trkpt lat="59.0701029237" lon="29.9756924179"><ele>88.94</ele><time>2026-04-25T14:24:54.000Z</time><hdop>4.687</hdop><vdop>4.687</vdop><extensions><gom:speed>0.999</gom:speed><gom:course>158.628</gom:course><gom:rel_alt>10.328</gom:rel_alt></extensions></trkpt>
   <trkpt lat="59.0700315518" lon="29.975728963"><ele>88.765</ele><time>2026-04-25T14:25:06.000Z</time><hdop>4.687</hdop><vdop>4.625</vdop><extensions><gom:speed>0.921</gom:speed><gom:course>167.73</gom:course><gom:rel_alt>10.191</gom:rel_alt></extensions></trkpt>
   <trkpt lat="59.0699569529" lon="29.9757767398"><ele>88.939</ele><time>2026-04-25T14:25:24.000Z</time><hdop>4.687</hdop><vdop>4.625</vdop><extensions><gom:speed>0.655</gom:speed><gom:course>164.55</gom:course><gom:rel_alt>10.122</gom:rel_alt></extensions></trkpt>
   <trkpt lat="59.0698777439" lon="29.97580725"><ele>88.706</ele><time>2026-04-25T14:25:42.000Z</time><hdop>4.687</hdop><vdop>4.625</vdop><extensions><gom:speed>0.764</gom:speed><gom:course>167.582</gom:course><gom:rel_alt>10.191</gom:rel_alt></extensions></trkpt>
   <trkpt lat="59.0698045699" lon="29.975839185"><ele>89.375</ele><time>2026-04-25T14:25:53.000Z</time><hdop>4.687</hdop><vdop>4.625</vdop><extensions><gom:speed>0.87</gom:speed><gom:course>171.757</gom:course><gom:rel_alt>10.133</gom:rel_alt></extensions></trkpt>
   <trkpt lat="59.0697314797" lon="29.9758721259"><ele>89.596</ele><time>2026-04-25T14:26:03.000Z</time><hdop>4.687</hdop><vdop>4.75</vdop><extensions><gom:speed>0.623</gom:speed><gom:course>156.661</gom:course><gom:rel_alt>10.125</gom:rel_alt></extensions></trkpt>
   <trkpt lat="59.0696585572" lon="29.9758957629"><ele>88.298</ele><time>2026-04-25T14:26:13.000Z</time><hdop>4.687</hdop><vdop>4.75</vdop><extensions><gom:speed>0.782</gom:speed><gom:course>169.609</gom:course></extensions></trkpt>
   <trkpt lat="59.069585928" lon="29.9759197351"><ele>86.149</ele><time>2026-04-25T14:26:36.000Z</time><hdop>4.687</hdop><vdop>4.625</vdop><extensions><gom:speed>0.632</gom:speed><gom:course>177.739</gom:course><gom:rel_alt>10.191</gom:rel_alt></extensions></trkpt>
   <trkpt lat="59.0695146399" lon="29.9759436235"><ele>86.109</ele><time>2026-04-25T14:26:45.000Z</time><hdop>4.687</hdop><vdop>4.75</vdop><extensions><gom:speed>0.882</gom:speed><gom:course>177.53</gom:course><gom:rel_alt>10.162</gom:rel_alt></extensions></trkpt>
   <trkpt lat="59.0694403762" lon="29.9759849463"><ele>86.774</ele><time>2026-04-25T14:26:55.000Z</time><hdop>4.687</hdop><vdop>4.812</vdop><extensions><gom:speed>0.848</gom:speed><gom:course>166.264</gom:course><gom:rel_alt>10.083</gom:rel_alt></extensions></trkpt>
   <trkpt lat="59.0693662383" lon="29.976013361"><ele>86.925</ele><time>2026-04-25T14:27:07.000Z</time><hdop>4.687</hdop><vdop>4.75</vdop><extensions><gom:speed>0.838</gom:speed><gom:course>166.401</gom:course><gom:rel_alt>10.212</gom:rel_alt></extensions></trkpt>
   <trkpt lat="59.0692941539" lon="29.9760307953"><ele>86.92</ele><time>2026-04-25T14:27:33.999Z</time><hdop>4.687</hdop><vdop>4.5</vdop><extensions><gom:speed>0.539</gom:speed><gom:course>193.06</gom:course><gom:rel_alt>10.101</gom:rel_alt></extensions></trkpt>
   <trkpt lat="59.0692190521" lon="29.9760394287"><ele>87.224</ele><time>2026-04-25T14:27:51.000Z</time><hdop>4.687</hdop><vdop>4.75</vdop><extensions><gom:speed>0.513</gom:speed><gom:course>214.549</gom:course><gom:rel_alt>10.093</gom:rel_alt></extensions></trkpt>
   <trkpt lat="59.0691555591" lon="29.9761146143"><ele>86.6</ele><time>2026-04-25T14:29:03.000Z</time><hdop>4.687</hdop><vdop>4.437</vdop><extensions><gom:speed>0.984</gom:speed><gom:course>166.747</gom:course><gom:rel_alt>10.08</gom:rel_alt></extensions></trkpt>
   <trkpt lat="59.0690792838" lon="29.9761769757"><ele>86.899</ele><time>2026-04-25T14:29:13.000Z</time><hdop>4.687</hdop><vdop>4.437</vdop><extensions><gom:speed>0.875</gom:speed><gom:course>145.384</gom:course><gom:rel_alt>10.257</gom:rel_alt></extensions></trkpt>
   <trkpt lat="59.0690043915" lon="29.9762116768"><ele>87.311</ele><time>2026-04-25T14:29:23.000Z</time><hdop>4.687</hdop><vdop>4.5</vdop><extensions><gom:speed>0.64</gom:speed><gom:course>170.779</gom:course></extensions></trkpt>
   <trkpt lat="59.0689391384" lon="29.9762846832"><ele>87.982</ele><time>2026-04-25T14:29:35.000Z</time><hdop>4.687</hdop><vdop>4.5</vdop><extensions><gom:speed>0.458</gom:speed><gom:course>132.964</gom:course><gom:rel_alt>10.326</gom:rel_alt></extensions></trkpt>
   <trkpt lat="59.0688978575" lon="29.9764123395"><ele>88.196</ele><time>2026-04-25T14:29:46.000Z</time><hdop>4.687</hdop><vdop>4.437</vdop><extensions><gom:speed>0.869</gom:speed><gom:course>113.408</gom:course><gom:rel_alt>10.447</gom:rel_alt></extensions></trkpt>
   <trkpt lat="59.0688270304" lon="29.9763646465"><ele>88.384</ele><time>2026-04-25T14:30:06.999Z</time><hdop>4.687</hdop><vdop>4.562</vdop><extensions><gom:speed>0.606</gom:speed><gom:course>219.455</gom:course></extensions></trkpt>
   <trkpt lat="59.0687585922" lon="29.9762956635"><ele>87.818</ele><time>2026-04-25T14:30:19.999Z</time><hdop>4.687</hdop><vdop>5.0</vdop><extensions><gom:speed>0.836</gom:speed><gom:course>212.456</gom:course><gom:rel_alt>10.606</gom:rel_alt></extensions></trkpt>
   <trkpt lat="59.068686424" lon="29.9763094936"><ele>87.556</ele><time>2026-04-25T14:30:48.999Z</time><hdop>4.687</hdop><vdop>4.437</vdop><extensions><gom:speed>0.672</gom:speed><gom:course>169.224</gom:course><gom:rel_alt>10.751</gom:rel_alt></extensions></trkpt>
   <trkpt lat="59.0686122442" lon="29.9763582763"><ele>88.99</ele><time>2026-04-25T14:31:09.999Z</time><hdop>4.687</hdop><vdop>4.437</vdop><extensions><gom:speed>0.614</gom:speed><gom:course>177.316</gom:course><gom:rel_alt>10.659</gom:rel_alt></extensions></trkpt>
   <trkpt lat="59.0685358431" lon="29.9763644789"><ele>90.174</ele><time>2026-04-25T14:31:27.999Z</time><hdop>4.687</hdop><vdop>4.0</vdop><extensions><gom:speed>0.352</gom:speed><gom:course>214.89</gom:course><gom:rel_alt>10.799</gom:rel_alt></extensions></trkpt>
   <trkpt lat="59.0684643874" lon="29.9764347192"><ele>89.836</ele><time>2026-04-25T14:31:38.999Z</time><hdop>4.687</hdop><vdop>4.375</vdop><extensions><gom:speed>0.92</gom:speed><gom:course>154.107</gom:course><gom:rel_alt>10.844</gom:rel_alt></extensions></trkpt>
   <trkpt lat="59.0683902914" lon="29.976451483"><ele>88.266</ele><time>2026-04-25T14:31:58.000Z</time><hdop>4.687</hdop><vdop>3.875</vdop><extensions><gom:speed>0.193</gom:speed><gom:course>160.452</gom:course><gom:rel_alt>10.809</gom:rel_alt></extensions></trkpt>
   <trkpt lat="59.0683176622" lon="29.9764953204"><ele>85.608</ele><time>2026-04-25T14:32:29.000Z</time><hdop>4.687</hdop><vdop>4.187</vdop><extensions><gom:speed>0.484</gom:speed><gom:course>235.16</gom:course><gom:rel_alt>10.635</gom:rel_alt></extensions></trkpt>
   <trkpt lat="59.0682546722" lon="29.9765646387"><ele>87.516</ele><time>2026-04-25T14:32:46.000Z</time><hdop>4.687</hdop><vdop>4.062</vdop><extensions><gom:speed>0.537</gom:speed><gom:course>159.804</gom:course><gom:rel_alt>10.63</gom:rel_alt></extensions></trkpt>
   <trkpt lat="59.0681853539" lon="29.9766078893"><ele>88.055</ele><time>2026-04-25T14:33:39.999Z</time><hdop>4.687</hdop><vdop>4.5</vdop><extensions><gom:speed>0.704</gom:speed><gom:course>178.695</gom:course><gom:rel_alt>10.561</gom:rel_alt></extensions></trkpt>
   <trkpt lat="59.068132506" lon="29.9767037783"><ele>87.481</ele><time>2026-04-25T14:33:57.000Z</time><hdop>4.687</hdop><vdop>4.312</vdop><extensions><gom:speed>0.389</gom:speed><gom:course>161.699</gom:course><gom:rel_alt>10.899</gom:rel_alt></extensions></trkpt>
   <trkpt lat="59.0681141915" lon="29.976841493"><ele>87.03</ele><time>2026-04-25T14:34:13.000Z</time><hdop>4.687</hdop><vdop>4.562</vdop><extensions><gom:speed>0.774</gom:speed><gom:course>92.462</gom:course><gom:rel_alt>10.775</gom:rel_alt></extensions></trkpt>
   <trkpt lat="59.0680603797" lon="29.9769486975"><ele>87.31</ele><time>2026-04-25T14:34:29.000Z</time><hdop>4.687</hdop><vdop>4.5</vdop><extensions><gom:speed>0.84</gom:speed><gom:course>169.79</gom:course><gom:rel_alt>10.77</gom:rel_alt></extensions></trkpt>
   <trkpt lat="59.0679908937" lon="29.9769946304"><ele>88.493</ele><time>2026-04-25T14:34:42.000Z</time><hdop>4.687</hdop><vdop>4.0</vdop><extensions><gom:speed>0.525</gom:speed><gom:course>172.674</gom:course><gom:rel_alt>10.939</gom:rel_alt></extensions></trkpt>
   <trkpt lat="59.0679079548" lon="29.9769706581"><ele>88.547</ele><time>2026-04-25T14:34:54.000Z</time><hdop>4.687</hdop><vdop>4.625</vdop><extensions><gom:speed>0.851</gom:speed><gom:course>185.386</gom:course><gom:rel_alt>10.614</gom:rel_alt></extensions></trkpt>
   <trkpt lat="59.0678356189" lon="29.9769444228"><ele>87.581</ele><time>2026-04-25T14:35:29.000Z</time><hdop>4.687</hdop><vdop>4.5</vdop><extensions><gom:speed>0.554</gom:speed><gom:course>182.051</gom:course><gom:rel_alt>10.455</gom:rel_alt></extensions></trkpt>
   <trkpt lat="59.067757793" lon="29.976944758"><ele>88.325</ele><time>2026-04-25T14:35:42.999Z</time><hdop>4.687</hdop><vdop>4.562</vdop><extensions><gom:speed>0.631</gom:speed><gom:course>175.108</gom:course><gom:rel_alt>10.77</gom:rel_alt></extensions></trkpt>
   <trkpt lat="59.0677771133" lon="29.976795644"><ele>88.234</ele><time>2026-04-25T14:36:04.000Z</time><hdop>4.687</hdop><vdop>4.187</vdop><extensions><gom:speed>0.09</gom:speed><gom:course>179.502</gom:course><gom:rel_alt>11.023</gom:rel_alt></extensions></trkpt>
   <trkpt lat="59.0677607266" lon="29.9769384716"><ele>88.039</ele><time>2026-04-25T14:36:33.000Z</time><hdop>4.687</hdop><vdop>4.75</vdop><extensions><gom:speed>0.523</gom:speed><gom:course>133.106</gom:course><gom:rel_alt>11.081</gom:rel_alt></extensions></trkpt>
   <trkpt lat="59.0677022629" lon="29.9770382163"><ele>88.2</ele><time>2026-04-25T14:36:46.000Z</time><hdop>4.687</hdop><vdop>4.687</vdop><extensions><gom:speed>0.617</gom:speed><gom:course>142.264</gom:course><gom:rel_alt>11.031</gom:rel_alt></extensions></trkpt>
   <trkpt lat="59.0676285859" lon="29.9770919443"><ele>88.894</ele><time>2026-04-25T14:37:01.000Z</time><hdop>4.687</hdop><vdop>4.562</vdop><extensions><gom:speed>0.69</gom:speed><gom:course>164.094</gom:course><gom:rel_alt>10.902</gom:rel_alt></extensions></trkpt>
   <trkpt lat="59.0675580103" lon="29.977134189"><ele>89.632</ele><time>2026-04-25T14:37:13.000Z</time><hdop>4.687</hdop><vdop>4.562</vdop><extensions><gom:speed>0.754</gom:speed><gom:course>171.087</gom:course></extensions></trkpt>
   <trkpt lat="59.0674847525" lon="29.9771042657"><ele>88.57</ele><time>2026-04-25T14:37:51.999Z</time><hdop>4.687</hdop><vdop>4.062</vdop><extensions><gom:speed>0.253</gom:speed><gom:course>202.261</gom:course><gom:rel_alt>11.198</gom:rel_alt></extensions></trkpt>
   <trkpt lat="59.0674107403" lon="29.9770998232"><ele>88.76</ele><time>2026-04-25T14:38:12.999Z</time><hdop>4.687</hdop><vdop>4.312</vdop><extensions><gom:speed>0.583</gom:speed><gom:course>167.23</gom:course><gom:rel_alt>11.155</gom:rel_alt></extensions></trkpt>
   <trkpt lat="59.0673384883" lon="29.97715967"><ele>88.192</ele><time>2026-04-25T14:38:24.999Z</time><hdop>4.687</hdop><vdop>4.312</vdop><extensions><gom:speed>0.58</gom:speed><gom:course>146.499</gom:course><gom:rel_alt>11.137</gom:rel_alt></extensions></trkpt>
   <trkpt lat="59.0672629254" lon="29.9771415651"><ele>87.399</ele><time>2026-04-25T14:38:37.999Z</time><hdop>4.687</hdop><vdop>4.437</vdop><extensions><gom:speed>0.603</gom:speed><gom:course>170.774</gom:course><gom:rel_alt>11.224</gom:rel_alt></extensions></trkpt>
   <trkpt lat="59.0671856443" lon="29.9771678005"><ele>87.331</ele><time>2026-04-25T14:39:04.000Z</time><hdop>4.687</hdop><vdop>5.0</vdop><extensions><gom:speed>0.579</gom:speed><gom:course>166.593</gom:course><gom:rel_alt>11.346</gom:rel_alt></extensions></trkpt>
   <trkpt lat="59.0671183376" lon="29.9770937883"><ele>88.766</ele><time>2026-04-25T14:39:29.000Z</time><hdop>4.687</hdop><vdop>4.312</vdop><extensions><gom:speed>0.555</gom:speed><gom:course>229.293</gom:course><gom:rel_alt>11.367</gom:rel_alt></extensions></trkpt>
   <trkpt lat="59.0670452055" lon="29.9771391344"><ele>89.18</ele><time>2026-04-25T14:40:10.000Z</time><hdop>4.687</hdop><vdop>3.937</vdop><extensions><gom:speed>0.063</gom:speed><gom:course>314.73</gom:course></extensions></trkpt>
   <trkpt lat="59.0669704808" lon="29.9771704827"><ele>90.636</ele><time>2026-04-25T14:40:29.000Z</time><hdop>4.687</hdop><vdop>3.75</vdop><extensions><gom:speed>0.021</gom:speed><gom:course>314.73</gom:course><gom:rel_alt>11.428</gom:rel_alt></extensions></trkpt>
   <trkpt lat="59.0669061078" lon="29.9772326764"><ele>89.489</ele><time>2026-04-25T14:40:56.000Z</time><hdop>4.687</hdop><vdop>4.062</vdop><extensions><gom:speed>0.067</gom:speed><gom:course>314.73</gom:course><gom:rel_alt>11.356</gom:rel_alt></extensions></trkpt>
   <trkpt lat="59.0668686407" lon="29.9771020864"><ele>87.892</ele><time>2026-04-25T14:41:49.000Z</time><hdop>4.687</hdop><vdop>4.562</vdop><extensions><gom:speed>0.288</gom:speed><gom:course>273.464</gom:course><gom:rel_alt>11.726</gom:rel_alt></extensions></trkpt>
   <trkpt lat="59.066794377" lon="29.9771488574"><ele>89.256</ele><time>2026-04-25T14:41:58.000Z</time><hdop>4.687</hdop><vdop>4.125</vdop><extensions><gom:speed>0.1</gom:speed><gom:course>273.464</gom:course><gom:rel_alt>11.848</gom:rel_alt></extensions></trkpt>
   <trkpt lat="59.0667303393" lon="29.977231"><ele>90.532</ele><time>2026-04-25T14:42:09.999Z</time><hdop>4.687</hdop><vdop>4.0</vdop><extensions><gom:speed>0.065</gom:speed><gom:course>273.464</gom:course><gom:rel_alt>11.758</gom:rel_alt></extensions></trkpt>
   <trkpt lat="59.0666626135" lon="29.9773056828"><ele>91.293</ele><time>2026-04-25T14:42:21.999Z</time><hdop>4.687</hdop><vdop>4.062</vdop><extensions><gom:speed>0.094</gom:speed><gom:course>273.464</gom:course><gom:rel_alt>12.12</gom:rel_alt></extensions></trkpt>
   <trkpt lat="59.0665922893" lon="29.9773507774"><ele>90.992</ele><time>2026-04-25T14:42:36.000Z</time><hdop>4.687</hdop><vdop>4.062</vdop><extensions><gom:speed>0.045</gom:speed><gom:course>275.024</gom:course><gom:rel_alt>12.054</gom:rel_alt></extensions></trkpt>
   <trkpt lat="59.0665240606" lon="29.9772822973"><ele>89.935</ele><time>2026-04-25T14:42:55.000Z</time><hdop>4.687</hdop><vdop>4.437</vdop><extensions><gom:speed>0.626</gom:speed><gom:course>243.532</gom:course><gom:rel_alt>11.779</gom:rel_alt></extensions></trkpt>
   <trkpt lat="59.0664740626" lon="29.9771803733"><ele>90.383</ele><time>2026-04-25T14:43:07.000Z</time><hdop>4.687</hdop><vdop>4.562</vdop><extensions><gom:speed>0.628</gom:speed><gom:course>229.793</gom:course></extensions></trkpt>
   <trkpt lat="59.0664301414" lon="29.9770543933"><ele>90.542</ele><time>2026-04-25T14:43:18.000Z</time><hdop>4.687</hdop><vdop>4.75</vdop><extensions><gom:speed>0.751</gom:speed><gom:course>223.871</gom:course><gom:rel_alt>11.932</gom:rel_alt></extensions></trkpt>
   <trkpt lat="59.0663653912" lon="29.9769624439"><ele>89.95</ele><time>2026-04-25T14:43:34.000Z</time><hdop>4.687</hdop><vdop>4.875</vdop><extensions><gom:speed>0.658</gom:speed><gom:course>232.04</gom:course><gom:rel_alt>12.067</gom:rel_alt></extensions></trkpt>
   <trkpt lat="59.0663346296" lon="29.9768274952"><ele>88.768</ele><time>2026-04-25T14:43:52.000Z</time><hdop>4.687</hdop><vdop>4.812</vdop><extensions><gom:speed>1.004</gom:speed><gom:course>241.384</gom:course><gom:rel_alt>12.054</gom:rel_alt></extensions></trkpt>
   <trkpt lat="59.0662920915" lon="29.9767070473"><ele>89.292</ele><time>2026-04-25T14:44:02.999Z</time><hdop>4.687</hdop><vdop>4.875</vdop><extensions><gom:speed>0.777</gom:speed><gom:course>240.038</gom:course><gom:rel_alt>12.141</gom:rel_alt></extensions></trkpt>
   <trkpt lat="59.0663107412" lon="29.9765689973"><ele>88.823</ele><time>2026-04-25T14:44:21.999Z</time><hdop>4.687</hdop><vdop>4.5</vdop><extensions><gom:speed>0.193</gom:speed><gom:course>319.547</gom:course><gom:rel_alt>12.096</gom:rel_alt></extensions></trkpt>
   <trkpt lat="59.0662719749" lon="29.9764512316"><ele>89.202</ele><time>2026-04-25T14:45:04.000Z</time><hdop>4.687</hdop><vdop>4.812</vdop><extensions><gom:speed>0.656</gom:speed><gom:course>219.565</gom:course><gom:rel_alt>12.07</gom:rel_alt></extensions></trkpt>
   <trkpt lat="59.0663013116" lon="29.9763145227"><ele>88.216</ele><time>2026-04-25T14:45:15.000Z</time><hdop>4.687</hdop><vdop>4.625</vdop><extensions><gom:speed>1.095</gom:speed><gom:course>306.902</gom:course><gom:rel_alt>12.078</gom:rel_alt></extensions></trkpt>
   <trkpt lat="59.0663456099" lon="29.976202792"><ele>87.859</ele><time>2026-04-25T14:45:24.000Z</time><hdop>4.687</hdop><vdop>4.625</vdop><extensions><gom:speed>0.614</gom:speed><gom:course>312.505</gom:course><gom:rel_alt>12.136</gom:rel_alt></extensions></trkpt>
   <trkpt lat="59.0663760781" lon="29.9760618084"><ele>88.085</ele><time>2026-04-25T14:45:33.000Z</time><hdop>4.687</hdop><vdop>4.75</vdop><extensions><gom:speed>0.957</gom:speed><gom:course>292.548</gom:course><gom:rel_alt>11.98</gom:rel_alt></extensions></trkpt>
   <trkpt lat="59.0664073845" lon="29.975934152"><ele>88.315</ele><time>2026-04-25T14:45:43.000Z</time><hdop>4.687</hdop><vdop>4.687</vdop><extensions><gom:speed>0.731</gom:speed><gom:course>295.613</gom:course><gom:rel_alt>12.056</gom:rel_alt></extensions></trkpt>
   <trkpt lat="59.0664053729" lon="29.9757827748"><ele>87.404</ele><time>2026-04-25T14:45:55.000Z</time><hdop>4.687</hdop><vdop>5.312</vdop><extensions><gom:speed>0.743</gom:speed><gom:course>263.428</gom:course><gom:rel_alt>12.099</gom:rel_alt></extensions></trkpt>
   <trkpt lat="59.0664032355" lon="29.9756401986"><ele>86.83</ele><time>2026-04-25T14:46:15.999Z</time><hdop>4.687</hdop><vdop>4.75</vdop><extensions><gom:speed>0.684</gom:speed><gom:course>259.1</gom:course><gom:rel_alt>12.107</gom:rel_alt></extensions></trkpt>
   <trkpt lat="59.0663832447" lon="29.9754930124"><ele>87.232</ele><time>2026-04-25T14:46:33.000Z</time><hdop>4.687</hdop><vdop>4.812</vdop><extensions><gom:speed>0.918</gom:speed><gom:course>261.604</gom:course></extensions></trkpt>
   <trkpt lat="59.0663504295" lon="29.9753626738"><ele>87.236</ele><time>2026-04-25T14:46:42.000Z</time><hdop>4.687</hdop><vdop>4.875</vdop><extensions><gom:speed>0.861</gom:speed><gom:course>252.359</gom:course><gom:rel_alt>12.273</gom:rel_alt></extensions></trkpt>
   <trkpt lat="59.0663020659" lon="29.975256056"><ele>88.087</ele><time>2026-04-25T14:46:51.000Z</time><hdop>4.687</hdop><vdop>5.25</vdop><extensions><gom:speed>0.747</gom:speed><gom:course>221.971</gom:course><gom:rel_alt>12.344</gom:rel_alt></extensions></trkpt>
   <trkpt lat="59.0662870623" lon="29.9751173355"><ele>88.406</ele><time>2026-04-25T14:47:01.000Z</time><hdop>4.687</hdop><vdop>4.812</vdop><extensions><gom:speed>0.741</gom:speed><gom:course>245.817</gom:course><gom:rel_alt>12.397</gom:rel_alt></extensions></trkpt>
   <trkpt lat="59.0662402075" lon="29.9750020005"><ele>87.136</ele><time>2026-04-25T14:47:12.000Z</time><hdop>4.687</hdop><vdop>5.062</vdop><extensions><gom:speed>0.75</gom:speed><gom:course>239.208</gom:course><gom:rel_alt>12.514</gom:rel_alt></extensions></trkpt>
   <trkpt lat="59.0661892874" lon="29.9749019206"><ele>86.946</ele><time>2026-04-25T14:47:21.000Z</time><hdop>4.687</hdop><vdop>4.812</vdop><extensions><gom:speed>0.846</gom:speed><gom:course>223.679</gom:course><gom:rel_alt>12.397</gom:rel_alt></extensions></trkpt>
   <trkpt lat="59.0661244534" lon="29.9748343625"><ele>87.49</ele><time>2026-04-25T14:47:33.000Z</time><hdop>4.687</hdop><vdop>4.812</vdop><extensions><gom:speed>0.545</gom:speed><gom:course>225.19</gom:course><gom:rel_alt>12.601</gom:rel_alt></extensions></trkpt>
   <trkpt lat="59.0660680851" lon="29.9747475259"><ele>86.734</ele><time>2026-04-25T14:47:43.000Z</time><hdop>4.687</hdop><vdop>4.875</vdop><extensions><gom:speed>0.618</gom:speed><gom:course>225.311</gom:course><gom:rel_alt>12.638</gom:rel_alt></extensions></trkpt>
   <trkpt lat="59.0660128903" lon="29.9746523075"><ele>87.343</ele><time>2026-04-25T14:47:55.000Z</time><hdop>4.687</hdop><vdop>4.375</vdop><extensions><gom:speed>0.631</gom:speed><gom:course>231.49</gom:course><gom:rel_alt>12.64</gom:rel_alt></extensions></trkpt>
   <trkpt lat="59.0659751717" lon="29.9745295126"><ele>86.532</ele><time>2026-04-25T14:48:06.000Z</time><hdop>4.687</hdop><vdop>5.0</vdop><extensions><gom:speed>0.63</gom:speed><gom:course>214.884</gom:course><gom:rel_alt>12.477</gom:rel_alt></extensions></trkpt>
   <trkpt lat="59.0659321725" lon="29.9744106572"><ele>85.704</ele><time>2026-04-25T14:48:17.000Z</time><hdop>4.687</hdop><vdop>4.625</vdop><extensions><gom:speed>0.722</gom:speed><gom:course>246.185</gom:course><gom:rel_alt>12.698</gom:rel_alt></extensions></trkpt>
   <trkpt lat="59.0659456255" lon="29.9742689193"><ele>86.084</ele><time>2026-04-25T14:49:57.000Z</time><hdop>4.687</hdop><vdop>4.937</vdop><extensions><gom:speed>0.548</gom:speed><gom:course>286.994</gom:course><gom:rel_alt>12.696</gom:rel_alt></extensions></trkpt>
   <trkpt lat="59.0659576535" lon="29.974130534"><ele>86.486</ele><time>2026-04-25T14:50:11.000Z</time><hdop>4.687</hdop><vdop>4.687</vdop><extensions><gom:speed>0.134</gom:speed><gom:course>289.197</gom:course><gom:rel_alt>12.873</gom:rel_alt></extensions></trkpt>
   <trkpt lat="59.0660037959" lon="29.9740139418"><ele>88.589</ele><time>2026-04-25T14:50:23.000Z</time><hdop>4.687</hdop><vdop>4.937</vdop><extensions><gom:speed>0.822</gom:speed><gom:course>283.599</gom:course><gom:rel_alt>12.881</gom:rel_alt></extensions></trkpt>
   <trkpt lat="59.0660612958" lon="29.9739192263"><ele>88.722</ele><time>2026-04-25T14:50:31.000Z</time><hdop>4.687</hdop><vdop>5.062</vdop><extensions><gom:speed>0.957</gom:speed><gom:course>325.101</gom:course><gom:rel_alt>13.01</gom:rel_alt></extensions></trkpt>
   <trkpt lat="59.0660649" lon="29.973776231"><ele>89.032</ele><time>2026-04-25T14:50:39.000Z</time><hdop>4.687</hdop><vdop>5.375</vdop><extensions><gom:speed>0.95</gom:speed><gom:course>269.553</gom:course><gom:rel_alt>13.005</gom:rel_alt></extensions></trkpt>
   <trkpt lat="59.0660702644" lon="29.9736256082"><ele>89.405</ele><time>2026-04-25T14:50:48.000Z</time><hdop>4.687</hdop><vdop>5.437</vdop><extensions><gom:speed>0.752</gom:speed><gom:course>269.487</gom:course><gom:rel_alt>12.783</gom:rel_alt></extensions></trkpt>
   <trkpt lat="59.0660796102" lon="29.973475656"><ele>88.825</ele><time>2026-04-25T14:51:00.000Z</time><hdop>4.687</hdop><vdop>4.75</vdop><extensions><gom:speed>0.667</gom:speed><gom:course>283.995</gom:course><gom:rel_alt>12.905</gom:rel_alt></extensions></trkpt>
   <trkpt lat="59.0660980923" lon="29.9733316549"><ele>89.631</ele><time>2026-04-25T14:51:11.000Z</time><hdop>4.687</hdop><vdop>4.5</vdop><extensions><gom:speed>0.498</gom:speed><gom:course>316.696</gom:course><gom:rel_alt>12.955</gom:rel_alt></extensions></trkpt>
   <trkpt lat="59.0661096174" lon="29.9731894978"><ele>88.932</ele><time>2026-04-25T14:51:20.000Z</time><hdop>4.687</hdop><vdop>4.937</vdop><extensions><gom:speed>0.841</gom:speed><gom:course>255.946</gom:course><gom:rel_alt>12.973</gom:rel_alt></extensions></trkpt>
   <trkpt lat="59.0661000202" lon="29.9730494362"><ele>88.908</ele><time>2026-04-25T14:51:29.000Z</time><hdop>4.687</hdop><vdop>5.437</vdop><extensions><gom:speed>0.786</gom:speed><gom:course>263.208</gom:course><gom:rel_alt>12.907</gom:rel_alt></extensions></trkpt>
   <trkpt lat="59.0660649" lon="29.9729174212"><ele>88.621</ele><time>2026-04-25T14:51:39.000Z</time><hdop>4.687</hdop><vdop>4.75</vdop><extensions><gom:speed>0.559</gom:speed><gom:course>237.484</gom:course><gom:rel_alt>12.984</gom:rel_alt></extensions></trkpt>
   <trkpt lat="59.0660541711" lon="29.9727707379"><ele>87.401</ele><time>2026-04-25T14:51:52.000Z</time><hdop>4.687</hdop><vdop>4.687</vdop><extensions><gom:speed>0.593</gom:speed><gom:rel_alt>13.002</gom:rel_alt></extensions></trkpt>
   <trkpt lat="59.0660048017" lon="29.9726518825"><ele>88.901</ele><time>2026-04-25T14:52:05.000Z</time><hdop>4.687</hdop><vdop>4.687</vdop><extensions><gom:speed>0.535</gom:speed><gom:course>259.682</gom:course><gom:rel_alt>12.96</gom:rel_alt></extensions></trkpt>
   <trkpt lat="59.0659565639" lon="29.9725222145"><ele>88.641</ele><time>2026-04-25T14:52:15.000Z</time><hdop>4.687</hdop><vdop>4.687</vdop><extensions><gom:speed>0.78</gom:speed><gom:course>227.343</gom:course><gom:rel_alt>12.944</gom:rel_alt></extensions></trkpt>
   <trkpt lat="59.0659003632" lon="29.9724269122"><ele>87.794</ele><time>2026-04-25T14:53:12.000Z</time><hdop>4.687</hdop><vdop>4.75</vdop><extensions><gom:speed>0.688</gom:speed><gom:course>228.898</gom:course><gom:rel_alt>12.989</gom:rel_alt></extensions></trkpt>
   <trkpt lat="59.0658825517" lon="29.9722754512"><ele>87.771</ele><time>2026-04-25T14:53:28.000Z</time><hdop>4.687</hdop><vdop>4.812</vdop><extensions><gom:speed>0.552</gom:speed><gom:course>245.784</gom:course><gom:rel_alt>12.902</gom:rel_alt></extensions></trkpt>
   <trkpt lat="59.065934729" lon="29.9721591942"><ele>87.767</ele><time>2026-04-25T14:53:41.000Z</time><hdop>4.687</hdop><vdop>5.625</vdop><extensions><gom:speed>0.872</gom:speed><gom:course>316.13</gom:course><gom:rel_alt>12.905</gom:rel_alt></extensions></trkpt>
   <trkpt lat="59.0659655325" lon="29.972025922"><ele>88.408</ele><time>2026-04-25T14:53:53.000Z</time><hdop>4.687</hdop><vdop>5.437</vdop><extensions><gom:speed>0.575</gom:speed><gom:course>274.129</gom:course><gom:rel_alt>12.852</gom:rel_alt></extensions></trkpt>
   <trkpt lat="59.0659550551" lon="29.9718811665"><ele>87.065</ele><time>2026-04-25T14:54:07.000Z</time><hdop>4.687</hdop><vdop>4.812</vdop><extensions><gom:speed>0.426</gom:speed><gom:course>280.452</gom:course><gom:rel_alt>12.854</gom:rel_alt></extensions></trkpt>
   <trkpt lat="59.0659909297" lon="29.9717506603"><ele>88.145</ele><time>2026-04-25T14:54:20.000Z</time><hdop>4.687</hdop><vdop>5.437</vdop><extensions><gom:speed>0.662</gom:speed><gom:course>284.989</gom:course><gom:rel_alt>12.86</gom:rel_alt></extensions></trkpt>
   <trkpt lat="59.0660221104" lon="29.9716230039"><ele>88.931</ele><time>2026-04-25T14:54:31.999Z</time><hdop>4.687</hdop><vdop>4.937</vdop><extensions><gom:speed>0.525</gom:speed><gom:course>278.298</gom:course><gom:rel_alt>13.148</gom:rel_alt></extensions></trkpt>
   <trkpt lat="59.066005598" lon="29.9714732193"><ele>88.024</ele><time>2026-04-25T14:54:48.999Z</time><hdop>4.687</hdop><vdop>4.75</vdop><extensions><gom:speed>0.694</gom:speed><gom:course>277.573</gom:course><gom:rel_alt>13.182</gom:rel_alt></extensions></trkpt>
   <trkpt lat="59.0660294026" lon="29.9713322357"><ele>88.974</ele><time>2026-04-25T14:54:58.000Z</time><hdop>4.687</hdop><vdop>4.5</vdop><extensions><gom:speed>0.97</gom:speed><gom:course>299.898</gom:course><gom:rel_alt>13.201</gom:rel_alt></extensions></trkpt>
   <trkpt lat="59.0660800712" lon="29.9712184094"><ele>89.114</ele><time>2026-04-25T14:55:09.000Z</time><hdop>4.687</hdop><vdop>4.562</vdop><extensions><gom:speed>0.833</gom:speed><gom:course>322.585</gom:course></extensions></trkpt>
   <trkpt lat="59.0661403371" lon="29.9711107858"><ele>88.909</ele><time>2026-04-25T14:55:21.000Z</time><hdop>4.687</hdop><vdop>4.437</vdop><extensions><gom:speed>0.904</gom:speed><gom:course>327.518</gom:course><gom:rel_alt>13.248</gom:rel_alt></extensions></trkpt>
   <trkpt lat="59.0662040815" lon="29.971044904"><ele>89.684</ele><time>2026-04-25T14:55:32.000Z</time><hdop>4.687</hdop><vdop>4.625</vdop><extensions><gom:speed>0.679</gom:speed><gom:course>290.938</gom:course><gom:rel_alt>13.179</gom:rel_alt></extensions></trkpt>
   <trkpt lat="59.0662543729" lon="29.9709345144"><ele>89.815</ele><time>2026-04-25T14:55:42.000Z</time><hdop>4.687</hdop><vdop>5.062</vdop><extensions><gom:speed>0.713</gom:speed><gom:course>308.346</gom:course><gom:rel_alt>13.15</gom:rel_alt></extensions></trkpt>
   <trkpt lat="59.0662753277" lon="29.9708004039"><ele>90.115</ele><time>2026-04-25T14:55:54.000Z</time><hdop>4.687</hdop><vdop>4.437</vdop><extensions><gom:speed>0.729</gom:speed><gom:course>285.352</gom:course><gom:rel_alt>13.105</gom:rel_alt></extensions></trkpt>
   <trkpt lat="59.0662718911" lon="29.9706582468"><ele>90.079</ele><time>2026-04-25T14:56:06.000Z</time><hdop>4.687</hdop><vdop>4.375</vdop><extensions><gom:speed>0.582</gom:speed><gom:course>285.929</gom:course><gom:rel_alt>13.063</gom:rel_alt></extensions></trkpt>
   <trkpt lat="59.0662707595" lon="29.9705093842"><ele>89.765</ele><time>2026-04-25T14:56:17.000Z</time><hdop>4.687</hdop><vdop>4.5</vdop><extensions><gom:speed>0.816</gom:speed><gom:course>258.99</gom:course><gom:rel_alt>13.156</gom:rel_alt></extensions></trkpt>
   <trkpt lat="59.0662185403" lon="29.9704114836"><ele>89.892</ele><time>2026-04-25T14:56:45.999Z</time><hdop>4.687</hdop><vdop>4.0</vdop><extensions><gom:speed>0.613</gom:speed><gom:course>256.386</gom:course><gom:rel_alt>13.33</gom:rel_alt></extensions></trkpt>
   <trkpt lat="59.0661999744" lon="29.9702735175"><ele>90.421</ele><time>2026-04-25T14:57:42.000Z</time><hdop>4.687</hdop><vdop>4.875</vdop><extensions><gom:speed>0.755</gom:speed><gom:course>248.173</gom:course><gom:rel_alt>13.148</gom:rel_alt></extensions></trkpt>
   <trkpt lat="59.0661707215" lon="29.9701379821"><ele>89.842</ele><time>2026-04-25T14:57:54.000Z</time><hdop>4.687</hdop><vdop>4.875</vdop><extensions><gom:speed>0.619</gom:speed><gom:course>249.838</gom:course><gom:rel_alt>13.232</gom:rel_alt></extensions></trkpt>
   <trkpt lat="59.0661169935" lon="29.970041674"><ele>89.463</ele><time>2026-04-25T14:58:02.000Z</time><hdop>4.687</hdop><vdop>4.687</vdop><extensions><gom:speed>0.976</gom:speed><gom:course>217.763</gom:course><gom:rel_alt>13.314</gom:rel_alt></extensions></trkpt>
   <trkpt lat="59.0660606671" lon="29.9699467071"><ele>89.239</ele><time>2026-04-25T14:58:12.000Z</time><hdop>4.687</hdop><vdop>5.0</vdop><extensions><gom:speed>0.911</gom:speed><gom:course>204.211</gom:course><gom:rel_alt>13.219</gom:rel_alt></extensions></trkpt>
   <trkpt lat="59.0660038378" lon="29.9698499799"><ele>89.79</ele><time>2026-04-25T14:58:23.000Z</time><hdop>4.687</hdop><vdop>5.062</vdop><extensions><gom:speed>0.812</gom:speed><gom:course>205.04</gom:course><gom:rel_alt>13.211</gom:rel_alt></extensions></trkpt>
   <trkpt lat="59.0659343518" lon="29.9697965872"><ele>88.8</ele><time>2026-04-25T14:58:33.000Z</time><hdop>4.687</hdop><vdop>5.125</vdop><extensions><gom:speed>0.952</gom:speed><gom:course>198.081</gom:course><gom:rel_alt>13.29</gom:rel_alt></extensions></trkpt>
   <trkpt lat="59.0658810429" lon="29.969688293"><ele>89.483</ele><time>2026-04-25T14:58:45.999Z</time><hdop>4.687</hdop><vdop>4.562</vdop><extensions><gom:speed>1.045</gom:speed><gom:course>242.021</gom:course><gom:rel_alt>13.663</gom:rel_alt></extensions></trkpt>
   <trkpt lat="59.0658507004" lon="29.9695614748"><ele>90.696</ele><time>2026-04-25T14:58:57.999Z</time><hdop>4.687</hdop><vdop>4.562</vdop><extensions><gom:speed>0.679</gom:speed><gom:course>233.946</gom:course><gom:rel_alt>13.515</gom:rel_alt></extensions></trkpt>
   <trkpt lat="59.0658009119" lon="29.9694547732"><ele>90.748</ele><time>2026-04-25T14:59:08.000Z</time><hdop>4.687</hdop><vdop>4.562</vdop><extensions><gom:speed>0.906</gom:speed><gom:course>215.89</gom:course><gom:rel_alt>13.404</gom:rel_alt></extensions></trkpt>
   <trkpt lat="59.0657424901" lon="29.9693652545"><ele>90.821</ele><time>2026-04-25T14:59:18.000Z</time><hdop>4.687</hdop><vdop>4.5</vdop><extensions><gom:speed>0.934</gom:speed><gom:course>222.388</gom:course><gom:rel_alt>13.623</gom:rel_alt></extensions></trkpt>
   <trkpt lat="59.0657301687" lon="29.9692112789"><ele>90.506</ele><time>2026-04-25T14:59:28.000Z</time><hdop>4.687</hdop><vdop>4.937</vdop><extensions><gom:speed>0.975</gom:speed><gom:course>250.206</gom:course><gom:rel_alt>13.478</gom:rel_alt></extensions></trkpt>
   <trkpt lat="59.06576663" lon="29.9690774199"><ele>89.923</ele><time>2026-04-25T14:59:38.000Z</time><hdop>4.687</hdop><vdop>5.062</vdop><extensions><gom:speed>0.739</gom:speed><gom:course>293.669</gom:course><gom:rel_alt>13.364</gom:rel_alt></extensions></trkpt>
   <trkpt lat="59.0657214934" lon="29.968967617"><ele>89.468</ele><time>2026-04-25T14:59:48.000Z</time><hdop>4.687</hdop><vdop>4.5</vdop><extensions><gom:speed>0.6</gom:speed><gom:course>248.047</gom:course><gom:rel_alt>13.531</gom:rel_alt></extensions></trkpt>
   <trkpt lat="59.0657322642" lon="29.9688253761"><ele>89.376</ele><time>2026-04-25T15:00:01.000Z</time><hdop>4.687</hdop><vdop>4.312</vdop><extensions><gom:speed>0.566</gom:speed><gom:course>277.925</gom:course><gom:rel_alt>13.481</gom:rel_alt></extensions></trkpt>
   <trkpt lat="59.065720739" lon="29.9686798662"><ele>89.451</ele><time>2026-04-25T15:00:13.000Z</time><hdop>4.687</hdop><vdop>4.75</vdop><extensions><gom:speed>0.881</gom:speed><gom:course>257.853</gom:course><gom:rel_alt>13.404</gom:rel_alt></extensions></trkpt>
   <trkpt lat="59.0657312164" lon="29.9685324286"><ele>89.567</ele><time>2026-04-25T15:00:23.000Z</time><hdop>4.687</hdop><vdop>4.5</vdop><extensions><gom:speed>1.036</gom:speed><gom:course>274.547</gom:course><gom:rel_alt>13.452</gom:rel_alt></extensions></trkpt>
   <trkpt lat="59.0656864571" lon="29.9684153334"><ele>89.69</ele><time>2026-04-25T15:00:33.000Z</time><hdop>4.687</hdop><vdop>4.812</vdop><extensions><gom:speed>0.7</gom:speed><gom:course>231.062</gom:course></extensions></trkpt>
   <trkpt lat="59.0656813022" lon="29.968264962"><ele>88.959</ele><time>2026-04-25T15:00:46.000Z</time><hdop>4.687</hdop><vdop>4.625</vdop><extensions><gom:speed>0.714</gom:speed><gom:course>255.88</gom:course><gom:rel_alt>13.507</gom:rel_alt></extensions></trkpt>
   <trkpt lat="59.0657113932" lon="29.9681314383"><ele>88.244</ele><time>2026-04-25T15:03:03.999Z</time><hdop>4.687</hdop><vdop>5.062</vdop><extensions><gom:speed>1.027</gom:speed><gom:course>301.128</gom:course><gom:rel_alt>13.938</gom:rel_alt></extensions></trkpt>
   <trkpt lat="59.0657007063" lon="29.9679777142"><ele>88.408</ele><time>2026-04-25T15:03:16.000Z</time><hdop>4.687</hdop><vdop>4.5</vdop><extensions><gom:speed>0.811</gom:speed><gom:course>231.254</gom:course></extensions></trkpt>
   <trkpt lat="59.0657344015" lon="29.9678508122"><ele>87.772</ele><time>2026-04-25T15:03:27.000Z</time><hdop>4.687</hdop><vdop>5.375</vdop><extensions><gom:speed>0.918</gom:speed><gom:course>294.652</gom:course><gom:rel_alt>13.658</gom:rel_alt></extensions></trkpt>
   <trkpt lat="59.0657734612" lon="29.9677299451"><ele>88.703</ele><time>2026-04-25T15:03:39.000Z</time><hdop>4.687</hdop><vdop>5.312</vdop><extensions><gom:speed>0.53</gom:speed><gom:course>317.152</gom:course><gom:rel_alt>13.787</gom:rel_alt></extensions></trkpt>
   <trkpt lat="59.0657511234" lon="29.967585525"><ele>87.27</ele><time>2026-04-25T15:03:50.000Z</time><hdop>4.687</hdop><vdop>5.75</vdop><extensions><gom:speed>0.822</gom:speed><gom:course>234.385</gom:course><gom:rel_alt>13.787</gom:rel_alt></extensions></trkpt>
   <trkpt lat="59.0657236308" lon="29.9674489837"><ele>86.731</ele><time>2026-04-25T15:04:04.000Z</time><hdop>4.687</hdop><vdop>4.937</vdop><extensions><gom:speed>0.778</gom:speed><gom:course>293.685</gom:course><gom:rel_alt>13.845</gom:rel_alt></extensions></trkpt>
   <trkpt lat="59.065697605" lon="29.9673039768"><ele>86.374</ele><time>2026-04-25T15:04:18.000Z</time><hdop>4.687</hdop><vdop>4.875</vdop><extensions><gom:speed>0.731</gom:speed><gom:course>270.3</gom:course><gom:rel_alt>13.848</gom:rel_alt></extensions></trkpt>
   <trkpt lat="59.0656817213" lon="29.9671639152"><ele>86.645</ele><time>2026-04-25T15:04:30.000Z</time><hdop>4.687</hdop><vdop>5.187</vdop><extensions><gom:speed>0.882</gom:speed><gom:course>239.324</gom:course></extensions></trkpt>
   <trkpt lat="59.0656349503" lon="29.9670383543"><ele>86.238</ele><time>2026-04-25T15:04:41.000Z</time><hdop>4.687</hdop><vdop>5.437</vdop><extensions><gom:speed>0.774</gom:speed><gom:course>223.789</gom:course><gom:rel_alt>13.729</gom:rel_alt></extensions></trkpt>
   <trkpt lat="59.0655704515" lon="29.9669504281"><ele>87.185</ele><time>2026-04-25T15:04:52.000Z</time><hdop>4.687</hdop><vdop>5.0</vdop><extensions><gom:speed>0.676</gom:speed><gom:course>203.607</gom:course><gom:rel_alt>13.837</gom:rel_alt></extensions></trkpt>
   <trkpt lat="59.0655193219" lon="29.9668323271"><ele>89.434</ele><time>2026-04-25T15:05:05.000Z</time><hdop>4.687</hdop><vdop>4.375</vdop><extensions><gom:speed>0.76</gom:speed><gom:course>254.584</gom:course><gom:rel_alt>13.724</gom:rel_alt></extensions></trkpt>
   <trkpt lat="59.0655074615" lon="29.9666894157"><ele>89.585</ele><time>2026-04-25T15:05:15.000Z</time><hdop>4.687</hdop><vdop>4.75</vdop><extensions><gom:speed>1.145</gom:speed><gom:course>289.615</gom:course><gom:rel_alt>13.977</gom:rel_alt></extensions></trkpt>
   <trkpt lat="59.0654817291" lon="29.9665470071"><ele>89.406</ele><time>2026-04-25T15:05:25.000Z</time><hdop>4.687</hdop><vdop>5.437</vdop><extensions><gom:speed>0.813</gom:speed><gom:course>268.158</gom:course><gom:rel_alt>13.758</gom:rel_alt></extensions></trkpt>
   <trkpt lat="59.0654782506" lon="29.9663931992"><ele>89.692</ele><time>2026-04-25T15:05:36.000Z</time><hdop>4.687</hdop><vdop>5.5</vdop><extensions><gom:speed>0.759</gom:speed><gom:course>274.667</gom:course><gom:rel_alt>13.898</gom:rel_alt></extensions></trkpt>
   <trkpt lat="59.0655054918" lon="29.9662552331"><ele>88.846</ele><time>2026-04-25T15:05:48.000Z</time><hdop>4.687</hdop><vdop>4.875</vdop><extensions><gom:speed>0.284</gom:speed><gom:course>318.58</gom:course><gom:rel_alt>13.895</gom:rel_alt></extensions></trkpt>
   <trkpt lat="59.0654373469" lon="29.9661958054"><ele>91.142</ele><time>2026-04-25T15:06:14.000Z</time><hdop>4.687</hdop><vdop>4.312</vdop><extensions><gom:speed>0.299</gom:speed><gom:course>183.99</gom:course><gom:rel_alt>13.861</gom:rel_alt></extensions></trkpt>
   <trkpt lat="59.0654311024" lon="29.9660437577"><ele>90.831</ele><time>2026-04-25T15:06:29.000Z</time><hdop>4.687</hdop><vdop>4.125</vdop><extensions><gom:speed>0.419</gom:speed><gom:rel_alt>13.877</gom:rel_alt></extensions></trkpt>
   <trkpt lat="59.0654761132" lon="29.9659254052"><ele>92.992</ele><time>2026-04-25T15:06:41.000Z</time><hdop>4.687</hdop><vdop>4.875</vdop><extensions><gom:speed>0.471</gom:speed><gom:course>324.315</gom:course><gom:rel_alt>13.917</gom:rel_alt></extensions></trkpt>
   <trkpt lat="59.0655240158" lon="29.9658175301"><ele>93.623</ele><time>2026-04-25T15:06:56.000Z</time><hdop>4.687</hdop><vdop>4.687</vdop><extensions><gom:speed>0.489</gom:speed><gom:course>351.793</gom:course><gom:rel_alt>13.985</gom:rel_alt></extensions></trkpt>
   <trkpt lat="59.0655590102" lon="29.9656851799"><ele>92.699</ele><time>2026-04-25T15:07:12.000Z</time><hdop>4.687</hdop><vdop>4.437</vdop><extensions><gom:speed>0.151</gom:speed><gom:course>318.394</gom:course></extensions></trkpt>
   <trkpt lat="59.0654860877" lon="29.9656816595"><ele>91.624</ele><time>2026-04-25T15:08:14.000Z</time><hdop>4.687</hdop><vdop>3.937</vdop><extensions><gom:speed>0.202</gom:speed><gom:course>141.687</gom:course><gom:rel_alt>13.486</gom:rel_alt></extensions></trkpt>
   <trkpt lat="59.0654050766" lon="29.9656703439"><ele>89.486</ele><time>2026-04-25T15:08:35.000Z</time><hdop>4.687</hdop><vdop>4.875</vdop><extensions><gom:speed>0.759</gom:speed><gom:course>169.62</gom:course><gom:rel_alt>13.37</gom:rel_alt></extensions></trkpt>
   <trkpt lat="59.0653334113" lon="29.9656278476"><ele>91.568</ele><time>2026-04-25T15:08:50.000Z</time><hdop>4.687</hdop><vdop>4.75</vdop><extensions><gom:speed>0.552</gom:speed><gom:course>218.988</gom:course><gom:rel_alt>13.29</gom:rel_alt></extensions></trkpt>
   <trkpt lat="59.0652596086" lon="29.9656255845"><ele>90.846</ele><time>2026-04-25T15:09:03.000Z</time><hdop>4.687</hdop><vdop>4.75</vdop><extensions><gom:speed>0.418</gom:speed><gom:course>179.969</gom:course><gom:rel_alt>13.681</gom:rel_alt></extensions></trkpt>
   <trkpt lat="59.0651901227" lon="29.9656624649"><ele>89.943</ele><time>2026-04-25T15:09:12.000Z</time><hdop>4.687</hdop><vdop>5.187</vdop><extensions><gom:speed>0.541</gom:speed><gom:course>169.73</gom:course><gom:rel_alt>13.806</gom:rel_alt></extensions></trkpt>
   <trkpt lat="59.0651188765" lon="29.9656835035"><ele>92.534</ele><time>2026-04-25T15:09:25.000Z</time><hdop>4.687</hdop><vdop>4.687</vdop><extensions><gom:speed>0.194</gom:speed><gom:course>185.144</gom:course><gom:rel_alt>14.033</gom:rel_alt></extensions></trkpt>
   <trkpt lat="59.0650918448" lon="29.9655509018"><ele>91.753</ele><time>2026-04-25T15:09:49.000Z</time><hdop>4.687</hdop><vdop>4.625</vdop><extensions><gom:speed>0.496</gom:speed><gom:course>185.144</gom:course><gom:rel_alt>13.592</gom:rel_alt></extensions></trkpt>
   <trkpt lat="59.0650128454" lon="29.9655607924"><ele>90.463</ele><time>2026-04-25T15:10:01.000Z</time><hdop>4.687</hdop><vdop>4.875</vdop><extensions><gom:speed>0.347</gom:speed><gom:course>192.62</gom:course><gom:rel_alt>13.56</gom:rel_alt></extensions></trkpt>
   <trkpt lat="59.0649366539" lon="29.9655682523"><ele>90.781</ele><time>2026-04-25T15:10:12.000Z</time><hdop>4.687</hdop><vdop>4.75</vdop><extensions><gom:speed>0.435</gom:speed><gom:course>194.01</gom:course><gom:rel_alt>13.954</gom:rel_alt></extensions></trkpt>
   <trkpt lat="59.0648618035" lon="29.9655929789"><ele>91.849</ele><time>2026-04-25T15:10:22.000Z</time><hdop>4.687</hdop><vdop>5.25</vdop><extensions><gom:speed>0.628</gom:speed><gom:course>178.387</gom:course><gom:rel_alt>14.041</gom:rel_alt></extensions></trkpt>
   <trkpt lat="59.0647924852" lon="29.9655530811"><ele>92.043</ele><time>2026-04-25T15:10:34.000Z</time><hdop>4.687</hdop><vdop>5.0</vdop><extensions><gom:speed>0.258</gom:speed><gom:course>223.624</gom:course><gom:rel_alt>14.102</gom:rel_alt></extensions></trkpt>
   <trkpt lat="59.0647160841" lon="29.9655340542"><ele>92.833</ele><time>2026-04-25T15:10:45.000Z</time><hdop>4.687</hdop><vdop>5.062</vdop><extensions><gom:speed>0.367</gom:speed><gom:course>179.156</gom:course><gom:rel_alt>14.088</gom:rel_alt></extensions></trkpt>
   <trkpt lat="59.064662859" lon="29.9654329684"><ele>91.632</ele><time>2026-04-25T15:10:56.000Z</time><hdop>4.687</hdop><vdop>4.5</vdop><extensions><gom:speed>0.467</gom:speed><gom:course>264.208</gom:course><gom:rel_alt>14.223</gom:rel_alt></extensions></trkpt>
   <trkpt lat="59.0645910261" lon="29.965382677"><ele>90.899</ele><time>2026-04-25T15:11:09.000Z</time><hdop>4.687</hdop><vdop>5.062</vdop><extensions><gom:speed>0.583</gom:speed><gom:course>174.564</gom:course><gom:rel_alt>13.946</gom:rel_alt></extensions></trkpt>
   <trkpt lat="59.0645229651" lon="29.9654566892"><ele>92.447</ele><time>2026-04-25T15:11:21.000Z</time><hdop>4.687</hdop><vdop>4.437</vdop><extensions><gom:speed>0.338</gom:speed><gom:course>184.479</gom:course><gom:rel_alt>14.014</gom:rel_alt></extensions></trkpt>
   <trkpt lat="59.0644458935" lon="29.9654431943"><ele>91.263</ele><time>2026-04-25T15:11:32.000Z</time><hdop>4.687</hdop><vdop>5.125</vdop><extensions><gom:speed>0.55</gom:speed><gom:course>196.46</gom:course><gom:rel_alt>14.168</gom:rel_alt></extensions></trkpt>
   <trkpt lat="59.064366433" lon="29.965414612"><ele>92.461</ele><time>2026-04-25T15:11:42.000Z</time><hdop>4.687</hdop><vdop>4.625</vdop><extensions><gom:speed>0.745</gom:speed><gom:course>157.936</gom:course><gom:rel_alt>14.168</gom:rel_alt></extensions></trkpt>
   <trkpt lat="59.0642943068" lon="29.9654170428"><ele>92.58</ele><time>2026-04-25T15:11:54.000Z</time><hdop>4.687</hdop><vdop>4.875</vdop><extensions><gom:speed>0.214</gom:speed><gom:course>156.387</gom:course><gom:rel_alt>13.946</gom:rel_alt></extensions></trkpt>
   <trkpt lat="59.0642181991" lon="29.9654057272"><ele>90.951</ele><time>2026-04-25T15:12:04.000Z</time><hdop>4.687</hdop><vdop>5.25</vdop><extensions><gom:speed>0.534</gom:speed><gom:rel_alt>13.938</gom:rel_alt></extensions></trkpt>
   <trkpt lat="59.0641401636" lon="29.9653711938"><ele>92.689</ele><time>2026-04-25T15:12:17.000Z</time><hdop>4.687</hdop><vdop>4.812</vdop><extensions><gom:speed>0.483</gom:speed><gom:course>172.323</gom:course><gom:rel_alt>13.385</gom:rel_alt></extensions></trkpt>
   <trkpt lat="59.0640631758" lon="29.9653479759"><ele>91.688</ele><time>2026-04-25T15:12:30.000Z</time><hdop>4.687</hdop><vdop>5.062</vdop><extensions><gom:speed>0.599</gom:speed><gom:course>174.135</gom:course><gom:rel_alt>13.713</gom:rel_alt></extensions></trkpt>
   <trkpt lat="59.0639886188" lon="29.9653364927"><ele>91.553</ele><time>2026-04-25T15:13:00.000Z</time><hdop>4.687</hdop><vdop>5.125</vdop><extensions><gom:speed>0.476</gom:speed><gom:course>232.661</gom:course><gom:rel_alt>14.234</gom:rel_alt></extensions></trkpt>
   <trkpt lat="59.0639190909" lon="29.9652813398"><ele>90.715</ele><time>2026-04-25T15:13:12.000Z</time><hdop>4.687</hdop><vdop>4.937</vdop><extensions><gom:speed>0.466</gom:speed><gom:course>157.463</gom:course><gom:rel_alt>13.449</gom:rel_alt></extensions></trkpt>
   <trkpt lat="59.0638484733" lon="29.9652426992"><ele>91.182</ele><time>2026-04-25T15:13:24.000Z</time><hdop>4.687</hdop><vdop>4.687</vdop><extensions><gom:speed>0.411</gom:speed><gom:course>185.929</gom:course><gom:rel_alt>13.885</gom:rel_alt></extensions></trkpt>
   <trkpt lat="59.0637787778" lon="29.9651971855"><ele>91.56</ele><time>2026-04-25T15:13:33.000Z</time><hdop>4.687</hdop><vdop>4.75</vdop><extensions><gom:speed>0.429</gom:speed><gom:course>201.679</gom:course><gom:rel_alt>13.882</gom:rel_alt></extensions></trkpt>
   <trkpt lat="59.0637138181" lon="29.9652654142"><ele>94.429</ele><time>2026-04-25T15:13:58.000Z</time><hdop>4.687</hdop><vdop>4.375</vdop><extensions><gom:speed>0.0</gom:speed><gom:course>82.596</gom:course><gom:rel_alt>14.202</gom:rel_alt></extensions></trkpt>
   <trkpt lat="59.063655019" lon="29.9653619737"><ele>93.836</ele><time>2026-04-25T15:14:39.000Z</time><hdop>4.687</hdop><vdop>4.437</vdop><extensions><gom:speed>0.405</gom:speed><gom:course>160.144</gom:course><gom:rel_alt>14.532</gom:rel_alt></extensions></trkpt>
   <trkpt lat="59.0635830604" lon="29.9653955851"><ele>91.803</ele><time>2026-04-25T15:14:54.000Z</time><hdop>4.687</hdop><vdop>4.437</vdop><extensions><gom:speed>0.2</gom:speed><gom:course>135.606</gom:course><gom:rel_alt>14.543</gom:rel_alt></extensions></trkpt>
   <trkpt lat="59.0635111017" lon="29.9653907236"><ele>92.235</ele><time>2026-04-25T15:15:07.000Z</time><hdop>4.687</hdop><vdop>4.562</vdop><extensions><gom:speed>0.278</gom:speed><gom:course>179.914</gom:course><gom:rel_alt>14.559</gom:rel_alt></extensions></trkpt>
   <trkpt lat="59.0634393107" lon="29.9653970939"><ele>93.404</ele><time>2026-04-25T15:15:41.999Z</time><hdop>4.687</hdop><vdop>4.5</vdop><extensions><gom:speed>0.07</gom:speed><gom:course>187.632</gom:course><gom:rel_alt>14.72</gom:rel_alt></extensions></trkpt>
   <trkpt lat="59.0635275722" lon="29.9653739598"><ele>95.832</ele><time>2026-04-25T15:16:43.000Z</time><hdop>4.687</hdop><vdop>5.062</vdop><extensions><gom:speed>0.019</gom:speed><gom:course>135.721</gom:course><gom:rel_alt>14.487</gom:rel_alt></extensions></trkpt>
   <trkpt lat="59.0634663005" lon="29.9654497322"><ele>92.54</ele><time>2026-04-25T15:21:38.000Z</time><hdop>4.687</hdop><vdop>3.5</vdop><extensions><gom:speed>0.0</gom:speed><gom:course>144.719</gom:course><gom:rel_alt>15.367</gom:rel_alt></extensions></trkpt>
   <trkpt lat="59.0634441722" lon="29.9653148674"><ele>92.89</ele><time>2026-04-25T15:23:03.000Z</time><hdop>4.687</hdop><vdop>4.562</vdop><extensions><gom:speed>0.114</gom:speed><gom:course>85.919</gom:course><gom:rel_alt>15.621</gom:rel_alt></extensions></trkpt>
   <trkpt lat="59.0634836091" lon="29.9654534202"><ele>90.425</ele><time>2026-04-25T15:23:25.000Z</time><hdop>4.687</hdop><vdop>3.0</vdop><extensions><gom:speed>0.703</gom:speed><gom:course>85.37</gom:course></extensions></trkpt>
   <trkpt lat="59.0634973973" lon="29.9656065576"><ele>94.351</ele><time>2026-04-25T15:23:33.000Z</time><hdop>4.687</hdop><vdop>3.0</vdop><extensions><gom:speed>1.678</gom:speed><gom:rel_alt>15.6</gom:rel_alt></extensions></trkpt>
   <trkpt lat="59.0635161309" lon="29.9654653225"><ele>90.044</ele><time>2026-04-25T15:24:06.000Z</time><hdop>4.687</hdop><vdop>4.125</vdop><extensions><gom:speed>0.0</gom:speed><gom:course>67.182</gom:course><gom:rel_alt>15.262</gom:rel_alt></extensions></trkpt>
   <trkpt lat="59.0634943798" lon="29.9653183878"><ele>87.323</ele><time>2026-04-25T15:24:45.000Z</time><hdop>4.687</hdop><vdop>3.0</vdop><extensions><gom:speed>0.232</gom:speed><gom:course>241.505</gom:course><gom:rel_alt>15.565</gom:rel_alt></extensions></trkpt>
   <trkpt lat="59.0634240976" lon="29.9653479759"><ele>88.769</ele><time>2026-04-25T15:25:49.000Z</time><hdop>4.687</hdop><vdop>3.0</vdop><extensions><gom:speed>0.278</gom:speed><gom:course>251.98</gom:course><gom:rel_alt>15.972</gom:rel_alt></extensions></trkpt>
   <trkpt lat="59.0633560365" lon="29.9652894702"><ele>86.696</ele><time>2026-04-25T15:26:02.000Z</time><hdop>4.687</hdop><vdop>3.0</vdop><extensions><gom:speed>0.801</gom:speed><gom:course>210.764</gom:course><gom:rel_alt>15.774</gom:rel_alt></extensions></trkpt>
   <trkpt lat="59.0632832816" lon="29.9652426154"><ele>87.304</ele><time>2026-04-25T15:26:09.000Z</time><hdop>4.687</hdop><vdop>3.0</vdop><extensions><gom:speed>0.623</gom:speed><gom:course>198.844</gom:course><gom:rel_alt>15.845</gom:rel_alt></extensions></trkpt>
   <trkpt lat="59.0632358819" lon="29.9651272804"><ele>85.369</ele><time>2026-04-25T15:26:22.000Z</time><hdop>4.687</hdop><vdop>3.0</vdop><extensions><gom:speed>0.582</gom:speed><gom:course>234.896</gom:course><gom:rel_alt>15.782</gom:rel_alt></extensions></trkpt>
   <trkpt lat="59.0631679885" lon="29.9650693614"><ele>86.298</ele><time>2026-04-25T15:26:41.000Z</time><hdop>4.687</hdop><vdop>3.0</vdop><extensions><gom:speed>0.892</gom:speed><gom:course>247.476</gom:course><gom:rel_alt>15.697</gom:rel_alt></extensions></trkpt>
   <trkpt lat="59.0630944373" lon="29.9649876379"><ele>84.122</ele><time>2026-04-25T15:26:57.000Z</time><hdop>4.687</hdop><vdop>3.0</vdop><extensions><gom:speed>0.538</gom:speed><gom:course>199.707</gom:course><gom:rel_alt>15.679</gom:rel_alt></extensions></trkpt>
   <trkpt lat="59.0630208442" lon="29.9649857939"><ele>83.112</ele><time>2026-04-25T15:27:04.000Z</time><hdop>4.687</hdop><vdop>3.0</vdop><extensions><gom:speed>0.605</gom:speed><gom:course>189.319</gom:course><gom:rel_alt>15.515</gom:rel_alt></extensions></trkpt>
   <trkpt lat="59.0629479217" lon="29.964944052"><ele>85.236</ele><time>2026-04-25T15:27:16.000Z</time><hdop>4.687</hdop><vdop>3.0</vdop><extensions><gom:speed>0.771</gom:speed><gom:course>200.256</gom:course><gom:rel_alt>15.259</gom:rel_alt></extensions></trkpt>
   <trkpt lat="59.0628798187" lon="29.9650101852"><ele>87.712</ele><time>2026-04-25T15:27:32.000Z</time><hdop>4.687</hdop><vdop>4.875</vdop><extensions><gom:speed>0.47</gom:speed><gom:course>177.58</gom:course><gom:rel_alt>16.065</gom:rel_alt></extensions></trkpt>
   <trkpt lat="59.0628076505" lon="29.9650161364"><ele>89.962</ele><time>2026-04-25T15:27:47.000Z</time><hdop>4.687</hdop><vdop>4.437</vdop><extensions><gom:speed>0.598</gom:speed><gom:course>177.305</gom:course><gom:rel_alt>16.184</gom:rel_alt></extensions></trkpt>
   <trkpt lat="59.0627303274" lon="29.9649934214"><ele>90.058</ele><time>2026-04-25T15:28:00.000Z</time><hdop>4.687</hdop><vdop>4.75</vdop><extensions><gom:speed>0.7</gom:speed><gom:course>192.0</gom:course><gom:rel_alt>16.239</gom:rel_alt></extensions></trkpt>
   <trkpt lat="59.0626714865" lon="29.9649104406"><ele>88.679</ele><time>2026-04-25T15:28:12.000Z</time><hdop>4.687</hdop><vdop>4.687</vdop><extensions><gom:speed>0.382</gom:speed><gom:course>181.491</gom:course><gom:rel_alt>16.287</gom:rel_alt></extensions></trkpt>
   <trkpt lat="59.0625955464" lon="29.9648996279"><ele>91.674</ele><time>2026-04-25T15:28:24.000Z</time><hdop>4.687</hdop><vdop>4.625</vdop><extensions><gom:speed>0.336</gom:speed><gom:course>181.985</gom:course><gom:rel_alt>16.231</gom:rel_alt></extensions></trkpt>
   <trkpt lat="59.062520277" lon="29.9649096024"><ele>90.679</ele><time>2026-04-25T15:28:44.000Z</time><hdop>4.687</hdop><vdop>4.312</vdop><extensions><gom:speed>0.08</gom:speed><gom:course>32.272</gom:course><gom:rel_alt>16.321</gom:rel_alt></extensions></trkpt>
   <trkpt lat="59.0624462647" lon="29.9649115302"><ele>90.845</ele><time>2026-04-25T15:28:55.000Z</time><hdop>4.687</hdop><vdop>4.75</vdop><extensions><gom:speed>0.133</gom:speed><gom:course>32.272</gom:course><gom:rel_alt>16.501</gom:rel_alt></extensions></trkpt>
   <trkpt lat="59.0623854959" lon="29.9648318183"><ele>91.194</ele><time>2026-04-25T15:29:09.000Z</time><hdop>4.687</hdop><vdop>4.687</vdop><extensions><gom:speed>0.239</gom:speed><gom:course>32.272</gom:course><gom:rel_alt>16.694</gom:rel_alt></extensions></trkpt>
   <trkpt lat="59.0623125315" lon="29.9647723068"><ele>89.772</ele><time>2026-04-25T15:29:23.000Z</time><hdop>4.687</hdop><vdop>4.875</vdop><extensions><gom:speed>0.056</gom:speed><gom:course>32.272</gom:course><gom:rel_alt>16.612</gom:rel_alt></extensions></trkpt>
   <trkpt lat="59.0622387288" lon="29.964755543"><ele>89.355</ele><time>2026-04-25T15:29:36.000Z</time><hdop>4.687</hdop><vdop>5.0</vdop><extensions><gom:speed>0.092</gom:speed><gom:course>32.272</gom:course><gom:rel_alt>16.588</gom:rel_alt></extensions></trkpt>
   <trkpt lat="59.0621670636" lon="29.9647376057"><ele>90.937</ele><time>2026-04-25T15:29:46.000Z</time><hdop>4.687</hdop><vdop>4.937</vdop><extensions><gom:speed>0.092</gom:speed><gom:course>32.272</gom:course><gom:rel_alt>16.604</gom:rel_alt></extensions></trkpt>
   <trkpt lat="59.0620923389" lon="29.9647044134"><ele>90.491</ele><time>2026-04-25T15:30:00.000Z</time><hdop>4.687</hdop><vdop>4.812</vdop><extensions><gom:speed>0.054</gom:speed><gom:course>32.272</gom:course><gom:rel_alt>16.469</gom:rel_alt></extensions></trkpt>
   <trkpt lat="59.0620153511" lon="29.9647413776"><ele>91.21</ele><time>2026-04-25T15:30:13.999Z</time><hdop>4.687</hdop><vdop>5.062</vdop><extensions><gom:speed>0.37</gom:speed><gom:course>169.889</gom:course><gom:rel_alt>16.474</gom:rel_alt></extensions></trkpt>
   <trkpt lat="59.0619455718" lon="29.9646936845"><ele>90.505</ele><time>2026-04-25T15:30:26.999Z</time><hdop>4.687</hdop><vdop>5.25</vdop><extensions><gom:speed>0.282</gom:speed><gom:course>207.177</gom:course><gom:rel_alt>16.628</gom:rel_alt></extensions></trkpt>
   <trkpt lat="59.0618752057" lon="29.9646366876"><ele>90.503</ele><time>2026-04-25T15:30:40.000Z</time><hdop>4.687</hdop><vdop>4.812</vdop><extensions><gom:speed>0.243</gom:speed><gom:rel_alt>16.662</gom:rel_alt></extensions></trkpt>
   <trkpt lat="59.061803289" lon="29.9646008131"><ele>91.269</ele><time>2026-04-25T15:30:52.000Z</time><hdop>4.687</hdop><vdop>5.375</vdop><extensions><gom:speed>0.299</gom:speed><gom:course>194.433</gom:course><gom:rel_alt>16.633</gom:rel_alt></extensions></trkpt>
   <trkpt lat="59.0617241219" lon="29.9645698838"><ele>89.554</ele><time>2026-04-25T15:31:06.000Z</time><hdop>4.687</hdop><vdop>5.25</vdop><extensions><gom:speed>0.49</gom:speed><gom:course>182.046</gom:course><gom:rel_alt>16.715</gom:rel_alt></extensions></trkpt>
   <trkpt lat="59.0617996009" lon="29.9646352627"><ele>91.97</ele><time>2026-04-25T15:31:39.000Z</time><hdop>4.687</hdop><vdop>5.187</vdop><extensions><gom:speed>0.556</gom:speed><gom:course>35.228</gom:course><gom:rel_alt>16.731</gom:rel_alt></extensions></trkpt>
   <trkpt lat="59.0617205596" lon="29.9646149785"><ele>92.938</ele><time>2026-04-25T15:31:56.000Z</time><hdop>4.687</hdop><vdop>4.562</vdop><extensions><gom:speed>0.096</gom:speed><gom:course>35.338</gom:course><gom:rel_alt>16.702</gom:rel_alt></extensions></trkpt>
   <trkpt lat="59.0616497744" lon="29.9645746615"><ele>91.841</ele><time>2026-04-25T15:32:05.000Z</time><hdop>4.687</hdop><vdop>4.812</vdop><extensions><gom:speed>0.148</gom:speed><gom:course>35.338</gom:course><gom:rel_alt>16.744</gom:rel_alt></extensions></trkpt>
   <trkpt lat="59.0615723675" lon="29.9645630945"><ele>90.541</ele><time>2026-04-25T15:32:17.000Z</time><hdop>4.687</hdop><vdop>4.625</vdop><extensions><gom:speed>0.27</gom:speed><gom:course>48.741</gom:course><gom:rel_alt>16.606</gom:rel_alt></extensions></trkpt>
   <trkpt lat="59.0614986068" lon="29.9645557184"><ele>90.842</ele><time>2026-04-25T15:32:26.999Z</time><hdop>4.687</hdop><vdop>5.187</vdop><extensions><gom:speed>0.445</gom:speed><gom:course>204.019</gom:course><gom:rel_alt>16.358</gom:rel_alt></extensions></trkpt>
   <trkpt lat="59.0614201941" lon="29.9645441514"><ele>90.007</ele><time>2026-04-25T15:32:45.999Z</time><hdop>4.687</hdop><vdop>4.812</vdop><extensions><gom:speed>0.338</gom:speed><gom:course>218.048</gom:course><gom:rel_alt>16.408</gom:rel_alt></extensions></trkpt>
   <trkpt lat="59.0613482354" lon="29.9645231128"><ele>88.405</ele><time>2026-04-25T15:32:56.999Z</time><hdop>4.687</hdop><vdop>4.812</vdop><extensions><gom:speed>0.433</gom:speed><gom:course>188.808</gom:course><gom:rel_alt>16.805</gom:rel_alt></extensions></trkpt>
   <trkpt lat="59.0612779532" lon="29.964478102"><ele>88.112</ele><time>2026-04-25T15:33:07.999Z</time><hdop>4.687</hdop><vdop>4.937</vdop><extensions><gom:speed>0.46</gom:speed><gom:course>182.331</gom:course><gom:rel_alt>16.345</gom:rel_alt></extensions></trkpt>
   <trkpt lat="59.0612031028" lon="29.9644527886"><ele>87.17</ele><time>2026-04-25T15:33:20.000Z</time><hdop>4.687</hdop><vdop>5.0</vdop><extensions><gom:speed>0.474</gom:speed><gom:course>198.454</gom:course><gom:rel_alt>16.477</gom:rel_alt></extensions></trkpt>
   <trkpt lat="59.0611570023" lon="29.9643394653"><ele>87.545</ele><time>2026-04-25T15:33:32.000Z</time><hdop>4.687</hdop><vdop>4.812</vdop><extensions><gom:speed>0.31</gom:speed><gom:course>241.593</gom:course><gom:rel_alt>15.978</gom:rel_alt></extensions></trkpt>
   <trkpt lat="59.0611243967" lon="29.9642133177"><ele>86.393</ele><time>2026-04-25T15:33:53.000Z</time><hdop>4.687</hdop><vdop>4.5</vdop><extensions><gom:speed>0.055</gom:speed><gom:course>278.518</gom:course><gom:rel_alt>15.867</gom:rel_alt></extensions></trkpt>
   <trkpt lat="59.0611627439" lon="29.9643460032"><ele>87.172</ele><time>2026-04-25T15:34:02.000Z</time><hdop>4.687</hdop><vdop>4.687</vdop><extensions><gom:speed>0.12</gom:speed><gom:course>278.644</gom:course><gom:rel_alt>15.764</gom:rel_alt></extensions></trkpt>
   <trkpt lat="59.0610836607" lon="29.9643834703"><ele>86.699</ele><time>2026-04-25T15:34:11.000Z</time><hdop>4.687</hdop><vdop>4.687</vdop><extensions><gom:speed>0.609</gom:speed><gom:course>218.938</gom:course><gom:rel_alt>16.313</gom:rel_alt></extensions></trkpt>
   <trkpt lat="59.0610127917" lon="29.9643508647"><ele>86.24</ele><time>2026-04-25T15:34:24.000Z</time><hdop>4.687</hdop><vdop>5.25</vdop><extensions><gom:speed>0.593</gom:speed><gom:course>205.227</gom:course><gom:rel_alt>16.789</gom:rel_alt></extensions></trkpt>
   <trkpt lat="59.060938067" lon="29.9643579893"><ele>87.342</ele><time>2026-04-25T15:34:33.999Z</time><hdop>4.687</hdop><vdop>5.312</vdop><extensions><gom:speed>0.444</gom:speed><gom:course>191.692</gom:course><gom:rel_alt>16.749</gom:rel_alt></extensions></trkpt>
   <trkpt lat="59.0608669885" lon="29.9643358611"><ele>88.903</ele><time>2026-04-25T15:34:51.000Z</time><hdop>4.687</hdop><vdop>4.812</vdop><extensions><gom:speed>0.652</gom:speed><gom:course>197.02</gom:course><gom:rel_alt>16.686</gom:rel_alt></extensions></trkpt>
   <trkpt lat="59.0607937306" lon="29.964316918"><ele>86.26</ele><time>2026-04-25T15:35:01.000Z</time><hdop>4.687</hdop><vdop>5.375</vdop><extensions><gom:speed>0.503</gom:speed><gom:course>175.113</gom:course><gom:rel_alt>16.665</gom:rel_alt></extensions></trkpt>
   <trkpt lat="59.0607228616" lon="29.9643448297"><ele>87.102</ele><time>2026-04-25T15:35:13.000Z</time><hdop>4.687</hdop><vdop>5.25</vdop><extensions><gom:speed>0.318</gom:speed><gom:course>167.56</gom:course><gom:rel_alt>17.188</gom:rel_alt></extensions></trkpt>
   <trkpt lat="59.0606502324" lon="29.9643198517"><ele>87.068</ele><time>2026-04-25T15:35:28.000Z</time><hdop>4.687</hdop><vdop>4.937</vdop><extensions><gom:speed>0.303</gom:speed><gom:course>202.107</gom:course><gom:rel_alt>17.132</gom:rel_alt></extensions></trkpt>
   <trkpt lat="59.0605809141" lon="29.9643971328"><ele>89.463</ele><time>2026-04-25T15:35:42.000Z</time><hdop>4.687</hdop><vdop>4.812</vdop><extensions><gom:speed>0.317</gom:speed><gom:course>147.653</gom:course></extensions></trkpt>
   <trkpt lat="59.0605056027" lon="29.9644089513"><ele>89.865</ele><time>2026-04-25T15:35:57.000Z</time><hdop>4.687</hdop><vdop>5.0</vdop><extensions><gom:speed>0.795</gom:speed><gom:course>169.351</gom:course></extensions></trkpt>
   <trkpt lat="59.0604292017" lon="29.9644465022"><ele>90.463</ele><time>2026-04-25T15:36:10.000Z</time><hdop>4.687</hdop><vdop>4.937</vdop><extensions><gom:speed>0.313</gom:speed><gom:course>174.328</gom:course><gom:rel_alt>17.724</gom:rel_alt></extensions></trkpt>
   <trkpt lat="59.0603582069" lon="29.96440585"><ele>91.029</ele><time>2026-04-25T15:36:29.000Z</time><hdop>4.687</hdop><vdop>4.937</vdop><extensions><gom:speed>0.459</gom:speed><gom:course>170.065</gom:course><gom:rel_alt>18.06</gom:rel_alt></extensions></trkpt>
   <trkpt lat="59.0602859968" lon="29.9643741664"><ele>90.584</ele><time>2026-04-25T15:36:39.999Z</time><hdop>4.687</hdop><vdop>5.0</vdop><extensions><gom:speed>0.58</gom:speed><gom:course>174.504</gom:course><gom:rel_alt>18.044</gom:rel_alt></extensions></trkpt>
   <trkpt lat="59.0602077937" lon="29.9643478472"><ele>90.284</ele><time>2026-04-25T15:36:56.000Z</time><hdop>4.687</hdop><vdop>5.0</vdop><extensions><gom:speed>0.252</gom:speed><gom:course>219.828</gom:course></extensions></trkpt>
   <trkpt lat="59.0601404032" lon="29.9642846477"><ele>90.831</ele><time>2026-04-25T15:37:10.000Z</time><hdop>4.687</hdop><vdop>5.125</vdop><extensions><gom:speed>0.924</gom:speed><gom:course>203.761</gom:course><gom:rel_alt>18.208</gom:rel_alt></extensions></trkpt>
   <trkpt lat="59.0600667263" lon="29.9642728292"><ele>91.805</ele><time>2026-04-25T15:37:21.000Z</time><hdop>4.687</hdop><vdop>4.875</vdop><extensions><gom:speed>0.245</gom:speed><gom:course>193.307</gom:course><gom:rel_alt>18.121</gom:rel_alt></extensions></trkpt>
   <trkpt lat="59.0600013055" lon="29.9642074503"><ele>90.505</ele><time>2026-04-25T15:37:38.000Z</time><hdop>4.687</hdop><vdop>5.437</vdop><extensions><gom:speed>0.338</gom:speed><gom:course>205.09</gom:course><gom:rel_alt>18.377</gom:rel_alt></extensions></trkpt>
   <trkpt lat="59.0599271676" lon="29.9641563207"><ele>90.42</ele><time>2026-04-25T15:37:49.000Z</time><hdop>4.687</hdop><vdop>5.062</vdop><extensions><gom:speed>0.163</gom:speed><gom:course>219.367</gom:course><gom:rel_alt>18.155</gom:rel_alt></extensions></trkpt>
   <trkpt lat="59.0598527782" lon="29.9641827237"><ele>88.144</ele><time>2026-04-25T15:38:06.000Z</time><hdop>4.687</hdop><vdop>4.812</vdop><extensions><gom:speed>0.503</gom:speed><gom:course>172.13</gom:course><gom:rel_alt>18.369</gom:rel_alt></extensions></trkpt>
   <trkpt lat="59.0598034507" lon="29.9640760221"><ele>89.103</ele><time>2026-04-25T15:38:22.000Z</time><hdop>4.687</hdop><vdop>4.875</vdop><extensions><gom:speed>0.706</gom:speed><gom:course>227.041</gom:course><gom:rel_alt>18.559</gom:rel_alt></extensions></trkpt>
   <trkpt lat="59.0597341323" lon="29.9640114814"><ele>87.664</ele><time>2026-04-25T15:38:42.000Z</time><hdop>4.687</hdop><vdop>3.0</vdop><extensions><gom:speed>0.39</gom:speed><gom:course>248.179</gom:course><gom:rel_alt>18.002</gom:rel_alt></extensions></trkpt>
   <trkpt lat="59.0596674962" lon="29.9639220465"><ele>87.868</ele><time>2026-04-25T15:38:55.000Z</time><hdop>4.687</hdop><vdop>3.0</vdop><extensions><gom:speed>0.572</gom:speed><gom:course>212.292</gom:course><gom:rel_alt>18.126</gom:rel_alt></extensions></trkpt>
   <trkpt lat="59.0596044224" lon="29.9638409935"><ele>88.164</ele><time>2026-04-25T15:39:06.000Z</time><hdop>4.687</hdop><vdop>4.062</vdop><extensions><gom:speed>0.372</gom:speed><gom:course>208.93</gom:course><gom:rel_alt>18.11</gom:rel_alt></extensions></trkpt>
   <trkpt lat="59.0595343497" lon="29.963804197"><ele>86.484</ele><time>2026-04-25T15:39:20.000Z</time><hdop>4.687</hdop><vdop>3.0</vdop><extensions><gom:speed>0.722</gom:speed><gom:course>211.369</gom:course><gom:rel_alt>17.901</gom:rel_alt></extensions></trkpt>
   <trkpt lat="59.0594612595" lon="29.9637752794"><ele>86.205</ele><time>2026-04-25T15:39:31.000Z</time><hdop>4.687</hdop><vdop>3.0</vdop><extensions><gom:speed>0.579</gom:speed><gom:course>193.505</gom:course><gom:rel_alt>17.806</gom:rel_alt></extensions></trkpt>
   <trkpt lat="59.0593900133" lon="29.9638166022"><ele>87.129</ele><time>2026-04-25T15:39:45.000Z</time><hdop>4.687</hdop><vdop>3.0</vdop><extensions><gom:speed>0.535</gom:speed><gom:course>117.484</gom:course><gom:rel_alt>18.3</gom:rel_alt></extensions></trkpt>
   <trkpt lat="59.0593332259" lon="29.9637242336"><ele>87.007</ele><time>2026-04-25T15:40:12.000Z</time><hdop>4.687</hdop><vdop>4.375</vdop><extensions><gom:speed>0.098</gom:speed><gom:course>162.622</gom:course><gom:rel_alt>18.168</gom:rel_alt></extensions></trkpt>
   <trkpt lat="59.0592616864" lon="29.9636685778"><ele>86.457</ele><time>2026-04-25T15:40:26.000Z</time><hdop>4.687</hdop><vdop>3.0</vdop><extensions><gom:speed>0.079</gom:speed><gom:course>218.592</gom:course><gom:rel_alt>17.732</gom:rel_alt></extensions></trkpt>
   <trkpt lat="59.0591955951" lon="29.9637292628"><ele>86.046</ele><time>2026-04-25T15:40:59.000Z</time><hdop>4.687</hdop><vdop>3.312</vdop><extensions><gom:speed>0.801</gom:speed><gom:course>170.373</gom:course><gom:rel_alt>17.745</gom:rel_alt></extensions></trkpt>
   <trkpt lat="59.0591203256" lon="29.9636778817"><ele>86.763</ele><time>2026-04-25T15:41:31.000Z</time><hdop>4.687</hdop><vdop>3.312</vdop><extensions><gom:speed>0.457</gom:speed><gom:course>204.634</gom:course><gom:rel_alt>18.409</gom:rel_alt></extensions></trkpt>
   <trkpt lat="59.0590609398" lon="29.9635886144"><ele>87.129</ele><time>2026-04-25T15:41:40.000Z</time><hdop>4.687</hdop><vdop>3.437</vdop><extensions><gom:speed>0.698</gom:speed><gom:course>192.62</gom:course><gom:rel_alt>18.369</gom:rel_alt></extensions></trkpt>
   <trkpt lat="59.0589814793" lon="29.9635351379"><ele>86.113</ele><time>2026-04-25T15:41:52.000Z</time><hdop>4.687</hdop><vdop>3.0</vdop><extensions><gom:speed>0.933</gom:speed><gom:course>188.099</gom:course><gom:rel_alt>18.208</gom:rel_alt></extensions></trkpt>
   <trkpt lat="59.0589104846" lon="29.9635987565"><ele>85.653</ele><time>2026-04-25T15:42:02.000Z</time><hdop>4.687</hdop><vdop>4.187</vdop><extensions><gom:speed>0.083</gom:speed><gom:course>188.94</gom:course><gom:rel_alt>18.311</gom:rel_alt></extensions></trkpt>
   <trkpt lat="59.058852398" lon="29.9635123391"><ele>83.953</ele><time>2026-04-25T15:42:17.000Z</time><hdop>4.687</hdop><vdop>3.375</vdop><extensions><gom:speed>0.301</gom:speed><gom:course>247.992</gom:course><gom:rel_alt>18.047</gom:rel_alt></extensions></trkpt>
   <trkpt lat="59.0587853428" lon="29.9634502292"><ele>83.774</ele><time>2026-04-25T15:42:26.000Z</time><hdop>4.687</hdop><vdop>3.75</vdop><extensions><gom:speed>0.517</gom:speed><gom:course>207.798</gom:course><gom:rel_alt>17.542</gom:rel_alt></extensions></trkpt>
   <trkpt lat="59.058697249" lon="29.9634622153"><ele>84.586</ele><time>2026-04-25T15:42:37.000Z</time><hdop>4.687</hdop><vdop>3.0</vdop><extensions><gom:speed>1.178</gom:speed><gom:course>188.341</gom:course><gom:rel_alt>17.732</gom:rel_alt></extensions></trkpt>
   <trkpt lat="59.0586246617" lon="29.9634786439"><ele>86.589</ele><time>2026-04-25T15:42:56.000Z</time><hdop>4.687</hdop><vdop>4.75</vdop><extensions><gom:speed>0.226</gom:speed><gom:course>175.844</gom:course><gom:rel_alt>18.184</gom:rel_alt></extensions></trkpt>
   <trkpt lat="59.0585519068" lon="29.9634643946"><ele>84.966</ele><time>2026-04-25T15:43:09.000Z</time><hdop>4.687</hdop><vdop>4.812</vdop><extensions><gom:speed>0.597</gom:speed><gom:rel_alt>18.218</gom:rel_alt></extensions></trkpt>
   <trkpt lat="59.0584941555" lon="29.9635570146"><ele>87.281</ele><time>2026-04-25T15:43:24.000Z</time><hdop>4.687</hdop><vdop>4.812</vdop><extensions><gom:speed>0.254</gom:speed><gom:course>133.365</gom:course><gom:rel_alt>18.858</gom:rel_alt></extensions></trkpt>
   <trkpt lat="59.0584571075" lon="29.963686096"><ele>88.085</ele><time>2026-04-25T15:43:37.000Z</time><hdop>4.687</hdop><vdop>4.875</vdop><extensions><gom:speed>0.238</gom:speed><gom:course>88.633</gom:course><gom:rel_alt>19.077</gom:rel_alt></extensions></trkpt>
   <trkpt lat="59.0583841849" lon="29.9636848387"><ele>88.648</ele><time>2026-04-25T15:43:47.000Z</time><hdop>4.687</hdop><vdop>4.937</vdop><extensions><gom:speed>0.452</gom:speed><gom:course>104.855</gom:course><gom:rel_alt>19.331</gom:rel_alt></extensions></trkpt>
   <trkpt lat="59.0583122263" lon="29.9636328709"><ele>88.711</ele><time>2026-04-25T15:43:58.000Z</time><hdop>4.687</hdop><vdop>4.75</vdop><extensions><gom:speed>0.156</gom:speed><gom:course>104.855</gom:course><gom:rel_alt>19.259</gom:rel_alt></extensions></trkpt>
   <trkpt lat="59.0582595879" lon="29.9635187094"><ele>89.772</ele><time>2026-04-25T15:44:10.000Z</time><hdop>4.687</hdop><vdop>4.562</vdop><extensions><gom:speed>0.64</gom:speed><gom:course>179.189</gom:course><gom:rel_alt>19.185</gom:rel_alt></extensions></trkpt>
   <trkpt lat="59.0581935804" lon="29.9635925539"><ele>89.418</ele><time>2026-04-25T15:44:22.000Z</time><hdop>4.687</hdop><vdop>5.312</vdop><extensions><gom:speed>0.355</gom:speed><gom:course>116.209</gom:course><gom:rel_alt>19.164</gom:rel_alt></extensions></trkpt>
   <trkpt lat="59.0581269024" lon="29.9636482098"><ele>89.888</ele><time>2026-04-25T15:44:36.000Z</time><hdop>4.687</hdop><vdop>5.437</vdop><extensions><gom:speed>0.422</gom:speed><gom:course>191.45</gom:course><gom:rel_alt>19.217</gom:rel_alt></extensions></trkpt>
   <trkpt lat="59.0580615236" lon="29.9635729403"><ele>89.974</ele><time>2026-04-25T15:44:46.000Z</time><hdop>4.687</hdop><vdop>5.062</vdop><extensions><gom:speed>0.678</gom:speed><gom:course>195.136</gom:course><gom:rel_alt>19.016</gom:rel_alt></extensions></trkpt>
   <trkpt lat="59.0579842005" lon="29.9635615409"><ele>90.078</ele><time>2026-04-25T15:45:02.999Z</time><hdop>4.687</hdop><vdop>5.062</vdop><extensions><gom:speed>0.748</gom:speed><gom:course>192.153</gom:course></extensions></trkpt>
   <trkpt lat="59.0579018902" lon="29.9635897041"><ele>90.972</ele><time>2026-04-25T15:45:18.000Z</time><hdop>4.687</hdop><vdop>5.062</vdop><extensions><gom:speed>0.725</gom:speed><gom:course>166.236</gom:course></extensions></trkpt>
   <trkpt lat="59.0578352541" lon="29.963527678"><ele>90.228</ele><time>2026-04-25T15:45:29.000Z</time><hdop>4.687</hdop><vdop>5.312</vdop><extensions><gom:speed>0.0</gom:speed><gom:course>199.108</gom:course><gom:rel_alt>19.257</gom:rel_alt></extensions></trkpt>
   <trkpt lat="59.0577614514" lon="29.9635736946"><ele>90.705</ele><time>2026-04-25T15:45:41.000Z</time><hdop>4.687</hdop><vdop>4.812</vdop><extensions><gom:speed>0.328</gom:speed><gom:course>167.681</gom:course><gom:rel_alt>19.339</gom:rel_alt></extensions></trkpt>
   <trkpt lat="59.0576892832" lon="29.9635674082"><ele>89.937</ele><time>2026-04-25T15:45:52.000Z</time><hdop>4.687</hdop><vdop>4.875</vdop><extensions><gom:speed>0.221</gom:speed><gom:course>165.363</gom:course><gom:rel_alt>19.053</gom:rel_alt></extensions></trkpt>
   <trkpt lat="59.0576138461" lon="29.9636023607"><ele>90.363</ele><time>2026-04-25T15:46:03.000Z</time><hdop>4.687</hdop><vdop>5.25</vdop><extensions><gom:speed>0.486</gom:speed><gom:course>163.841</gom:course></extensions></trkpt>
   <trkpt lat="59.0575405045" lon="29.9635845911"><ele>89.678</ele><time>2026-04-25T15:46:20.000Z</time><hdop>4.687</hdop><vdop>5.25</vdop><extensions><gom:speed>0.391</gom:speed><gom:course>216.807</gom:course><gom:rel_alt>18.897</gom:rel_alt></extensions></trkpt>
   <trkpt lat="59.0574746646" lon="29.9635126744"><ele>88.744</ele><time>2026-04-25T15:46:35.000Z</time><hdop>4.687</hdop><vdop>5.187</vdop><extensions><gom:speed>0.33</gom:speed><gom:course>231.43</gom:course><gom:rel_alt>19.098</gom:rel_alt></extensions></trkpt>
   <trkpt lat="59.0574435258" lon="29.9633830902"><ele>86.735</ele><time>2026-04-25T15:46:48.000Z</time><hdop>4.687</hdop><vdop>4.812</vdop><extensions><gom:speed>0.424</gom:speed><gom:rel_alt>19.402</gom:rel_alt></extensions></trkpt>
   <trkpt lat="59.0573839724" lon="29.9632769753"><ele>89.507</ele><time>2026-04-25T15:47:00.000Z</time><hdop>4.687</hdop><vdop>4.812</vdop><extensions><gom:speed>0.703</gom:speed><gom:course>249.124</gom:course><gom:rel_alt>19.455</gom:rel_alt></extensions></trkpt>
   <trkpt lat="59.0573273108" lon="29.963183517"><ele>87.8</ele><time>2026-04-25T15:47:15.000Z</time><hdop>4.687</hdop><vdop>4.562</vdop><extensions><gom:speed>0.389</gom:speed><gom:course>235.715</gom:course><gom:rel_alt>19.82</gom:rel_alt></extensions></trkpt>
   <trkpt lat="59.0572705653" lon="29.9630805035"><ele>87.789</ele><time>2026-04-25T15:47:24.000Z</time><hdop>4.687</hdop><vdop>4.562</vdop><extensions><gom:speed>0.569</gom:speed><gom:course>207.545</gom:course><gom:rel_alt>19.938</gom:rel_alt></extensions></trkpt>
   <trkpt lat="59.0571972236" lon="29.9630466406"><ele>86.961</ele><time>2026-04-25T15:47:37.000Z</time><hdop>4.687</hdop><vdop>4.5</vdop><extensions><gom:speed>0.274</gom:speed><gom:course>170.856</gom:course><gom:rel_alt>20.129</gom:rel_alt></extensions></trkpt>
   <trkpt lat="59.0571605947" lon="29.9629233428"><ele>85.605</ele><time>2026-04-25T15:48:01.000Z</time><hdop>4.687</hdop><vdop>4.812</vdop><extensions><gom:speed>0.16</gom:speed><gom:course>261.775</gom:course></extensions></trkpt>
   <trkpt lat="59.0570857862" lon="29.9629028909"><ele>86.233</ele><time>2026-04-25T15:48:21.000Z</time><hdop>4.687</hdop><vdop>5.0</vdop><extensions><gom:speed>0.341</gom:speed><gom:course>235.495</gom:course><gom:rel_alt>18.81</gom:rel_alt></extensions></trkpt>
   <trkpt lat="59.0570106844" lon="29.9628682737"><ele>85.642</ele><time>2026-04-25T15:48:36.000Z</time><hdop>4.687</hdop><vdop>4.812</vdop><extensions><gom:speed>0.387</gom:speed><gom:course>184.935</gom:course><gom:rel_alt>18.345</gom:rel_alt></extensions></trkpt>
   <trkpt lat="59.0569359178" lon="29.9628272862"><ele>87.938</ele><time>2026-04-25T15:48:48.000Z</time><hdop>4.687</hdop><vdop>4.5</vdop><extensions><gom:speed>0.421</gom:speed><gom:course>216.95</gom:course><gom:rel_alt>18.157</gom:rel_alt></extensions></trkpt>
   <trkpt lat="59.0568589719" lon="29.9628321477"><ele>85.186</ele><time>2026-04-25T15:49:25.000Z</time><hdop>4.687</hdop><vdop>4.875</vdop><extensions><gom:speed>0.37</gom:speed><gom:course>161.721</gom:course><gom:rel_alt>18.097</gom:rel_alt></extensions></trkpt>
   <trkpt lat="59.0567816908" lon="29.9628387694"><ele>85.196</ele><time>2026-04-25T15:50:00.000Z</time><hdop>4.687</hdop><vdop>5.25</vdop><extensions><gom:speed>0.502</gom:speed><gom:course>144.785</gom:course><gom:rel_alt>18.298</gom:rel_alt></extensions></trkpt>
   <trkpt lat="59.0567168987" lon="29.9629009631"><ele>84.182</ele><time>2026-04-25T15:50:09.000Z</time><hdop>4.687</hdop><vdop>5.187</vdop><extensions><gom:speed>0.813</gom:speed><gom:course>163.978</gom:course><gom:rel_alt>18.274</gom:rel_alt></extensions></trkpt>
   <trkpt lat="59.0566453591" lon="29.9629420344"><ele>85.693</ele><time>2026-04-25T15:50:18.000Z</time><hdop>4.687</hdop><vdop>5.125</vdop><extensions><gom:speed>0.449</gom:speed><gom:course>186.407</gom:course><gom:rel_alt>18.916</gom:rel_alt></extensions></trkpt>
   <trkpt lat="59.0566451496" lon="29.9630916514"><ele>90.554</ele><time>2026-04-25T15:50:40.000Z</time><hdop>4.687</hdop><vdop>5.062</vdop><extensions><gom:speed>0.595</gom:speed><gom:course>81.118</gom:course><gom:rel_alt>19.576</gom:rel_alt></extensions></trkpt>
   <trkpt lat="59.0565706344" lon="29.9630866222"><ele>88.011</ele><time>2026-04-25T15:51:03.000Z</time><hdop>4.687</hdop><vdop>5.187</vdop><extensions><gom:speed>0.403</gom:speed><gom:course>218.098</gom:course><gom:rel_alt>21.312</gom:rel_alt></extensions></trkpt>
   <trkpt lat="59.0564970832" lon="29.9630651646"><ele>88.13</ele><time>2026-04-25T15:51:14.000Z</time><hdop>4.687</hdop><vdop>5.0</vdop><extensions><gom:speed>0.455</gom:speed><gom:course>130.788</gom:course><gom:rel_alt>21.408</gom:rel_alt></extensions></trkpt>
   <trkpt lat="59.0564293575" lon="29.9630134482"><ele>87.602</ele><time>2026-04-25T15:51:26.000Z</time><hdop>4.687</hdop><vdop>3.5</vdop><extensions><gom:speed>1.0</gom:speed><gom:course>195.988</gom:course><gom:rel_alt>21.458</gom:rel_alt></extensions></trkpt>
   <trkpt lat="59.0563524535" lon="29.9629664258"><ele>87.79</ele><time>2026-04-25T15:51:34.000Z</time><hdop>4.687</hdop><vdop>4.187</vdop><extensions><gom:speed>0.438</gom:speed><gom:course>202.162</gom:course><gom:rel_alt>21.511</gom:rel_alt></extensions></trkpt>
   <trkpt lat="59.0562759686" lon="29.962949159"><ele>89.115</ele><time>2026-04-25T15:51:46.000Z</time><hdop>4.687</hdop><vdop>4.5</vdop><extensions><gom:speed>0.1</gom:speed><gom:course>113.787</gom:course><gom:rel_alt>21.63</gom:rel_alt></extensions></trkpt>
   <trkpt lat="59.0562017888" lon="29.9629258573"><ele>86.355</ele><time>2026-04-25T15:52:00.000Z</time><hdop>4.687</hdop><vdop>5.312</vdop><extensions><gom:speed>0.474</gom:speed><gom:course>216.005</gom:course><gom:rel_alt>21.754</gom:rel_alt></extensions></trkpt>
   <trkpt lat="59.056131297" lon="29.9628751468"><ele>86.456</ele><time>2026-04-25T15:52:12.000Z</time><hdop>13.375</hdop><vdop>3.0</vdop><extensions><gom:speed>1.57</gom:speed><gom:course>186.341</gom:course></extensions></trkpt>
   <trkpt lat="59.0560504535" lon="29.9628924135"><ele>87.661</ele><time>2026-04-25T15:52:27.000Z</time><hdop>17.125</hdop><vdop>3.0</vdop><extensions><gom:speed>0.868</gom:speed><gom:course>169.417</gom:course><gom:rel_alt>21.696</gom:rel_alt></extensions></trkpt>
   <trkpt lat="59.055967808" lon="29.9629178945"><ele>87.73</ele><time>2026-04-25T15:52:32.000Z</time><hdop>14.75</hdop><vdop>3.0</vdop><extensions><gom:speed>0.966</gom:speed><gom:course>177.607</gom:course><gom:rel_alt>21.685</gom:rel_alt></extensions></trkpt>
   <trkpt lat="59.0560542673" lon="29.9629865423"><ele>87.965</ele><time>2026-04-25T15:52:41.000Z</time><hdop>7.625</hdop><vdop>3.0</vdop><extensions><gom:speed>0.0</gom:speed><gom:course>193.362</gom:course></extensions></trkpt>
   <trkpt lat="59.0559945043" lon="29.9629026395"><ele>87.766</ele><time>2026-04-25T15:52:48.000Z</time><hdop>8.5</hdop><vdop>3.0</vdop><extensions><gom:speed>0.943</gom:speed><gom:course>202.058</gom:course><gom:rel_alt>21.558</gom:rel_alt></extensions></trkpt>
   <trkpt lat="59.0559223361" lon="29.9627315648"><ele>88.043</ele><time>2026-04-25T15:52:53.000Z</time><hdop>8.0</hdop><vdop>3.0</vdop><extensions><gom:speed>1.271</gom:speed><gom:course>214.275</gom:course><gom:rel_alt>21.394</gom:rel_alt></extensions></trkpt>
   <trkpt lat="59.0559632817" lon="29.9629330658"><ele>87.566</ele><time>2026-04-25T15:52:54.000Z</time><hdop>4.687</hdop><vdop>3.0</vdop><extensions><gom:speed>0.261</gom:speed><gom:course>214.06</gom:course><gom:rel_alt>21.402</gom:rel_alt></extensions></trkpt>
   <trkpt lat="59.0558915746" lon="29.9628845346"><ele>87.837</ele><time>2026-04-25T15:53:03.000Z</time><hdop>8.187</hdop><vdop>3.0</vdop><extensions><gom:speed>0.886</gom:speed><gom:course>168.373</gom:course><gom:rel_alt>21.447</gom:rel_alt></extensions></trkpt>
   <trkpt lat="59.0558401097" lon="29.962756962"><ele>89.074</ele><time>2026-04-25T15:53:17.000Z</time><hdop>8.437</hdop><vdop>3.0</vdop><extensions><gom:speed>0.717</gom:speed><gom:course>171.092</gom:course><gom:rel_alt>21.664</gom:rel_alt></extensions></trkpt>
   <trkpt lat="59.0557325699" lon="29.9628148809"><ele>89.508</ele><time>2026-04-25T15:53:31.000Z</time><hdop>4.687</hdop><vdop>4.125</vdop><extensions><gom:speed>0.274</gom:speed><gom:course>171.092</gom:course><gom:rel_alt>21.69</gom:rel_alt></extensions></trkpt>
   <trkpt lat="59.0557164347" lon="29.9626728077"><ele>86.023</ele><time>2026-04-25T15:53:41.000Z</time><hdop>4.687</hdop><vdop>5.312</vdop><extensions><gom:speed>0.589</gom:speed><gom:course>233.523</gom:course></extensions></trkpt>
   <trkpt lat="59.0556756567" lon="29.9625515215"><ele>86.083</ele><time>2026-04-25T15:53:50.000Z</time><hdop>4.687</hdop><vdop>5.062</vdop><extensions><gom:speed>0.726</gom:speed><gom:course>212.357</gom:course><gom:rel_alt>20.858</gom:rel_alt></extensions></trkpt>
   <trkpt lat="59.0556320289" lon="29.9624332529"><ele>87.622</ele><time>2026-04-25T15:54:00.000Z</time><hdop>4.687</hdop><vdop>4.375</vdop><extensions><gom:speed>0.416</gom:speed><gom:course>210.314</gom:course><gom:rel_alt>20.758</gom:rel_alt></extensions></trkpt>
   <trkpt lat="59.0555600284" lon="29.9624332529"><ele>84.006</ele><time>2026-04-25T15:56:14.000Z</time><hdop>4.687</hdop><vdop>5.062</vdop><extensions><gom:speed>0.353</gom:speed><gom:course>225.53</gom:course><gom:rel_alt>20.826</gom:rel_alt></extensions></trkpt>
   <trkpt lat="59.0555155205" lon="29.9623138946"><ele>84.847</ele><time>2026-04-25T15:56:22.000Z</time><hdop>4.687</hdop><vdop>4.625</vdop><extensions><gom:speed>0.894</gom:speed><gom:course>212.989</gom:course><gom:rel_alt>21.17</gom:rel_alt></extensions></trkpt>
  </trkseg>
 </trk>
</gpx>